<?xml version="1.0" encoding="UTF-8" standalone="no" ?>
<gpx xmlns="http://www.topografix.com/GPX/1/1" xmlns:xsi="http://www.w3.org/2001/XMLSchema-instance" xsi:schemaLocation="http://www.topografix.com/GPX/1/1 http://www.topografix.com/GPX/1/1/gpx.xsd" version="1.1" creator="VisuGPX - https://www.visugpx.com">
  <metadata>
    <name>Rando formation Caf carto1 </name>
    <desc><![CDATA[grp_trc:[visibles]]]></desc>
  </metadata>
  <trk>
    <name><![CDATA[5 avr. 2025]]></name>
    <cmt><![CDATA[09:05:59]]></cmt>
    <desc><![CDATA[comment ...]]></desc>
    <trkseg>
      <trkpt lat="44.10014" lon="7.02325">
        <ele>1670</ele>
        <time>2025-04-05T07:05:58Z</time>
      </trkpt>
      <trkpt lat="44.10013" lon="7.02324">
        <ele>1670</ele>
        <time>2025-04-05T07:06:00Z</time>
      </trkpt>
      <trkpt lat="44.10015" lon="7.02322">
        <ele>1672</ele>
        <time>2025-04-05T07:06:12Z</time>
      </trkpt>
      <trkpt lat="44.10018" lon="7.0232">
        <ele>1671</ele>
        <time>2025-04-05T07:06:30Z</time>
      </trkpt>
      <trkpt lat="44.10017" lon="7.02314">
        <ele>1672</ele>
        <time>2025-04-05T07:06:34Z</time>
      </trkpt>
      <trkpt lat="44.10019" lon="7.02311">
        <ele>1673</ele>
        <time>2025-04-05T07:06:38Z</time>
      </trkpt>
      <trkpt lat="44.10021" lon="7.02298">
        <ele>1677</ele>
        <time>2025-04-05T07:07:08Z</time>
      </trkpt>
      <trkpt lat="44.10017" lon="7.02281">
        <ele>1676</ele>
        <time>2025-04-05T07:07:20Z</time>
      </trkpt>
      <trkpt lat="44.10014" lon="7.02277">
        <ele>1677</ele>
        <time>2025-04-05T07:07:55Z</time>
      </trkpt>
      <trkpt lat="44.10003" lon="7.02271">
        <ele>1677</ele>
        <time>2025-04-05T07:08:11Z</time>
      </trkpt>
      <trkpt lat="44.09999" lon="7.02271">
        <ele>1677</ele>
        <time>2025-04-05T07:08:15Z</time>
      </trkpt>
      <trkpt lat="44.09997" lon="7.02268">
        <ele>1677</ele>
        <time>2025-04-05T07:08:23Z</time>
      </trkpt>
      <trkpt lat="44.09993" lon="7.02268">
        <ele>1678</ele>
        <time>2025-04-05T07:08:27Z</time>
      </trkpt>
      <trkpt lat="44.09976" lon="7.02267">
        <ele>1682</ele>
        <time>2025-04-05T07:08:49Z</time>
      </trkpt>
      <trkpt lat="44.09972" lon="7.02266">
        <ele>1682</ele>
        <time>2025-04-05T07:08:53Z</time>
      </trkpt>
      <trkpt lat="44.09962" lon="7.02274">
        <ele>1682</ele>
        <time>2025-04-05T07:09:07Z</time>
      </trkpt>
      <trkpt lat="44.09959" lon="7.02277">
        <ele>1682</ele>
        <time>2025-04-05T07:09:11Z</time>
      </trkpt>
      <trkpt lat="44.09956" lon="7.02276">
        <ele>1681</ele>
        <time>2025-04-05T07:09:17Z</time>
      </trkpt>
      <trkpt lat="44.09951" lon="7.0228">
        <ele>1680</ele>
        <time>2025-04-05T07:09:21Z</time>
      </trkpt>
      <trkpt lat="44.09949" lon="7.02287">
        <ele>1682</ele>
        <time>2025-04-05T07:09:25Z</time>
      </trkpt>
      <trkpt lat="44.09937" lon="7.02295">
        <ele>1682</ele>
        <time>2025-04-05T07:09:37Z</time>
      </trkpt>
      <trkpt lat="44.09934" lon="7.02293">
        <ele>1681</ele>
        <time>2025-04-05T07:09:41Z</time>
      </trkpt>
      <trkpt lat="44.09932" lon="7.02289">
        <ele>1682</ele>
        <time>2025-04-05T07:10:09Z</time>
      </trkpt>
      <trkpt lat="44.09929" lon="7.02289">
        <ele>1685</ele>
        <time>2025-04-05T07:12:03Z</time>
      </trkpt>
      <trkpt lat="44.09929" lon="7.02284">
        <ele>1685</ele>
        <time>2025-04-05T07:12:38Z</time>
      </trkpt>
      <trkpt lat="44.09927" lon="7.0228">
        <ele>1685</ele>
        <time>2025-04-05T07:12:56Z</time>
      </trkpt>
      <trkpt lat="44.09917" lon="7.02271">
        <ele>1685</ele>
        <time>2025-04-05T07:13:08Z</time>
      </trkpt>
      <trkpt lat="44.0991" lon="7.02262">
        <ele>1686</ele>
        <time>2025-04-05T07:13:16Z</time>
      </trkpt>
      <trkpt lat="44.09905" lon="7.02257">
        <ele>1685</ele>
        <time>2025-04-05T07:13:32Z</time>
      </trkpt>
      <trkpt lat="44.09904" lon="7.02253">
        <ele>1686</ele>
        <time>2025-04-05T07:13:36Z</time>
      </trkpt>
      <trkpt lat="44.09901" lon="7.0225">
        <ele>1687</ele>
        <time>2025-04-05T07:13:40Z</time>
      </trkpt>
      <trkpt lat="44.09898" lon="7.02248">
        <ele>1688</ele>
        <time>2025-04-05T07:13:44Z</time>
      </trkpt>
      <trkpt lat="44.09896" lon="7.02245">
        <ele>1689</ele>
        <time>2025-04-05T07:13:48Z</time>
      </trkpt>
      <trkpt lat="44.09895" lon="7.02241">
        <ele>1689</ele>
        <time>2025-04-05T07:13:54Z</time>
      </trkpt>
      <trkpt lat="44.09894" lon="7.02235">
        <ele>1689</ele>
        <time>2025-04-05T07:14:08Z</time>
      </trkpt>
      <trkpt lat="44.09889" lon="7.02227">
        <ele>1689</ele>
        <time>2025-04-05T07:14:16Z</time>
      </trkpt>
      <trkpt lat="44.09884" lon="7.02221">
        <ele>1690</ele>
        <time>2025-04-05T07:14:26Z</time>
      </trkpt>
      <trkpt lat="44.09883" lon="7.02217">
        <ele>1691</ele>
        <time>2025-04-05T07:15:24Z</time>
      </trkpt>
      <trkpt lat="44.0988" lon="7.02212">
        <ele>1690</ele>
        <time>2025-04-05T07:15:28Z</time>
      </trkpt>
      <trkpt lat="44.09876" lon="7.022">
        <ele>1689</ele>
        <time>2025-04-05T07:15:36Z</time>
      </trkpt>
      <trkpt lat="44.09877" lon="7.02195">
        <ele>1693</ele>
        <time>2025-04-05T07:15:48Z</time>
      </trkpt>
      <trkpt lat="44.09873" lon="7.02189">
        <ele>1694</ele>
        <time>2025-04-05T07:15:52Z</time>
      </trkpt>
      <trkpt lat="44.09872" lon="7.02184">
        <ele>1693</ele>
        <time>2025-04-05T07:15:56Z</time>
      </trkpt>
      <trkpt lat="44.09869" lon="7.02179">
        <ele>1693</ele>
        <time>2025-04-05T07:16:00Z</time>
      </trkpt>
      <trkpt lat="44.09866" lon="7.02159">
        <ele>1695</ele>
        <time>2025-04-05T07:16:18Z</time>
      </trkpt>
      <trkpt lat="44.09863" lon="7.0216">
        <ele>1697</ele>
        <time>2025-04-05T07:17:12Z</time>
      </trkpt>
      <trkpt lat="44.09861" lon="7.02164">
        <ele>1699</ele>
        <time>2025-04-05T07:17:38Z</time>
      </trkpt>
      <trkpt lat="44.0986" lon="7.02163">
        <ele>1696</ele>
        <time>2025-04-05T07:18:40Z</time>
      </trkpt>
      <trkpt lat="44.09857" lon="7.02164">
        <ele>1696</ele>
        <time>2025-04-05T07:18:50Z</time>
      </trkpt>
      <trkpt lat="44.09855" lon="7.02165">
        <ele>1700</ele>
        <time>2025-04-05T07:19:56Z</time>
      </trkpt>
      <trkpt lat="44.09851" lon="7.02167">
        <ele>1700</ele>
        <time>2025-04-05T07:20:06Z</time>
      </trkpt>
      <trkpt lat="44.09848" lon="7.02166">
        <ele>1700</ele>
        <time>2025-04-05T07:20:10Z</time>
      </trkpt>
      <trkpt lat="44.09846" lon="7.02162">
        <ele>1699</ele>
        <time>2025-04-05T07:20:18Z</time>
      </trkpt>
      <trkpt lat="44.09839" lon="7.02161">
        <ele>1701</ele>
        <time>2025-04-05T07:20:30Z</time>
      </trkpt>
      <trkpt lat="44.09833" lon="7.02161">
        <ele>1702</ele>
        <time>2025-04-05T07:20:38Z</time>
      </trkpt>
      <trkpt lat="44.0983" lon="7.02157">
        <ele>1704</ele>
        <time>2025-04-05T07:20:44Z</time>
      </trkpt>
      <trkpt lat="44.09827" lon="7.02157">
        <ele>1705</ele>
        <time>2025-04-05T07:20:48Z</time>
      </trkpt>
      <trkpt lat="44.09822" lon="7.02151">
        <ele>1707</ele>
        <time>2025-04-05T07:21:00Z</time>
      </trkpt>
      <trkpt lat="44.09818" lon="7.02152">
        <ele>1706</ele>
        <time>2025-04-05T07:21:06Z</time>
      </trkpt>
      <trkpt lat="44.09813" lon="7.02148">
        <ele>1706</ele>
        <time>2025-04-05T07:21:16Z</time>
      </trkpt>
      <trkpt lat="44.09808" lon="7.02147">
        <ele>1707</ele>
        <time>2025-04-05T07:21:36Z</time>
      </trkpt>
      <trkpt lat="44.09805" lon="7.02142">
        <ele>1709</ele>
        <time>2025-04-05T07:21:44Z</time>
      </trkpt>
      <trkpt lat="44.09797" lon="7.02137">
        <ele>1710</ele>
        <time>2025-04-05T07:22:06Z</time>
      </trkpt>
      <trkpt lat="44.09794" lon="7.02134">
        <ele>1710</ele>
        <time>2025-04-05T07:22:12Z</time>
      </trkpt>
      <trkpt lat="44.09791" lon="7.02133">
        <ele>1710</ele>
        <time>2025-04-05T07:22:16Z</time>
      </trkpt>
      <trkpt lat="44.09789" lon="7.0213">
        <ele>1712</ele>
        <time>2025-04-05T07:22:22Z</time>
      </trkpt>
      <trkpt lat="44.09786" lon="7.02127">
        <ele>1713</ele>
        <time>2025-04-05T07:22:28Z</time>
      </trkpt>
      <trkpt lat="44.09784" lon="7.02131">
        <ele>1714</ele>
        <time>2025-04-05T07:22:34Z</time>
      </trkpt>
      <trkpt lat="44.09776" lon="7.02132">
        <ele>1717</ele>
        <time>2025-04-05T07:22:52Z</time>
      </trkpt>
      <trkpt lat="44.09773" lon="7.02132">
        <ele>1717</ele>
        <time>2025-04-05T07:22:58Z</time>
      </trkpt>
      <trkpt lat="44.0977" lon="7.02133">
        <ele>1716</ele>
        <time>2025-04-05T07:23:02Z</time>
      </trkpt>
      <trkpt lat="44.09767" lon="7.02133">
        <ele>1715</ele>
        <time>2025-04-05T07:23:06Z</time>
      </trkpt>
      <trkpt lat="44.09767" lon="7.02127">
        <ele>1716</ele>
        <time>2025-04-05T07:23:12Z</time>
      </trkpt>
      <trkpt lat="44.09764" lon="7.02125">
        <ele>1718</ele>
        <time>2025-04-05T07:23:18Z</time>
      </trkpt>
      <trkpt lat="44.09762" lon="7.02127">
        <ele>1718</ele>
        <time>2025-04-05T07:23:22Z</time>
      </trkpt>
      <trkpt lat="44.09758" lon="7.02126">
        <ele>1720</ele>
        <time>2025-04-05T07:23:42Z</time>
      </trkpt>
      <trkpt lat="44.09756" lon="7.02118">
        <ele>1720</ele>
        <time>2025-04-05T07:23:52Z</time>
      </trkpt>
      <trkpt lat="44.09754" lon="7.02114">
        <ele>1721</ele>
        <time>2025-04-05T07:23:56Z</time>
      </trkpt>
      <trkpt lat="44.09758" lon="7.02099">
        <ele>1724</ele>
        <time>2025-04-05T07:24:12Z</time>
      </trkpt>
      <trkpt lat="44.09755" lon="7.02094">
        <ele>1724</ele>
        <time>2025-04-05T07:24:20Z</time>
      </trkpt>
      <trkpt lat="44.09748" lon="7.02092">
        <ele>1725</ele>
        <time>2025-04-05T07:24:28Z</time>
      </trkpt>
      <trkpt lat="44.09744" lon="7.0209">
        <ele>1728</ele>
        <time>2025-04-05T07:24:34Z</time>
      </trkpt>
      <trkpt lat="44.09742" lon="7.02086">
        <ele>1727</ele>
        <time>2025-04-05T07:24:44Z</time>
      </trkpt>
      <trkpt lat="44.09739" lon="7.02083">
        <ele>1727</ele>
        <time>2025-04-05T07:24:48Z</time>
      </trkpt>
      <trkpt lat="44.09732" lon="7.02076">
        <ele>1728</ele>
        <time>2025-04-05T07:25:02Z</time>
      </trkpt>
      <trkpt lat="44.09726" lon="7.02072">
        <ele>1730</ele>
        <time>2025-04-05T07:25:10Z</time>
      </trkpt>
      <trkpt lat="44.09721" lon="7.02068">
        <ele>1730</ele>
        <time>2025-04-05T07:25:16Z</time>
      </trkpt>
      <trkpt lat="44.09716" lon="7.02053">
        <ele>1731</ele>
        <time>2025-04-05T07:25:30Z</time>
      </trkpt>
      <trkpt lat="44.09712" lon="7.02046">
        <ele>1732</ele>
        <time>2025-04-05T07:25:38Z</time>
      </trkpt>
      <trkpt lat="44.09708" lon="7.02044">
        <ele>1734</ele>
        <time>2025-04-05T07:25:50Z</time>
      </trkpt>
      <trkpt lat="44.09708" lon="7.0204">
        <ele>1735</ele>
        <time>2025-04-05T07:25:56Z</time>
      </trkpt>
      <trkpt lat="44.09708" lon="7.0204">
        <ele>1735</ele>
        <time>2025-04-05T07:26:30Z</time>
      </trkpt>
      <trkpt lat="44.09704" lon="7.02041">
        <ele>1735</ele>
        <time>2025-04-05T07:26:38Z</time>
      </trkpt>
      <trkpt lat="44.09705" lon="7.02042">
        <ele>1732</ele>
        <time>2025-04-05T07:28:10Z</time>
      </trkpt>
      <trkpt lat="44.09701" lon="7.02042">
        <ele>1734</ele>
        <time>2025-04-05T07:29:12Z</time>
      </trkpt>
      <trkpt lat="44.097" lon="7.02046">
        <ele>1735</ele>
        <time>2025-04-05T07:29:56Z</time>
      </trkpt>
      <trkpt lat="44.09697" lon="7.02048">
        <ele>1736</ele>
        <time>2025-04-05T07:30:22Z</time>
      </trkpt>
      <trkpt lat="44.09693" lon="7.02051">
        <ele>1735</ele>
        <time>2025-04-05T07:30:52Z</time>
      </trkpt>
      <trkpt lat="44.0969" lon="7.02052">
        <ele>1731</ele>
        <time>2025-04-05T07:31:06Z</time>
      </trkpt>
      <trkpt lat="44.09685" lon="7.02053">
        <ele>1733</ele>
        <time>2025-04-05T07:31:24Z</time>
      </trkpt>
      <trkpt lat="44.09678" lon="7.02059">
        <ele>1732</ele>
        <time>2025-04-05T07:31:34Z</time>
      </trkpt>
      <trkpt lat="44.09675" lon="7.0206">
        <ele>1732</ele>
        <time>2025-04-05T07:31:40Z</time>
      </trkpt>
      <trkpt lat="44.09671" lon="7.02064">
        <ele>1731</ele>
        <time>2025-04-05T07:31:48Z</time>
      </trkpt>
      <trkpt lat="44.09659" lon="7.02078">
        <ele>1728</ele>
        <time>2025-04-05T07:32:14Z</time>
      </trkpt>
      <trkpt lat="44.0965" lon="7.02084">
        <ele>1724</ele>
        <time>2025-04-05T07:32:26Z</time>
      </trkpt>
      <trkpt lat="44.09646" lon="7.02083">
        <ele>1724</ele>
        <time>2025-04-05T07:32:32Z</time>
      </trkpt>
      <trkpt lat="44.09641" lon="7.02085">
        <ele>1723</ele>
        <time>2025-04-05T07:32:36Z</time>
      </trkpt>
      <trkpt lat="44.09637" lon="7.02087">
        <ele>1724</ele>
        <time>2025-04-05T07:32:40Z</time>
      </trkpt>
      <trkpt lat="44.09629" lon="7.02094">
        <ele>1724</ele>
        <time>2025-04-05T07:32:48Z</time>
      </trkpt>
      <trkpt lat="44.09621" lon="7.02095">
        <ele>1723</ele>
        <time>2025-04-05T07:32:55Z</time>
      </trkpt>
      <trkpt lat="44.09619" lon="7.02099">
        <ele>1722</ele>
        <time>2025-04-05T07:33:00Z</time>
      </trkpt>
      <trkpt lat="44.09615" lon="7.021">
        <ele>1722</ele>
        <time>2025-04-05T07:33:09Z</time>
      </trkpt>
      <trkpt lat="44.09613" lon="7.02104">
        <ele>1723</ele>
        <time>2025-04-05T07:33:15Z</time>
      </trkpt>
      <trkpt lat="44.0961" lon="7.02102">
        <ele>1723</ele>
        <time>2025-04-05T07:33:37Z</time>
      </trkpt>
      <trkpt lat="44.09601" lon="7.0211">
        <ele>1722</ele>
        <time>2025-04-05T07:34:07Z</time>
      </trkpt>
      <trkpt lat="44.09598" lon="7.02111">
        <ele>1722</ele>
        <time>2025-04-05T07:34:13Z</time>
      </trkpt>
      <trkpt lat="44.09592" lon="7.02118">
        <ele>1722</ele>
        <time>2025-04-05T07:34:21Z</time>
      </trkpt>
      <trkpt lat="44.09586" lon="7.02124">
        <ele>1723</ele>
        <time>2025-04-05T07:34:33Z</time>
      </trkpt>
      <trkpt lat="44.09569" lon="7.02129">
        <ele>1725</ele>
        <time>2025-04-05T07:35:03Z</time>
      </trkpt>
      <trkpt lat="44.09562" lon="7.02128">
        <ele>1729</ele>
        <time>2025-04-05T07:35:19Z</time>
      </trkpt>
      <trkpt lat="44.0956" lon="7.02131">
        <ele>1729</ele>
        <time>2025-04-05T07:35:23Z</time>
      </trkpt>
      <trkpt lat="44.09559" lon="7.02135">
        <ele>1733</ele>
        <time>2025-04-05T07:35:43Z</time>
      </trkpt>
      <trkpt lat="44.09556" lon="7.02137">
        <ele>1734</ele>
        <time>2025-04-05T07:35:53Z</time>
      </trkpt>
      <trkpt lat="44.09532" lon="7.02143">
        <ele>1735</ele>
        <time>2025-04-05T07:36:15Z</time>
      </trkpt>
      <trkpt lat="44.09529" lon="7.02143">
        <ele>1737</ele>
        <time>2025-04-05T07:36:31Z</time>
      </trkpt>
      <trkpt lat="44.09526" lon="7.02144">
        <ele>1736</ele>
        <time>2025-04-05T07:36:49Z</time>
      </trkpt>
      <trkpt lat="44.09519" lon="7.02139">
        <ele>1737</ele>
        <time>2025-04-05T07:37:01Z</time>
      </trkpt>
      <trkpt lat="44.09519" lon="7.02134">
        <ele>1738</ele>
        <time>2025-04-05T07:37:03Z</time>
      </trkpt>
      <trkpt lat="44.09517" lon="7.02131">
        <ele>1739</ele>
        <time>2025-04-05T07:37:09Z</time>
      </trkpt>
      <trkpt lat="44.09511" lon="7.02133">
        <ele>1738</ele>
        <time>2025-04-05T07:37:13Z</time>
      </trkpt>
      <trkpt lat="44.09508" lon="7.02131">
        <ele>1737</ele>
        <time>2025-04-05T07:37:21Z</time>
      </trkpt>
      <trkpt lat="44.09505" lon="7.02134">
        <ele>1738</ele>
        <time>2025-04-05T07:37:25Z</time>
      </trkpt>
      <trkpt lat="44.09504" lon="7.02128">
        <ele>1739</ele>
        <time>2025-04-05T07:37:35Z</time>
      </trkpt>
      <trkpt lat="44.09497" lon="7.02118">
        <ele>1739</ele>
        <time>2025-04-05T07:37:45Z</time>
      </trkpt>
      <trkpt lat="44.0947" lon="7.02125">
        <ele>1736</ele>
        <time>2025-04-05T07:38:09Z</time>
      </trkpt>
      <trkpt lat="44.09466" lon="7.02126">
        <ele>1735</ele>
        <time>2025-04-05T07:38:17Z</time>
      </trkpt>
      <trkpt lat="44.09465" lon="7.02132">
        <ele>1736</ele>
        <time>2025-04-05T07:38:21Z</time>
      </trkpt>
      <trkpt lat="44.09466" lon="7.02137">
        <ele>1737</ele>
        <time>2025-04-05T07:38:25Z</time>
      </trkpt>
      <trkpt lat="44.09458" lon="7.02146">
        <ele>1741</ele>
        <time>2025-04-05T07:38:35Z</time>
      </trkpt>
      <trkpt lat="44.09454" lon="7.02147">
        <ele>1742</ele>
        <time>2025-04-05T07:38:39Z</time>
      </trkpt>
      <trkpt lat="44.09451" lon="7.02144">
        <ele>1741</ele>
        <time>2025-04-05T07:38:41Z</time>
      </trkpt>
      <trkpt lat="44.09448" lon="7.02139">
        <ele>1741</ele>
        <time>2025-04-05T07:38:45Z</time>
      </trkpt>
      <trkpt lat="44.09446" lon="7.02137">
        <ele>1740</ele>
        <time>2025-04-05T07:38:49Z</time>
      </trkpt>
      <trkpt lat="44.09442" lon="7.02136">
        <ele>1740</ele>
        <time>2025-04-05T07:38:53Z</time>
      </trkpt>
      <trkpt lat="44.09438" lon="7.02134">
        <ele>1740</ele>
        <time>2025-04-05T07:38:57Z</time>
      </trkpt>
      <trkpt lat="44.09435" lon="7.02131">
        <ele>1740</ele>
        <time>2025-04-05T07:39:03Z</time>
      </trkpt>
      <trkpt lat="44.0943" lon="7.02133">
        <ele>1739</ele>
        <time>2025-04-05T07:39:07Z</time>
      </trkpt>
      <trkpt lat="44.09427" lon="7.02132">
        <ele>1738</ele>
        <time>2025-04-05T07:39:13Z</time>
      </trkpt>
      <trkpt lat="44.09424" lon="7.02127">
        <ele>1737</ele>
        <time>2025-04-05T07:39:19Z</time>
      </trkpt>
      <trkpt lat="44.09421" lon="7.02128">
        <ele>1737</ele>
        <time>2025-04-05T07:39:23Z</time>
      </trkpt>
      <trkpt lat="44.09417" lon="7.02129">
        <ele>1739</ele>
        <time>2025-04-05T07:39:29Z</time>
      </trkpt>
      <trkpt lat="44.09418" lon="7.02129">
        <ele>1743</ele>
        <time>2025-04-05T07:40:27Z</time>
      </trkpt>
      <trkpt lat="44.09417" lon="7.02124">
        <ele>1740</ele>
        <time>2025-04-05T07:41:27Z</time>
      </trkpt>
      <trkpt lat="44.09414" lon="7.02128">
        <ele>1740</ele>
        <time>2025-04-05T07:41:49Z</time>
      </trkpt>
      <trkpt lat="44.09409" lon="7.02132">
        <ele>1739</ele>
        <time>2025-04-05T07:41:57Z</time>
      </trkpt>
      <trkpt lat="44.09405" lon="7.02131">
        <ele>1738</ele>
        <time>2025-04-05T07:42:03Z</time>
      </trkpt>
      <trkpt lat="44.09402" lon="7.02129">
        <ele>1738</ele>
        <time>2025-04-05T07:42:09Z</time>
      </trkpt>
      <trkpt lat="44.09389" lon="7.02133">
        <ele>1739</ele>
        <time>2025-04-05T07:42:29Z</time>
      </trkpt>
      <trkpt lat="44.09385" lon="7.02131">
        <ele>1740</ele>
        <time>2025-04-05T07:42:33Z</time>
      </trkpt>
      <trkpt lat="44.09383" lon="7.0213">
        <ele>1740</ele>
        <time>2025-04-05T07:42:37Z</time>
      </trkpt>
      <trkpt lat="44.0938" lon="7.02127">
        <ele>1740</ele>
        <time>2025-04-05T07:42:41Z</time>
      </trkpt>
      <trkpt lat="44.09378" lon="7.0213">
        <ele>1741</ele>
        <time>2025-04-05T07:42:47Z</time>
      </trkpt>
      <trkpt lat="44.09376" lon="7.02135">
        <ele>1743</ele>
        <time>2025-04-05T07:42:53Z</time>
      </trkpt>
      <trkpt lat="44.09372" lon="7.02136">
        <ele>1743</ele>
        <time>2025-04-05T07:43:01Z</time>
      </trkpt>
      <trkpt lat="44.09372" lon="7.02141">
        <ele>1747</ele>
        <time>2025-04-05T07:43:13Z</time>
      </trkpt>
      <trkpt lat="44.09368" lon="7.02141">
        <ele>1747</ele>
        <time>2025-04-05T07:43:21Z</time>
      </trkpt>
      <trkpt lat="44.09364" lon="7.02142">
        <ele>1749</ele>
        <time>2025-04-05T07:43:27Z</time>
      </trkpt>
      <trkpt lat="44.09361" lon="7.0214">
        <ele>1748</ele>
        <time>2025-04-05T07:43:41Z</time>
      </trkpt>
      <trkpt lat="44.09353" lon="7.02145">
        <ele>1748</ele>
        <time>2025-04-05T07:43:49Z</time>
      </trkpt>
      <trkpt lat="44.09351" lon="7.02143">
        <ele>1747</ele>
        <time>2025-04-05T07:44:05Z</time>
      </trkpt>
      <trkpt lat="44.09353" lon="7.02144">
        <ele>1750</ele>
        <time>2025-04-05T07:45:25Z</time>
      </trkpt>
      <trkpt lat="44.09351" lon="7.02143">
        <ele>1750</ele>
        <time>2025-04-05T07:47:09Z</time>
      </trkpt>
      <trkpt lat="44.09353" lon="7.02145">
        <ele>1751</ele>
        <time>2025-04-05T07:48:19Z</time>
      </trkpt>
      <trkpt lat="44.0935" lon="7.02149">
        <ele>1751</ele>
        <time>2025-04-05T07:48:31Z</time>
      </trkpt>
      <trkpt lat="44.0935" lon="7.02153">
        <ele>1753</ele>
        <time>2025-04-05T07:49:11Z</time>
      </trkpt>
      <trkpt lat="44.09323" lon="7.02152">
        <ele>1752</ele>
        <time>2025-04-05T07:49:39Z</time>
      </trkpt>
      <trkpt lat="44.09309" lon="7.02153">
        <ele>1750</ele>
        <time>2025-04-05T07:49:55Z</time>
      </trkpt>
      <trkpt lat="44.09306" lon="7.02152">
        <ele>1750</ele>
        <time>2025-04-05T07:49:59Z</time>
      </trkpt>
      <trkpt lat="44.09303" lon="7.02148">
        <ele>1749</ele>
        <time>2025-04-05T07:50:03Z</time>
      </trkpt>
      <trkpt lat="44.09299" lon="7.02147">
        <ele>1749</ele>
        <time>2025-04-05T07:50:07Z</time>
      </trkpt>
      <trkpt lat="44.09292" lon="7.02141">
        <ele>1751</ele>
        <time>2025-04-05T07:50:17Z</time>
      </trkpt>
      <trkpt lat="44.09287" lon="7.02146">
        <ele>1750</ele>
        <time>2025-04-05T07:50:21Z</time>
      </trkpt>
      <trkpt lat="44.09275" lon="7.02146">
        <ele>1748</ele>
        <time>2025-04-05T07:50:33Z</time>
      </trkpt>
      <trkpt lat="44.09272" lon="7.02146">
        <ele>1748</ele>
        <time>2025-04-05T07:50:37Z</time>
      </trkpt>
      <trkpt lat="44.09268" lon="7.02144">
        <ele>1748</ele>
        <time>2025-04-05T07:50:41Z</time>
      </trkpt>
      <trkpt lat="44.09264" lon="7.02145">
        <ele>1749</ele>
        <time>2025-04-05T07:50:45Z</time>
      </trkpt>
      <trkpt lat="44.09262" lon="7.02148">
        <ele>1753</ele>
        <time>2025-04-05T07:51:19Z</time>
      </trkpt>
      <trkpt lat="44.09266" lon="7.02148">
        <ele>1754</ele>
        <time>2025-04-05T07:52:39Z</time>
      </trkpt>
      <trkpt lat="44.09267" lon="7.02144">
        <ele>1755</ele>
        <time>2025-04-05T07:52:47Z</time>
      </trkpt>
      <trkpt lat="44.09264" lon="7.02144">
        <ele>1754</ele>
        <time>2025-04-05T07:52:55Z</time>
      </trkpt>
      <trkpt lat="44.09261" lon="7.02142">
        <ele>1754</ele>
        <time>2025-04-05T07:53:05Z</time>
      </trkpt>
      <trkpt lat="44.09261" lon="7.02147">
        <ele>1754</ele>
        <time>2025-04-05T07:53:13Z</time>
      </trkpt>
      <trkpt lat="44.09261" lon="7.02148">
        <ele>1754</ele>
        <time>2025-04-05T07:53:33Z</time>
      </trkpt>
      <trkpt lat="44.09261" lon="7.02148">
        <ele>1754</ele>
        <time>2025-04-05T07:54:49Z</time>
      </trkpt>
      <trkpt lat="44.09263" lon="7.02145">
        <ele>1754</ele>
        <time>2025-04-05T07:55:07Z</time>
      </trkpt>
      <trkpt lat="44.09264" lon="7.02149">
        <ele>1754</ele>
        <time>2025-04-05T07:55:51Z</time>
      </trkpt>
      <trkpt lat="44.09264" lon="7.02149">
        <ele>1763</ele>
        <time>2025-04-05T07:57:15Z</time>
      </trkpt>
      <trkpt lat="44.0926" lon="7.02154">
        <ele>1760</ele>
        <time>2025-04-05T07:57:35Z</time>
      </trkpt>
      <trkpt lat="44.09257" lon="7.02153">
        <ele>1758</ele>
        <time>2025-04-05T07:57:39Z</time>
      </trkpt>
      <trkpt lat="44.09235" lon="7.02158">
        <ele>1751</ele>
        <time>2025-04-05T07:58:05Z</time>
      </trkpt>
      <trkpt lat="44.09231" lon="7.0216">
        <ele>1750</ele>
        <time>2025-04-05T07:58:13Z</time>
      </trkpt>
      <trkpt lat="44.09227" lon="7.02162">
        <ele>1751</ele>
        <time>2025-04-05T07:58:17Z</time>
      </trkpt>
      <trkpt lat="44.09225" lon="7.0216">
        <ele>1752</ele>
        <time>2025-04-05T07:58:21Z</time>
      </trkpt>
      <trkpt lat="44.0922" lon="7.02162">
        <ele>1756</ele>
        <time>2025-04-05T07:58:31Z</time>
      </trkpt>
      <trkpt lat="44.09217" lon="7.02162">
        <ele>1758</ele>
        <time>2025-04-05T07:58:55Z</time>
      </trkpt>
      <trkpt lat="44.09217" lon="7.02159">
        <ele>1760</ele>
        <time>2025-04-05T07:59:41Z</time>
      </trkpt>
      <trkpt lat="44.09217" lon="7.02161">
        <ele>1761</ele>
        <time>2025-04-05T08:00:05Z</time>
      </trkpt>
      <trkpt lat="44.09219" lon="7.02165">
        <ele>1760</ele>
        <time>2025-04-05T08:00:43Z</time>
      </trkpt>
      <trkpt lat="44.09224" lon="7.02165">
        <ele>1762</ele>
        <time>2025-04-05T08:00:57Z</time>
      </trkpt>
      <trkpt lat="44.09223" lon="7.02171">
        <ele>1763</ele>
        <time>2025-04-05T08:01:05Z</time>
      </trkpt>
      <trkpt lat="44.0922" lon="7.02173">
        <ele>1763</ele>
        <time>2025-04-05T08:01:09Z</time>
      </trkpt>
      <trkpt lat="44.09216" lon="7.02179">
        <ele>1762</ele>
        <time>2025-04-05T08:01:17Z</time>
      </trkpt>
      <trkpt lat="44.09215" lon="7.02195">
        <ele>1761</ele>
        <time>2025-04-05T08:01:35Z</time>
      </trkpt>
      <trkpt lat="44.09214" lon="7.02202">
        <ele>1763</ele>
        <time>2025-04-05T08:01:43Z</time>
      </trkpt>
      <trkpt lat="44.09212" lon="7.0221">
        <ele>1764</ele>
        <time>2025-04-05T08:01:49Z</time>
      </trkpt>
      <trkpt lat="44.09209" lon="7.02216">
        <ele>1765</ele>
        <time>2025-04-05T08:01:59Z</time>
      </trkpt>
      <trkpt lat="44.09207" lon="7.02219">
        <ele>1764</ele>
        <time>2025-04-05T08:02:03Z</time>
      </trkpt>
      <trkpt lat="44.09202" lon="7.02225">
        <ele>1762</ele>
        <time>2025-04-05T08:02:09Z</time>
      </trkpt>
      <trkpt lat="44.09201" lon="7.02231">
        <ele>1762</ele>
        <time>2025-04-05T08:02:15Z</time>
      </trkpt>
      <trkpt lat="44.09199" lon="7.02237">
        <ele>1764</ele>
        <time>2025-04-05T08:02:21Z</time>
      </trkpt>
      <trkpt lat="44.09196" lon="7.0224">
        <ele>1762</ele>
        <time>2025-04-05T08:02:27Z</time>
      </trkpt>
      <trkpt lat="44.09193" lon="7.02246">
        <ele>1761</ele>
        <time>2025-04-05T08:02:33Z</time>
      </trkpt>
      <trkpt lat="44.09191" lon="7.0225">
        <ele>1760</ele>
        <time>2025-04-05T08:02:37Z</time>
      </trkpt>
      <trkpt lat="44.09188" lon="7.02254">
        <ele>1759</ele>
        <time>2025-04-05T08:02:41Z</time>
      </trkpt>
      <trkpt lat="44.09183" lon="7.02265">
        <ele>1758</ele>
        <time>2025-04-05T08:02:53Z</time>
      </trkpt>
      <trkpt lat="44.09179" lon="7.0227">
        <ele>1757</ele>
        <time>2025-04-05T08:02:59Z</time>
      </trkpt>
      <trkpt lat="44.09177" lon="7.02274">
        <ele>1758</ele>
        <time>2025-04-05T08:03:03Z</time>
      </trkpt>
      <trkpt lat="44.09174" lon="7.02277">
        <ele>1758</ele>
        <time>2025-04-05T08:03:07Z</time>
      </trkpt>
      <trkpt lat="44.09174" lon="7.02281">
        <ele>1759</ele>
        <time>2025-04-05T08:03:11Z</time>
      </trkpt>
      <trkpt lat="44.09174" lon="7.02286">
        <ele>1761</ele>
        <time>2025-04-05T08:03:17Z</time>
      </trkpt>
      <trkpt lat="44.09173" lon="7.0229">
        <ele>1761</ele>
        <time>2025-04-05T08:03:23Z</time>
      </trkpt>
      <trkpt lat="44.0917" lon="7.02292">
        <ele>1761</ele>
        <time>2025-04-05T08:03:27Z</time>
      </trkpt>
      <trkpt lat="44.09157" lon="7.02307">
        <ele>1759</ele>
        <time>2025-04-05T08:03:45Z</time>
      </trkpt>
      <trkpt lat="44.09156" lon="7.02312">
        <ele>1761</ele>
        <time>2025-04-05T08:03:51Z</time>
      </trkpt>
      <trkpt lat="44.09138" lon="7.02325">
        <ele>1760</ele>
        <time>2025-04-05T08:04:11Z</time>
      </trkpt>
      <trkpt lat="44.09134" lon="7.02327">
        <ele>1760</ele>
        <time>2025-04-05T08:04:17Z</time>
      </trkpt>
      <trkpt lat="44.0913" lon="7.02328">
        <ele>1760</ele>
        <time>2025-04-05T08:04:25Z</time>
      </trkpt>
      <trkpt lat="44.09128" lon="7.02334">
        <ele>1759</ele>
        <time>2025-04-05T08:04:29Z</time>
      </trkpt>
      <trkpt lat="44.09127" lon="7.02339">
        <ele>1759</ele>
        <time>2025-04-05T08:04:33Z</time>
      </trkpt>
      <trkpt lat="44.09124" lon="7.02343">
        <ele>1759</ele>
        <time>2025-04-05T08:04:39Z</time>
      </trkpt>
      <trkpt lat="44.0912" lon="7.02343">
        <ele>1760</ele>
        <time>2025-04-05T08:04:43Z</time>
      </trkpt>
      <trkpt lat="44.09118" lon="7.02347">
        <ele>1761</ele>
        <time>2025-04-05T08:04:47Z</time>
      </trkpt>
      <trkpt lat="44.09114" lon="7.0235">
        <ele>1761</ele>
        <time>2025-04-05T08:04:51Z</time>
      </trkpt>
      <trkpt lat="44.0911" lon="7.02353">
        <ele>1758</ele>
        <time>2025-04-05T08:04:55Z</time>
      </trkpt>
      <trkpt lat="44.09107" lon="7.0236">
        <ele>1757</ele>
        <time>2025-04-05T08:05:01Z</time>
      </trkpt>
      <trkpt lat="44.09103" lon="7.02362">
        <ele>1756</ele>
        <time>2025-04-05T08:05:05Z</time>
      </trkpt>
      <trkpt lat="44.09099" lon="7.02367">
        <ele>1757</ele>
        <time>2025-04-05T08:05:11Z</time>
      </trkpt>
      <trkpt lat="44.0909" lon="7.02377">
        <ele>1760</ele>
        <time>2025-04-05T08:05:23Z</time>
      </trkpt>
      <trkpt lat="44.09087" lon="7.02379">
        <ele>1760</ele>
        <time>2025-04-05T08:05:29Z</time>
      </trkpt>
      <trkpt lat="44.09083" lon="7.02377">
        <ele>1759</ele>
        <time>2025-04-05T08:05:33Z</time>
      </trkpt>
      <trkpt lat="44.09078" lon="7.02378">
        <ele>1757</ele>
        <time>2025-04-05T08:05:37Z</time>
      </trkpt>
      <trkpt lat="44.09073" lon="7.0238">
        <ele>1756</ele>
        <time>2025-04-05T08:05:41Z</time>
      </trkpt>
      <trkpt lat="44.09068" lon="7.02387">
        <ele>1755</ele>
        <time>2025-04-05T08:05:47Z</time>
      </trkpt>
      <trkpt lat="44.09065" lon="7.02392">
        <ele>1756</ele>
        <time>2025-04-05T08:05:51Z</time>
      </trkpt>
      <trkpt lat="44.09062" lon="7.02392">
        <ele>1756</ele>
        <time>2025-04-05T08:05:55Z</time>
      </trkpt>
      <trkpt lat="44.09062" lon="7.02392">
        <ele>1763</ele>
        <time>2025-04-05T08:06:33Z</time>
      </trkpt>
      <trkpt lat="44.09051" lon="7.02395">
        <ele>1763</ele>
        <time>2025-04-05T08:06:53Z</time>
      </trkpt>
      <trkpt lat="44.09048" lon="7.02394">
        <ele>1760</ele>
        <time>2025-04-05T08:06:57Z</time>
      </trkpt>
      <trkpt lat="44.09042" lon="7.02396">
        <ele>1759</ele>
        <time>2025-04-05T08:07:01Z</time>
      </trkpt>
      <trkpt lat="44.09037" lon="7.02396">
        <ele>1758</ele>
        <time>2025-04-05T08:07:05Z</time>
      </trkpt>
      <trkpt lat="44.09034" lon="7.02399">
        <ele>1757</ele>
        <time>2025-04-05T08:07:11Z</time>
      </trkpt>
      <trkpt lat="44.09031" lon="7.02397">
        <ele>1756</ele>
        <time>2025-04-05T08:07:19Z</time>
      </trkpt>
      <trkpt lat="44.09028" lon="7.02399">
        <ele>1757</ele>
        <time>2025-04-05T08:07:25Z</time>
      </trkpt>
      <trkpt lat="44.09027" lon="7.02404">
        <ele>1759</ele>
        <time>2025-04-05T08:07:29Z</time>
      </trkpt>
      <trkpt lat="44.09026" lon="7.02407">
        <ele>1760</ele>
        <time>2025-04-05T08:07:33Z</time>
      </trkpt>
      <trkpt lat="44.09021" lon="7.02409">
        <ele>1760</ele>
        <time>2025-04-05T08:07:39Z</time>
      </trkpt>
      <trkpt lat="44.09017" lon="7.02409">
        <ele>1760</ele>
        <time>2025-04-05T08:07:43Z</time>
      </trkpt>
      <trkpt lat="44.09014" lon="7.02408">
        <ele>1760</ele>
        <time>2025-04-05T08:07:49Z</time>
      </trkpt>
      <trkpt lat="44.09012" lon="7.02411">
        <ele>1760</ele>
        <time>2025-04-05T08:07:53Z</time>
      </trkpt>
      <trkpt lat="44.0899" lon="7.02412">
        <ele>1760</ele>
        <time>2025-04-05T08:08:19Z</time>
      </trkpt>
      <trkpt lat="44.08987" lon="7.02415">
        <ele>1759</ele>
        <time>2025-04-05T08:08:21Z</time>
      </trkpt>
      <trkpt lat="44.08984" lon="7.02415">
        <ele>1758</ele>
        <time>2025-04-05T08:08:25Z</time>
      </trkpt>
      <trkpt lat="44.08981" lon="7.02414">
        <ele>1758</ele>
        <time>2025-04-05T08:08:29Z</time>
      </trkpt>
      <trkpt lat="44.08981" lon="7.02412">
        <ele>1760</ele>
        <time>2025-04-05T08:09:37Z</time>
      </trkpt>
      <trkpt lat="44.08982" lon="7.02407">
        <ele>1760</ele>
        <time>2025-04-05T08:09:53Z</time>
      </trkpt>
      <trkpt lat="44.08981" lon="7.02408">
        <ele>1757</ele>
        <time>2025-04-05T08:10:29Z</time>
      </trkpt>
      <trkpt lat="44.08978" lon="7.0241">
        <ele>1761</ele>
        <time>2025-04-05T08:10:47Z</time>
      </trkpt>
      <trkpt lat="44.08978" lon="7.02405">
        <ele>1760</ele>
        <time>2025-04-05T08:11:15Z</time>
      </trkpt>
      <trkpt lat="44.08982" lon="7.02407">
        <ele>1760</ele>
        <time>2025-04-05T08:11:23Z</time>
      </trkpt>
      <trkpt lat="44.08982" lon="7.02407">
        <ele>1761</ele>
        <time>2025-04-05T08:13:25Z</time>
      </trkpt>
      <trkpt lat="44.08981" lon="7.02407">
        <ele>1762</ele>
        <time>2025-04-05T08:13:43Z</time>
      </trkpt>
      <trkpt lat="44.0898" lon="7.02409">
        <ele>1762</ele>
        <time>2025-04-05T08:14:21Z</time>
      </trkpt>
      <trkpt lat="44.08977" lon="7.02406">
        <ele>1762</ele>
        <time>2025-04-05T08:14:35Z</time>
      </trkpt>
      <trkpt lat="44.08973" lon="7.02405">
        <ele>1765</ele>
        <time>2025-04-05T08:15:19Z</time>
      </trkpt>
      <trkpt lat="44.08971" lon="7.02408">
        <ele>1765</ele>
        <time>2025-04-05T08:15:25Z</time>
      </trkpt>
      <trkpt lat="44.08969" lon="7.02405">
        <ele>1763</ele>
        <time>2025-04-05T08:15:31Z</time>
      </trkpt>
      <trkpt lat="44.08965" lon="7.02403">
        <ele>1762</ele>
        <time>2025-04-05T08:15:39Z</time>
      </trkpt>
      <trkpt lat="44.08963" lon="7.024">
        <ele>1762</ele>
        <time>2025-04-05T08:15:43Z</time>
      </trkpt>
      <trkpt lat="44.08956" lon="7.02401">
        <ele>1760</ele>
        <time>2025-04-05T08:15:51Z</time>
      </trkpt>
      <trkpt lat="44.08949" lon="7.02395">
        <ele>1760</ele>
        <time>2025-04-05T08:15:59Z</time>
      </trkpt>
      <trkpt lat="44.08946" lon="7.02393">
        <ele>1760</ele>
        <time>2025-04-05T08:16:03Z</time>
      </trkpt>
      <trkpt lat="44.08942" lon="7.02391">
        <ele>1760</ele>
        <time>2025-04-05T08:16:09Z</time>
      </trkpt>
      <trkpt lat="44.08938" lon="7.0239">
        <ele>1760</ele>
        <time>2025-04-05T08:16:13Z</time>
      </trkpt>
      <trkpt lat="44.08933" lon="7.02382">
        <ele>1759</ele>
        <time>2025-04-05T08:16:21Z</time>
      </trkpt>
      <trkpt lat="44.08925" lon="7.0238">
        <ele>1759</ele>
        <time>2025-04-05T08:16:27Z</time>
      </trkpt>
      <trkpt lat="44.08921" lon="7.02378">
        <ele>1758</ele>
        <time>2025-04-05T08:16:31Z</time>
      </trkpt>
      <trkpt lat="44.08919" lon="7.02377">
        <ele>1760</ele>
        <time>2025-04-05T08:16:35Z</time>
      </trkpt>
      <trkpt lat="44.08906" lon="7.02376">
        <ele>1762</ele>
        <time>2025-04-05T08:16:47Z</time>
      </trkpt>
      <trkpt lat="44.08902" lon="7.02376">
        <ele>1762</ele>
        <time>2025-04-05T08:16:51Z</time>
      </trkpt>
      <trkpt lat="44.08898" lon="7.02376">
        <ele>1761</ele>
        <time>2025-04-05T08:16:55Z</time>
      </trkpt>
      <trkpt lat="44.08895" lon="7.02374">
        <ele>1761</ele>
        <time>2025-04-05T08:16:59Z</time>
      </trkpt>
      <trkpt lat="44.08893" lon="7.02373">
        <ele>1760</ele>
        <time>2025-04-05T08:17:03Z</time>
      </trkpt>
      <trkpt lat="44.08889" lon="7.02376">
        <ele>1759</ele>
        <time>2025-04-05T08:17:07Z</time>
      </trkpt>
      <trkpt lat="44.08886" lon="7.02376">
        <ele>1759</ele>
        <time>2025-04-05T08:17:09Z</time>
      </trkpt>
      <trkpt lat="44.08886" lon="7.02379">
        <ele>1762</ele>
        <time>2025-04-05T08:17:35Z</time>
      </trkpt>
      <trkpt lat="44.08888" lon="7.0238">
        <ele>1767</ele>
        <time>2025-04-05T08:18:15Z</time>
      </trkpt>
      <trkpt lat="44.08888" lon="7.02379">
        <ele>1765</ele>
        <time>2025-04-05T08:18:41Z</time>
      </trkpt>
      <trkpt lat="44.08886" lon="7.02374">
        <ele>1765</ele>
        <time>2025-04-05T08:18:47Z</time>
      </trkpt>
      <trkpt lat="44.08882" lon="7.02373">
        <ele>1763</ele>
        <time>2025-04-05T08:18:51Z</time>
      </trkpt>
      <trkpt lat="44.08883" lon="7.02366">
        <ele>1763</ele>
        <time>2025-04-05T08:18:59Z</time>
      </trkpt>
      <trkpt lat="44.08881" lon="7.02368">
        <ele>1766</ele>
        <time>2025-04-05T08:21:11Z</time>
      </trkpt>
      <trkpt lat="44.08876" lon="7.02368">
        <ele>1764</ele>
        <time>2025-04-05T08:21:15Z</time>
      </trkpt>
      <trkpt lat="44.08869" lon="7.02369">
        <ele>1761</ele>
        <time>2025-04-05T08:21:23Z</time>
      </trkpt>
      <trkpt lat="44.08865" lon="7.02371">
        <ele>1761</ele>
        <time>2025-04-05T08:21:27Z</time>
      </trkpt>
      <trkpt lat="44.08861" lon="7.02374">
        <ele>1760</ele>
        <time>2025-04-05T08:21:31Z</time>
      </trkpt>
      <trkpt lat="44.08854" lon="7.02373">
        <ele>1758</ele>
        <time>2025-04-05T08:21:39Z</time>
      </trkpt>
      <trkpt lat="44.0885" lon="7.02375">
        <ele>1756</ele>
        <time>2025-04-05T08:21:45Z</time>
      </trkpt>
      <trkpt lat="44.08847" lon="7.02374">
        <ele>1756</ele>
        <time>2025-04-05T08:21:49Z</time>
      </trkpt>
      <trkpt lat="44.08844" lon="7.02378">
        <ele>1758</ele>
        <time>2025-04-05T08:21:53Z</time>
      </trkpt>
      <trkpt lat="44.0884" lon="7.02382">
        <ele>1757</ele>
        <time>2025-04-05T08:21:59Z</time>
      </trkpt>
      <trkpt lat="44.08829" lon="7.02388">
        <ele>1757</ele>
        <time>2025-04-05T08:22:09Z</time>
      </trkpt>
      <trkpt lat="44.08823" lon="7.02396">
        <ele>1756</ele>
        <time>2025-04-05T08:22:17Z</time>
      </trkpt>
      <trkpt lat="44.08819" lon="7.02395">
        <ele>1755</ele>
        <time>2025-04-05T08:22:25Z</time>
      </trkpt>
      <trkpt lat="44.08817" lon="7.02399">
        <ele>1755</ele>
        <time>2025-04-05T08:22:31Z</time>
      </trkpt>
      <trkpt lat="44.08812" lon="7.02401">
        <ele>1755</ele>
        <time>2025-04-05T08:22:37Z</time>
      </trkpt>
      <trkpt lat="44.088" lon="7.02406">
        <ele>1752</ele>
        <time>2025-04-05T08:22:51Z</time>
      </trkpt>
      <trkpt lat="44.08797" lon="7.02409">
        <ele>1751</ele>
        <time>2025-04-05T08:22:53Z</time>
      </trkpt>
      <trkpt lat="44.08787" lon="7.0241">
        <ele>1751</ele>
        <time>2025-04-05T08:23:03Z</time>
      </trkpt>
      <trkpt lat="44.08782" lon="7.02408">
        <ele>1750</ele>
        <time>2025-04-05T08:23:07Z</time>
      </trkpt>
      <trkpt lat="44.08772" lon="7.02404">
        <ele>1750</ele>
        <time>2025-04-05T08:23:17Z</time>
      </trkpt>
      <trkpt lat="44.08769" lon="7.024">
        <ele>1751</ele>
        <time>2025-04-05T08:23:21Z</time>
      </trkpt>
      <trkpt lat="44.08766" lon="7.02398">
        <ele>1751</ele>
        <time>2025-04-05T08:23:25Z</time>
      </trkpt>
      <trkpt lat="44.08763" lon="7.02397">
        <ele>1751</ele>
        <time>2025-04-05T08:23:27Z</time>
      </trkpt>
      <trkpt lat="44.0876" lon="7.02393">
        <ele>1751</ele>
        <time>2025-04-05T08:23:31Z</time>
      </trkpt>
      <trkpt lat="44.08757" lon="7.02391">
        <ele>1750</ele>
        <time>2025-04-05T08:23:35Z</time>
      </trkpt>
      <trkpt lat="44.08755" lon="7.02387">
        <ele>1749</ele>
        <time>2025-04-05T08:23:39Z</time>
      </trkpt>
      <trkpt lat="44.08751" lon="7.02383">
        <ele>1749</ele>
        <time>2025-04-05T08:23:43Z</time>
      </trkpt>
      <trkpt lat="44.0875" lon="7.02379">
        <ele>1749</ele>
        <time>2025-04-05T08:23:57Z</time>
      </trkpt>
      <trkpt lat="44.08747" lon="7.02383">
        <ele>1747</ele>
        <time>2025-04-05T08:24:17Z</time>
      </trkpt>
      <trkpt lat="44.08745" lon="7.02376">
        <ele>1744</ele>
        <time>2025-04-05T08:24:33Z</time>
      </trkpt>
      <trkpt lat="44.08742" lon="7.02373">
        <ele>1741</ele>
        <time>2025-04-05T08:24:37Z</time>
      </trkpt>
      <trkpt lat="44.08739" lon="7.02371">
        <ele>1741</ele>
        <time>2025-04-05T08:24:41Z</time>
      </trkpt>
      <trkpt lat="44.08735" lon="7.02373">
        <ele>1741</ele>
        <time>2025-04-05T08:24:45Z</time>
      </trkpt>
      <trkpt lat="44.08732" lon="7.02373">
        <ele>1743</ele>
        <time>2025-04-05T08:24:49Z</time>
      </trkpt>
      <trkpt lat="44.08725" lon="7.02373">
        <ele>1746</ele>
        <time>2025-04-05T08:24:59Z</time>
      </trkpt>
      <trkpt lat="44.0872" lon="7.02374">
        <ele>1746</ele>
        <time>2025-04-05T08:25:03Z</time>
      </trkpt>
      <trkpt lat="44.08708" lon="7.02369">
        <ele>1744</ele>
        <time>2025-04-05T08:25:15Z</time>
      </trkpt>
      <trkpt lat="44.08705" lon="7.02365">
        <ele>1744</ele>
        <time>2025-04-05T08:25:19Z</time>
      </trkpt>
      <trkpt lat="44.08702" lon="7.02364">
        <ele>1744</ele>
        <time>2025-04-05T08:25:23Z</time>
      </trkpt>
      <trkpt lat="44.08701" lon="7.0236">
        <ele>1743</ele>
        <time>2025-04-05T08:25:27Z</time>
      </trkpt>
      <trkpt lat="44.08699" lon="7.02361">
        <ele>1745</ele>
        <time>2025-04-05T08:25:57Z</time>
      </trkpt>
      <trkpt lat="44.08698" lon="7.02363">
        <ele>1744</ele>
        <time>2025-04-05T08:27:05Z</time>
      </trkpt>
      <trkpt lat="44.08696" lon="7.0236">
        <ele>1744</ele>
        <time>2025-04-05T08:27:21Z</time>
      </trkpt>
      <trkpt lat="44.08692" lon="7.0236">
        <ele>1745</ele>
        <time>2025-04-05T08:27:27Z</time>
      </trkpt>
      <trkpt lat="44.08688" lon="7.0236">
        <ele>1743</ele>
        <time>2025-04-05T08:27:51Z</time>
      </trkpt>
      <trkpt lat="44.08663" lon="7.02352">
        <ele>1743</ele>
        <time>2025-04-05T08:28:17Z</time>
      </trkpt>
      <trkpt lat="44.0866" lon="7.02349">
        <ele>1742</ele>
        <time>2025-04-05T08:28:23Z</time>
      </trkpt>
      <trkpt lat="44.0864" lon="7.02337">
        <ele>1738</ele>
        <time>2025-04-05T08:28:43Z</time>
      </trkpt>
      <trkpt lat="44.08637" lon="7.02337">
        <ele>1738</ele>
        <time>2025-04-05T08:28:47Z</time>
      </trkpt>
      <trkpt lat="44.08634" lon="7.02335">
        <ele>1738</ele>
        <time>2025-04-05T08:28:51Z</time>
      </trkpt>
      <trkpt lat="44.0862" lon="7.02336">
        <ele>1736</ele>
        <time>2025-04-05T08:29:03Z</time>
      </trkpt>
      <trkpt lat="44.08617" lon="7.02336">
        <ele>1738</ele>
        <time>2025-04-05T08:30:19Z</time>
      </trkpt>
      <trkpt lat="44.08615" lon="7.02337">
        <ele>1737</ele>
        <time>2025-04-05T08:31:15Z</time>
      </trkpt>
      <trkpt lat="44.08615" lon="7.02333">
        <ele>1737</ele>
        <time>2025-04-05T08:31:25Z</time>
      </trkpt>
      <trkpt lat="44.08617" lon="7.0233">
        <ele>1736</ele>
        <time>2025-04-05T08:31:31Z</time>
      </trkpt>
      <trkpt lat="44.08616" lon="7.02328">
        <ele>1735</ele>
        <time>2025-04-05T08:31:57Z</time>
      </trkpt>
      <trkpt lat="44.08617" lon="7.02324">
        <ele>1735</ele>
        <time>2025-04-05T08:31:59Z</time>
      </trkpt>
      <trkpt lat="44.08613" lon="7.02322">
        <ele>1734</ele>
        <time>2025-04-05T08:32:05Z</time>
      </trkpt>
      <trkpt lat="44.0861" lon="7.0232">
        <ele>1734</ele>
        <time>2025-04-05T08:32:11Z</time>
      </trkpt>
      <trkpt lat="44.08607" lon="7.02316">
        <ele>1733</ele>
        <time>2025-04-05T08:32:15Z</time>
      </trkpt>
      <trkpt lat="44.086" lon="7.02321">
        <ele>1731</ele>
        <time>2025-04-05T08:32:23Z</time>
      </trkpt>
      <trkpt lat="44.08597" lon="7.02321">
        <ele>1729</ele>
        <time>2025-04-05T08:32:29Z</time>
      </trkpt>
      <trkpt lat="44.08597" lon="7.02325">
        <ele>1730</ele>
        <time>2025-04-05T08:32:35Z</time>
      </trkpt>
      <trkpt lat="44.08594" lon="7.02328">
        <ele>1729</ele>
        <time>2025-04-05T08:32:39Z</time>
      </trkpt>
      <trkpt lat="44.0859" lon="7.0233">
        <ele>1727</ele>
        <time>2025-04-05T08:32:45Z</time>
      </trkpt>
      <trkpt lat="44.08587" lon="7.02331">
        <ele>1727</ele>
        <time>2025-04-05T08:32:49Z</time>
      </trkpt>
      <trkpt lat="44.08583" lon="7.02332">
        <ele>1727</ele>
        <time>2025-04-05T08:32:53Z</time>
      </trkpt>
      <trkpt lat="44.08576" lon="7.02329">
        <ele>1727</ele>
        <time>2025-04-05T08:33:03Z</time>
      </trkpt>
      <trkpt lat="44.08568" lon="7.02333">
        <ele>1726</ele>
        <time>2025-04-05T08:33:11Z</time>
      </trkpt>
      <trkpt lat="44.08564" lon="7.02333">
        <ele>1725</ele>
        <time>2025-04-05T08:33:17Z</time>
      </trkpt>
      <trkpt lat="44.08556" lon="7.02332">
        <ele>1724</ele>
        <time>2025-04-05T08:33:27Z</time>
      </trkpt>
      <trkpt lat="44.08551" lon="7.02334">
        <ele>1723</ele>
        <time>2025-04-05T08:33:31Z</time>
      </trkpt>
      <trkpt lat="44.08547" lon="7.02333">
        <ele>1723</ele>
        <time>2025-04-05T08:33:37Z</time>
      </trkpt>
      <trkpt lat="44.08544" lon="7.02331">
        <ele>1723</ele>
        <time>2025-04-05T08:33:45Z</time>
      </trkpt>
      <trkpt lat="44.08541" lon="7.02338">
        <ele>1722</ele>
        <time>2025-04-05T08:33:51Z</time>
      </trkpt>
      <trkpt lat="44.08542" lon="7.02346">
        <ele>1722</ele>
        <time>2025-04-05T08:33:55Z</time>
      </trkpt>
      <trkpt lat="44.08541" lon="7.02351">
        <ele>1720</ele>
        <time>2025-04-05T08:33:59Z</time>
      </trkpt>
      <trkpt lat="44.08537" lon="7.02357">
        <ele>1718</ele>
        <time>2025-04-05T08:34:05Z</time>
      </trkpt>
      <trkpt lat="44.08534" lon="7.02362">
        <ele>1717</ele>
        <time>2025-04-05T08:34:09Z</time>
      </trkpt>
      <trkpt lat="44.08534" lon="7.0237">
        <ele>1717</ele>
        <time>2025-04-05T08:34:15Z</time>
      </trkpt>
      <trkpt lat="44.08538" lon="7.02373">
        <ele>1718</ele>
        <time>2025-04-05T08:34:19Z</time>
      </trkpt>
      <trkpt lat="44.08541" lon="7.02379">
        <ele>1719</ele>
        <time>2025-04-05T08:34:23Z</time>
      </trkpt>
      <trkpt lat="44.08542" lon="7.02384">
        <ele>1721</ele>
        <time>2025-04-05T08:34:27Z</time>
      </trkpt>
      <trkpt lat="44.08542" lon="7.0239">
        <ele>1721</ele>
        <time>2025-04-05T08:34:31Z</time>
      </trkpt>
      <trkpt lat="44.08539" lon="7.02393">
        <ele>1721</ele>
        <time>2025-04-05T08:34:37Z</time>
      </trkpt>
      <trkpt lat="44.08535" lon="7.02394">
        <ele>1720</ele>
        <time>2025-04-05T08:34:41Z</time>
      </trkpt>
      <trkpt lat="44.08535" lon="7.02389">
        <ele>1719</ele>
        <time>2025-04-05T08:34:51Z</time>
      </trkpt>
      <trkpt lat="44.0853" lon="7.02387">
        <ele>1720</ele>
        <time>2025-04-05T08:34:57Z</time>
      </trkpt>
      <trkpt lat="44.08526" lon="7.02386">
        <ele>1719</ele>
        <time>2025-04-05T08:35:01Z</time>
      </trkpt>
      <trkpt lat="44.08522" lon="7.02387">
        <ele>1718</ele>
        <time>2025-04-05T08:35:05Z</time>
      </trkpt>
      <trkpt lat="44.08513" lon="7.0237">
        <ele>1713</ele>
        <time>2025-04-05T08:35:19Z</time>
      </trkpt>
      <trkpt lat="44.0851" lon="7.02367">
        <ele>1713</ele>
        <time>2025-04-05T08:35:23Z</time>
      </trkpt>
      <trkpt lat="44.08509" lon="7.02362">
        <ele>1713</ele>
        <time>2025-04-05T08:35:27Z</time>
      </trkpt>
      <trkpt lat="44.08506" lon="7.02357">
        <ele>1714</ele>
        <time>2025-04-05T08:35:31Z</time>
      </trkpt>
      <trkpt lat="44.08502" lon="7.02357">
        <ele>1716</ele>
        <time>2025-04-05T08:35:37Z</time>
      </trkpt>
      <trkpt lat="44.08503" lon="7.02357">
        <ele>1718</ele>
        <time>2025-04-05T08:37:29Z</time>
      </trkpt>
      <trkpt lat="44.08499" lon="7.02356">
        <ele>1718</ele>
        <time>2025-04-05T08:37:45Z</time>
      </trkpt>
      <trkpt lat="44.08495" lon="7.02359">
        <ele>1718</ele>
        <time>2025-04-05T08:37:49Z</time>
      </trkpt>
      <trkpt lat="44.08492" lon="7.02355">
        <ele>1718</ele>
        <time>2025-04-05T08:37:53Z</time>
      </trkpt>
      <trkpt lat="44.08488" lon="7.02354">
        <ele>1718</ele>
        <time>2025-04-05T08:37:59Z</time>
      </trkpt>
      <trkpt lat="44.08485" lon="7.02355">
        <ele>1720</ele>
        <time>2025-04-05T08:38:05Z</time>
      </trkpt>
      <trkpt lat="44.08481" lon="7.02351">
        <ele>1721</ele>
        <time>2025-04-05T08:38:11Z</time>
      </trkpt>
      <trkpt lat="44.08477" lon="7.02351">
        <ele>1722</ele>
        <time>2025-04-05T08:38:15Z</time>
      </trkpt>
      <trkpt lat="44.08475" lon="7.02349">
        <ele>1724</ele>
        <time>2025-04-05T08:38:19Z</time>
      </trkpt>
      <trkpt lat="44.08469" lon="7.02347">
        <ele>1725</ele>
        <time>2025-04-05T08:38:33Z</time>
      </trkpt>
      <trkpt lat="44.08465" lon="7.0235">
        <ele>1725</ele>
        <time>2025-04-05T08:38:35Z</time>
      </trkpt>
      <trkpt lat="44.08462" lon="7.02351">
        <ele>1725</ele>
        <time>2025-04-05T08:38:39Z</time>
      </trkpt>
      <trkpt lat="44.08461" lon="7.02348">
        <ele>1725</ele>
        <time>2025-04-05T08:38:49Z</time>
      </trkpt>
      <trkpt lat="44.08453" lon="7.02347">
        <ele>1724</ele>
        <time>2025-04-05T08:39:07Z</time>
      </trkpt>
      <trkpt lat="44.08448" lon="7.02348">
        <ele>1724</ele>
        <time>2025-04-05T08:39:13Z</time>
      </trkpt>
      <trkpt lat="44.08444" lon="7.02348">
        <ele>1727</ele>
        <time>2025-04-05T08:39:21Z</time>
      </trkpt>
      <trkpt lat="44.08441" lon="7.02351">
        <ele>1728</ele>
        <time>2025-04-05T08:39:25Z</time>
      </trkpt>
      <trkpt lat="44.08441" lon="7.02346">
        <ele>1728</ele>
        <time>2025-04-05T08:39:29Z</time>
      </trkpt>
      <trkpt lat="44.08439" lon="7.02342">
        <ele>1728</ele>
        <time>2025-04-05T08:39:35Z</time>
      </trkpt>
      <trkpt lat="44.08436" lon="7.02347">
        <ele>1730</ele>
        <time>2025-04-05T08:40:19Z</time>
      </trkpt>
      <trkpt lat="44.08431" lon="7.02336">
        <ele>1732</ele>
        <time>2025-04-05T08:40:41Z</time>
      </trkpt>
      <trkpt lat="44.08427" lon="7.02333">
        <ele>1731</ele>
        <time>2025-04-05T08:40:45Z</time>
      </trkpt>
      <trkpt lat="44.08422" lon="7.02332">
        <ele>1731</ele>
        <time>2025-04-05T08:40:49Z</time>
      </trkpt>
      <trkpt lat="44.08422" lon="7.02328">
        <ele>1732</ele>
        <time>2025-04-05T08:40:57Z</time>
      </trkpt>
      <trkpt lat="44.08419" lon="7.02327">
        <ele>1734</ele>
        <time>2025-04-05T08:41:15Z</time>
      </trkpt>
      <trkpt lat="44.08412" lon="7.02326">
        <ele>1733</ele>
        <time>2025-04-05T08:41:21Z</time>
      </trkpt>
      <trkpt lat="44.08407" lon="7.02329">
        <ele>1732</ele>
        <time>2025-04-05T08:41:25Z</time>
      </trkpt>
      <trkpt lat="44.08403" lon="7.02329">
        <ele>1732</ele>
        <time>2025-04-05T08:41:29Z</time>
      </trkpt>
      <trkpt lat="44.08396" lon="7.02325">
        <ele>1731</ele>
        <time>2025-04-05T08:41:39Z</time>
      </trkpt>
      <trkpt lat="44.08393" lon="7.02326">
        <ele>1732</ele>
        <time>2025-04-05T08:41:47Z</time>
      </trkpt>
      <trkpt lat="44.08386" lon="7.02324">
        <ele>1732</ele>
        <time>2025-04-05T08:41:55Z</time>
      </trkpt>
      <trkpt lat="44.08376" lon="7.0232">
        <ele>1731</ele>
        <time>2025-04-05T08:42:05Z</time>
      </trkpt>
      <trkpt lat="44.08373" lon="7.02319">
        <ele>1732</ele>
        <time>2025-04-05T08:42:09Z</time>
      </trkpt>
      <trkpt lat="44.0837" lon="7.02317">
        <ele>1732</ele>
        <time>2025-04-05T08:42:13Z</time>
      </trkpt>
      <trkpt lat="44.08363" lon="7.02315">
        <ele>1732</ele>
        <time>2025-04-05T08:42:21Z</time>
      </trkpt>
      <trkpt lat="44.08358" lon="7.02316">
        <ele>1731</ele>
        <time>2025-04-05T08:42:37Z</time>
      </trkpt>
      <trkpt lat="44.08354" lon="7.02316">
        <ele>1732</ele>
        <time>2025-04-05T08:42:41Z</time>
      </trkpt>
      <trkpt lat="44.08351" lon="7.02314">
        <ele>1732</ele>
        <time>2025-04-05T08:42:51Z</time>
      </trkpt>
      <trkpt lat="44.08343" lon="7.02314">
        <ele>1734</ele>
        <time>2025-04-05T08:42:57Z</time>
      </trkpt>
      <trkpt lat="44.08341" lon="7.02308">
        <ele>1734</ele>
        <time>2025-04-05T08:43:09Z</time>
      </trkpt>
      <trkpt lat="44.08341" lon="7.02304">
        <ele>1734</ele>
        <time>2025-04-05T08:43:11Z</time>
      </trkpt>
      <trkpt lat="44.08338" lon="7.02304">
        <ele>1734</ele>
        <time>2025-04-05T08:43:17Z</time>
      </trkpt>
      <trkpt lat="44.08337" lon="7.02299">
        <ele>1735</ele>
        <time>2025-04-05T08:43:25Z</time>
      </trkpt>
      <trkpt lat="44.08335" lon="7.02298">
        <ele>1736</ele>
        <time>2025-04-05T08:43:51Z</time>
      </trkpt>
      <trkpt lat="44.08329" lon="7.02308">
        <ele>1735</ele>
        <time>2025-04-05T08:44:03Z</time>
      </trkpt>
      <trkpt lat="44.08326" lon="7.02312">
        <ele>1736</ele>
        <time>2025-04-05T08:44:19Z</time>
      </trkpt>
      <trkpt lat="44.08321" lon="7.02313">
        <ele>1736</ele>
        <time>2025-04-05T08:45:07Z</time>
      </trkpt>
      <trkpt lat="44.08312" lon="7.02313">
        <ele>1735</ele>
        <time>2025-04-05T08:45:17Z</time>
      </trkpt>
      <trkpt lat="44.08304" lon="7.02308">
        <ele>1732</ele>
        <time>2025-04-05T08:45:25Z</time>
      </trkpt>
      <trkpt lat="44.08297" lon="7.02309">
        <ele>1730</ele>
        <time>2025-04-05T08:45:33Z</time>
      </trkpt>
      <trkpt lat="44.08292" lon="7.02312">
        <ele>1730</ele>
        <time>2025-04-05T08:45:37Z</time>
      </trkpt>
      <trkpt lat="44.08288" lon="7.02313">
        <ele>1730</ele>
        <time>2025-04-05T08:45:41Z</time>
      </trkpt>
      <trkpt lat="44.08277" lon="7.0231">
        <ele>1730</ele>
        <time>2025-04-05T08:45:57Z</time>
      </trkpt>
      <trkpt lat="44.08274" lon="7.02311">
        <ele>1730</ele>
        <time>2025-04-05T08:46:05Z</time>
      </trkpt>
      <trkpt lat="44.08271" lon="7.02314">
        <ele>1729</ele>
        <time>2025-04-05T08:46:31Z</time>
      </trkpt>
      <trkpt lat="44.08271" lon="7.0231">
        <ele>1727</ele>
        <time>2025-04-05T08:46:39Z</time>
      </trkpt>
      <trkpt lat="44.08268" lon="7.02308">
        <ele>1725</ele>
        <time>2025-04-05T08:46:51Z</time>
      </trkpt>
      <trkpt lat="44.08265" lon="7.02309">
        <ele>1725</ele>
        <time>2025-04-05T08:47:03Z</time>
      </trkpt>
      <trkpt lat="44.0826" lon="7.0231">
        <ele>1725</ele>
        <time>2025-04-05T08:47:07Z</time>
      </trkpt>
      <trkpt lat="44.08255" lon="7.02309">
        <ele>1725</ele>
        <time>2025-04-05T08:47:15Z</time>
      </trkpt>
      <trkpt lat="44.0825" lon="7.02309">
        <ele>1725</ele>
        <time>2025-04-05T08:47:23Z</time>
      </trkpt>
      <trkpt lat="44.08239" lon="7.02305">
        <ele>1723</ele>
        <time>2025-04-05T08:47:39Z</time>
      </trkpt>
      <trkpt lat="44.08237" lon="7.023">
        <ele>1721</ele>
        <time>2025-04-05T08:47:43Z</time>
      </trkpt>
      <trkpt lat="44.08231" lon="7.02294">
        <ele>1719</ele>
        <time>2025-04-05T08:47:53Z</time>
      </trkpt>
      <trkpt lat="44.08226" lon="7.02294">
        <ele>1719</ele>
        <time>2025-04-05T08:47:57Z</time>
      </trkpt>
      <trkpt lat="44.08223" lon="7.02293">
        <ele>1718</ele>
        <time>2025-04-05T08:48:01Z</time>
      </trkpt>
      <trkpt lat="44.08219" lon="7.02291">
        <ele>1717</ele>
        <time>2025-04-05T08:48:05Z</time>
      </trkpt>
      <trkpt lat="44.08215" lon="7.02289">
        <ele>1717</ele>
        <time>2025-04-05T08:48:09Z</time>
      </trkpt>
      <trkpt lat="44.08212" lon="7.02289">
        <ele>1716</ele>
        <time>2025-04-05T08:48:13Z</time>
      </trkpt>
      <trkpt lat="44.0821" lon="7.02286">
        <ele>1715</ele>
        <time>2025-04-05T08:48:17Z</time>
      </trkpt>
      <trkpt lat="44.08205" lon="7.02283">
        <ele>1715</ele>
        <time>2025-04-05T08:48:35Z</time>
      </trkpt>
      <trkpt lat="44.08202" lon="7.02281">
        <ele>1715</ele>
        <time>2025-04-05T08:48:41Z</time>
      </trkpt>
      <trkpt lat="44.08177" lon="7.02275">
        <ele>1708</ele>
        <time>2025-04-05T08:49:13Z</time>
      </trkpt>
      <trkpt lat="44.08174" lon="7.02273">
        <ele>1706</ele>
        <time>2025-04-05T08:49:17Z</time>
      </trkpt>
      <trkpt lat="44.08171" lon="7.02269">
        <ele>1705</ele>
        <time>2025-04-05T08:49:21Z</time>
      </trkpt>
      <trkpt lat="44.08166" lon="7.02266">
        <ele>1704</ele>
        <time>2025-04-05T08:49:31Z</time>
      </trkpt>
      <trkpt lat="44.08163" lon="7.02264">
        <ele>1702</ele>
        <time>2025-04-05T08:49:35Z</time>
      </trkpt>
      <trkpt lat="44.08151" lon="7.02263">
        <ele>1701</ele>
        <time>2025-04-05T08:49:49Z</time>
      </trkpt>
      <trkpt lat="44.08141" lon="7.0227">
        <ele>1700</ele>
        <time>2025-04-05T08:49:59Z</time>
      </trkpt>
      <trkpt lat="44.08137" lon="7.0227">
        <ele>1699</ele>
        <time>2025-04-05T08:50:03Z</time>
      </trkpt>
      <trkpt lat="44.0813" lon="7.02271">
        <ele>1699</ele>
        <time>2025-04-05T08:50:11Z</time>
      </trkpt>
      <trkpt lat="44.08128" lon="7.02275">
        <ele>1698</ele>
        <time>2025-04-05T08:50:17Z</time>
      </trkpt>
      <trkpt lat="44.08125" lon="7.02277">
        <ele>1696</ele>
        <time>2025-04-05T08:50:21Z</time>
      </trkpt>
      <trkpt lat="44.08119" lon="7.02281">
        <ele>1694</ele>
        <time>2025-04-05T08:50:27Z</time>
      </trkpt>
      <trkpt lat="44.08116" lon="7.02282">
        <ele>1694</ele>
        <time>2025-04-05T08:50:29Z</time>
      </trkpt>
      <trkpt lat="44.08114" lon="7.02284">
        <ele>1694</ele>
        <time>2025-04-05T08:50:31Z</time>
      </trkpt>
      <trkpt lat="44.0811" lon="7.02286">
        <ele>1694</ele>
        <time>2025-04-05T08:50:35Z</time>
      </trkpt>
      <trkpt lat="44.08107" lon="7.02286">
        <ele>1693</ele>
        <time>2025-04-05T08:50:39Z</time>
      </trkpt>
      <trkpt lat="44.08104" lon="7.02286">
        <ele>1693</ele>
        <time>2025-04-05T08:50:43Z</time>
      </trkpt>
      <trkpt lat="44.081" lon="7.02289">
        <ele>1693</ele>
        <time>2025-04-05T08:50:47Z</time>
      </trkpt>
      <trkpt lat="44.08095" lon="7.02297">
        <ele>1693</ele>
        <time>2025-04-05T08:50:55Z</time>
      </trkpt>
      <trkpt lat="44.08093" lon="7.023">
        <ele>1694</ele>
        <time>2025-04-05T08:51:01Z</time>
      </trkpt>
      <trkpt lat="44.08094" lon="7.02304">
        <ele>1696</ele>
        <time>2025-04-05T08:51:41Z</time>
      </trkpt>
      <trkpt lat="44.08094" lon="7.02302">
        <ele>1701</ele>
        <time>2025-04-05T08:52:21Z</time>
      </trkpt>
      <trkpt lat="44.08094" lon="7.02301">
        <ele>1698</ele>
        <time>2025-04-05T08:54:33Z</time>
      </trkpt>
      <trkpt lat="44.08094" lon="7.023">
        <ele>1698</ele>
        <time>2025-04-05T08:55:19Z</time>
      </trkpt>
      <trkpt lat="44.08087" lon="7.02306">
        <ele>1699</ele>
        <time>2025-04-05T08:55:35Z</time>
      </trkpt>
      <trkpt lat="44.08084" lon="7.02305">
        <ele>1698</ele>
        <time>2025-04-05T08:55:41Z</time>
      </trkpt>
      <trkpt lat="44.08082" lon="7.02301">
        <ele>1699</ele>
        <time>2025-04-05T08:55:47Z</time>
      </trkpt>
      <trkpt lat="44.08079" lon="7.02301">
        <ele>1699</ele>
        <time>2025-04-05T08:55:51Z</time>
      </trkpt>
      <trkpt lat="44.08078" lon="7.02298">
        <ele>1700</ele>
        <time>2025-04-05T08:59:07Z</time>
      </trkpt>
      <trkpt lat="44.0808" lon="7.02294">
        <ele>1700</ele>
        <time>2025-04-05T08:59:37Z</time>
      </trkpt>
      <trkpt lat="44.08077" lon="7.02295">
        <ele>1700</ele>
        <time>2025-04-05T09:00:07Z</time>
      </trkpt>
      <trkpt lat="44.08081" lon="7.02301">
        <ele>1700</ele>
        <time>2025-04-05T09:00:23Z</time>
      </trkpt>
      <trkpt lat="44.08079" lon="7.02292">
        <ele>1700</ele>
        <time>2025-04-05T09:01:01Z</time>
      </trkpt>
      <trkpt lat="44.08075" lon="7.02295">
        <ele>1700</ele>
        <time>2025-04-05T09:01:25Z</time>
      </trkpt>
      <trkpt lat="44.08071" lon="7.02295">
        <ele>1699</ele>
        <time>2025-04-05T09:01:51Z</time>
      </trkpt>
      <trkpt lat="44.08068" lon="7.02294">
        <ele>1699</ele>
        <time>2025-04-05T09:01:55Z</time>
      </trkpt>
      <trkpt lat="44.08061" lon="7.02292">
        <ele>1700</ele>
        <time>2025-04-05T09:02:05Z</time>
      </trkpt>
      <trkpt lat="44.08057" lon="7.02293">
        <ele>1699</ele>
        <time>2025-04-05T09:02:09Z</time>
      </trkpt>
      <trkpt lat="44.08055" lon="7.0229">
        <ele>1698</ele>
        <time>2025-04-05T09:02:13Z</time>
      </trkpt>
      <trkpt lat="44.08051" lon="7.02291">
        <ele>1700</ele>
        <time>2025-04-05T09:02:19Z</time>
      </trkpt>
      <trkpt lat="44.08048" lon="7.02288">
        <ele>1702</ele>
        <time>2025-04-05T09:02:31Z</time>
      </trkpt>
      <trkpt lat="44.08046" lon="7.02286">
        <ele>1702</ele>
        <time>2025-04-05T09:02:35Z</time>
      </trkpt>
      <trkpt lat="44.08043" lon="7.02283">
        <ele>1703</ele>
        <time>2025-04-05T09:02:39Z</time>
      </trkpt>
      <trkpt lat="44.08031" lon="7.02272">
        <ele>1705</ele>
        <time>2025-04-05T09:02:57Z</time>
      </trkpt>
      <trkpt lat="44.08028" lon="7.02273">
        <ele>1705</ele>
        <time>2025-04-05T09:03:01Z</time>
      </trkpt>
      <trkpt lat="44.08027" lon="7.02269">
        <ele>1710</ele>
        <time>2025-04-05T09:03:19Z</time>
      </trkpt>
      <trkpt lat="44.08024" lon="7.02267">
        <ele>1710</ele>
        <time>2025-04-05T09:03:23Z</time>
      </trkpt>
      <trkpt lat="44.08017" lon="7.02263">
        <ele>1713</ele>
        <time>2025-04-05T09:03:33Z</time>
      </trkpt>
      <trkpt lat="44.08013" lon="7.02264">
        <ele>1713</ele>
        <time>2025-04-05T09:03:37Z</time>
      </trkpt>
      <trkpt lat="44.08009" lon="7.02262">
        <ele>1714</ele>
        <time>2025-04-05T09:03:41Z</time>
      </trkpt>
      <trkpt lat="44.08008" lon="7.02256">
        <ele>1714</ele>
        <time>2025-04-05T09:03:45Z</time>
      </trkpt>
      <trkpt lat="44.08006" lon="7.02253">
        <ele>1716</ele>
        <time>2025-04-05T09:03:53Z</time>
      </trkpt>
      <trkpt lat="44.08003" lon="7.02251">
        <ele>1717</ele>
        <time>2025-04-05T09:03:57Z</time>
      </trkpt>
      <trkpt lat="44.08001" lon="7.02245">
        <ele>1717</ele>
        <time>2025-04-05T09:04:01Z</time>
      </trkpt>
      <trkpt lat="44.07998" lon="7.02242">
        <ele>1717</ele>
        <time>2025-04-05T09:04:07Z</time>
      </trkpt>
      <trkpt lat="44.07998" lon="7.02238">
        <ele>1715</ele>
        <time>2025-04-05T09:04:13Z</time>
      </trkpt>
      <trkpt lat="44.08002" lon="7.02233">
        <ele>1714</ele>
        <time>2025-04-05T09:04:19Z</time>
      </trkpt>
      <trkpt lat="44.08002" lon="7.02227">
        <ele>1713</ele>
        <time>2025-04-05T09:04:25Z</time>
      </trkpt>
      <trkpt lat="44.07998" lon="7.02226">
        <ele>1712</ele>
        <time>2025-04-05T09:04:31Z</time>
      </trkpt>
      <trkpt lat="44.07993" lon="7.02225">
        <ele>1712</ele>
        <time>2025-04-05T09:04:37Z</time>
      </trkpt>
      <trkpt lat="44.07989" lon="7.02223">
        <ele>1712</ele>
        <time>2025-04-05T09:04:41Z</time>
      </trkpt>
      <trkpt lat="44.07986" lon="7.02222">
        <ele>1713</ele>
        <time>2025-04-05T09:04:45Z</time>
      </trkpt>
      <trkpt lat="44.07984" lon="7.02218">
        <ele>1715</ele>
        <time>2025-04-05T09:05:19Z</time>
      </trkpt>
      <trkpt lat="44.0798" lon="7.02217">
        <ele>1714</ele>
        <time>2025-04-05T09:05:25Z</time>
      </trkpt>
      <trkpt lat="44.07977" lon="7.02215">
        <ele>1715</ele>
        <time>2025-04-05T09:05:31Z</time>
      </trkpt>
      <trkpt lat="44.07974" lon="7.02212">
        <ele>1718</ele>
        <time>2025-04-05T09:05:37Z</time>
      </trkpt>
      <trkpt lat="44.07975" lon="7.02203">
        <ele>1720</ele>
        <time>2025-04-05T09:05:49Z</time>
      </trkpt>
      <trkpt lat="44.07971" lon="7.02202">
        <ele>1717</ele>
        <time>2025-04-05T09:06:09Z</time>
      </trkpt>
      <trkpt lat="44.07967" lon="7.022">
        <ele>1717</ele>
        <time>2025-04-05T09:06:15Z</time>
      </trkpt>
      <trkpt lat="44.07963" lon="7.02197">
        <ele>1717</ele>
        <time>2025-04-05T09:06:21Z</time>
      </trkpt>
      <trkpt lat="44.07961" lon="7.02191">
        <ele>1717</ele>
        <time>2025-04-05T09:06:27Z</time>
      </trkpt>
      <trkpt lat="44.07956" lon="7.02189">
        <ele>1718</ele>
        <time>2025-04-05T09:06:39Z</time>
      </trkpt>
      <trkpt lat="44.07954" lon="7.02185">
        <ele>1719</ele>
        <time>2025-04-05T09:06:43Z</time>
      </trkpt>
      <trkpt lat="44.07951" lon="7.02183">
        <ele>1719</ele>
        <time>2025-04-05T09:06:49Z</time>
      </trkpt>
      <trkpt lat="44.0795" lon="7.02179">
        <ele>1719</ele>
        <time>2025-04-05T09:06:57Z</time>
      </trkpt>
      <trkpt lat="44.07946" lon="7.02178">
        <ele>1719</ele>
        <time>2025-04-05T09:07:03Z</time>
      </trkpt>
      <trkpt lat="44.07943" lon="7.02178">
        <ele>1723</ele>
        <time>2025-04-05T09:07:09Z</time>
      </trkpt>
      <trkpt lat="44.07938" lon="7.02177">
        <ele>1725</ele>
        <time>2025-04-05T09:07:17Z</time>
      </trkpt>
      <trkpt lat="44.07935" lon="7.02175">
        <ele>1726</ele>
        <time>2025-04-05T09:07:23Z</time>
      </trkpt>
      <trkpt lat="44.07934" lon="7.02171">
        <ele>1725</ele>
        <time>2025-04-05T09:07:27Z</time>
      </trkpt>
      <trkpt lat="44.07929" lon="7.02167">
        <ele>1726</ele>
        <time>2025-04-05T09:07:35Z</time>
      </trkpt>
      <trkpt lat="44.07925" lon="7.02165">
        <ele>1729</ele>
        <time>2025-04-05T09:07:41Z</time>
      </trkpt>
      <trkpt lat="44.07921" lon="7.02163">
        <ele>1730</ele>
        <time>2025-04-05T09:07:47Z</time>
      </trkpt>
      <trkpt lat="44.0791" lon="7.02155">
        <ele>1733</ele>
        <time>2025-04-05T09:08:11Z</time>
      </trkpt>
      <trkpt lat="44.07905" lon="7.02143">
        <ele>1732</ele>
        <time>2025-04-05T09:08:27Z</time>
      </trkpt>
      <trkpt lat="44.07896" lon="7.02133">
        <ele>1731</ele>
        <time>2025-04-05T09:08:39Z</time>
      </trkpt>
      <trkpt lat="44.07895" lon="7.02126">
        <ele>1734</ele>
        <time>2025-04-05T09:08:57Z</time>
      </trkpt>
      <trkpt lat="44.0789" lon="7.02122">
        <ele>1734</ele>
        <time>2025-04-05T09:09:01Z</time>
      </trkpt>
      <trkpt lat="44.07885" lon="7.02123">
        <ele>1738</ele>
        <time>2025-04-05T09:09:17Z</time>
      </trkpt>
      <trkpt lat="44.0788" lon="7.02121">
        <ele>1737</ele>
        <time>2025-04-05T09:09:25Z</time>
      </trkpt>
      <trkpt lat="44.07876" lon="7.02119">
        <ele>1740</ele>
        <time>2025-04-05T09:09:33Z</time>
      </trkpt>
      <trkpt lat="44.07873" lon="7.02114">
        <ele>1742</ele>
        <time>2025-04-05T09:09:41Z</time>
      </trkpt>
      <trkpt lat="44.07871" lon="7.02111">
        <ele>1748</ele>
        <time>2025-04-05T09:09:49Z</time>
      </trkpt>
      <trkpt lat="44.07868" lon="7.02109">
        <ele>1748</ele>
        <time>2025-04-05T09:09:53Z</time>
      </trkpt>
      <trkpt lat="44.07866" lon="7.02108">
        <ele>1749</ele>
        <time>2025-04-05T09:09:59Z</time>
      </trkpt>
      <trkpt lat="44.0786" lon="7.02104">
        <ele>1750</ele>
        <time>2025-04-05T09:10:07Z</time>
      </trkpt>
      <trkpt lat="44.0786" lon="7.02099">
        <ele>1751</ele>
        <time>2025-04-05T09:10:13Z</time>
      </trkpt>
      <trkpt lat="44.07855" lon="7.02096">
        <ele>1750</ele>
        <time>2025-04-05T09:10:19Z</time>
      </trkpt>
      <trkpt lat="44.07852" lon="7.02093">
        <ele>1748</ele>
        <time>2025-04-05T09:10:23Z</time>
      </trkpt>
      <trkpt lat="44.0785" lon="7.02091">
        <ele>1746</ele>
        <time>2025-04-05T09:10:27Z</time>
      </trkpt>
      <trkpt lat="44.07846" lon="7.02089">
        <ele>1745</ele>
        <time>2025-04-05T09:10:31Z</time>
      </trkpt>
      <trkpt lat="44.07845" lon="7.02085">
        <ele>1745</ele>
        <time>2025-04-05T09:10:35Z</time>
      </trkpt>
      <trkpt lat="44.07838" lon="7.0208">
        <ele>1746</ele>
        <time>2025-04-05T09:10:43Z</time>
      </trkpt>
      <trkpt lat="44.07834" lon="7.02068">
        <ele>1747</ele>
        <time>2025-04-05T09:10:55Z</time>
      </trkpt>
      <trkpt lat="44.07821" lon="7.02065">
        <ele>1746</ele>
        <time>2025-04-05T09:11:21Z</time>
      </trkpt>
      <trkpt lat="44.07818" lon="7.02062">
        <ele>1746</ele>
        <time>2025-04-05T09:11:23Z</time>
      </trkpt>
      <trkpt lat="44.07815" lon="7.0206">
        <ele>1748</ele>
        <time>2025-04-05T09:11:27Z</time>
      </trkpt>
      <trkpt lat="44.0781" lon="7.02062">
        <ele>1746</ele>
        <time>2025-04-05T09:11:33Z</time>
      </trkpt>
      <trkpt lat="44.07806" lon="7.02059">
        <ele>1747</ele>
        <time>2025-04-05T09:11:43Z</time>
      </trkpt>
      <trkpt lat="44.07803" lon="7.02059">
        <ele>1749</ele>
        <time>2025-04-05T09:11:47Z</time>
      </trkpt>
      <trkpt lat="44.078" lon="7.02058">
        <ele>1751</ele>
        <time>2025-04-05T09:11:51Z</time>
      </trkpt>
      <trkpt lat="44.07796" lon="7.02052">
        <ele>1752</ele>
        <time>2025-04-05T09:12:01Z</time>
      </trkpt>
      <trkpt lat="44.07793" lon="7.02052">
        <ele>1752</ele>
        <time>2025-04-05T09:12:05Z</time>
      </trkpt>
      <trkpt lat="44.07777" lon="7.02052">
        <ele>1756</ele>
        <time>2025-04-05T09:12:33Z</time>
      </trkpt>
      <trkpt lat="44.07772" lon="7.02059">
        <ele>1753</ele>
        <time>2025-04-05T09:12:43Z</time>
      </trkpt>
      <trkpt lat="44.07772" lon="7.02049">
        <ele>1754</ele>
        <time>2025-04-05T09:12:47Z</time>
      </trkpt>
      <trkpt lat="44.07769" lon="7.02049">
        <ele>1754</ele>
        <time>2025-04-05T09:12:51Z</time>
      </trkpt>
      <trkpt lat="44.07765" lon="7.02048">
        <ele>1756</ele>
        <time>2025-04-05T09:13:07Z</time>
      </trkpt>
      <trkpt lat="44.07761" lon="7.02047">
        <ele>1756</ele>
        <time>2025-04-05T09:13:11Z</time>
      </trkpt>
      <trkpt lat="44.0776" lon="7.02043">
        <ele>1755</ele>
        <time>2025-04-05T09:13:21Z</time>
      </trkpt>
      <trkpt lat="44.07756" lon="7.02046">
        <ele>1753</ele>
        <time>2025-04-05T09:13:27Z</time>
      </trkpt>
      <trkpt lat="44.07755" lon="7.02044">
        <ele>1749</ele>
        <time>2025-04-05T09:13:53Z</time>
      </trkpt>
      <trkpt lat="44.07758" lon="7.02041">
        <ele>1749</ele>
        <time>2025-04-05T09:14:05Z</time>
      </trkpt>
      <trkpt lat="44.0776" lon="7.02044">
        <ele>1752</ele>
        <time>2025-04-05T09:14:19Z</time>
      </trkpt>
      <trkpt lat="44.0776" lon="7.02044">
        <ele>1754</ele>
        <time>2025-04-05T09:14:55Z</time>
      </trkpt>
      <trkpt lat="44.0776" lon="7.02048">
        <ele>1755</ele>
        <time>2025-04-05T09:15:47Z</time>
      </trkpt>
      <trkpt lat="44.0776" lon="7.02046">
        <ele>1756</ele>
        <time>2025-04-05T09:16:33Z</time>
      </trkpt>
      <trkpt lat="44.07759" lon="7.02041">
        <ele>1755</ele>
        <time>2025-04-05T09:17:09Z</time>
      </trkpt>
      <trkpt lat="44.07755" lon="7.02037">
        <ele>1757</ele>
        <time>2025-04-05T09:17:41Z</time>
      </trkpt>
      <trkpt lat="44.07757" lon="7.02047">
        <ele>1757</ele>
        <time>2025-04-05T09:17:55Z</time>
      </trkpt>
      <trkpt lat="44.07755" lon="7.02052">
        <ele>1759</ele>
        <time>2025-04-05T09:18:01Z</time>
      </trkpt>
      <trkpt lat="44.07751" lon="7.02055">
        <ele>1759</ele>
        <time>2025-04-05T09:18:07Z</time>
      </trkpt>
      <trkpt lat="44.0775" lon="7.0206">
        <ele>1759</ele>
        <time>2025-04-05T09:18:15Z</time>
      </trkpt>
      <trkpt lat="44.07748" lon="7.02063">
        <ele>1759</ele>
        <time>2025-04-05T09:18:23Z</time>
      </trkpt>
      <trkpt lat="44.07745" lon="7.02064">
        <ele>1760</ele>
        <time>2025-04-05T09:18:29Z</time>
      </trkpt>
      <trkpt lat="44.07739" lon="7.02073">
        <ele>1762</ele>
        <time>2025-04-05T09:18:49Z</time>
      </trkpt>
      <trkpt lat="44.07737" lon="7.02076">
        <ele>1764</ele>
        <time>2025-04-05T09:19:01Z</time>
      </trkpt>
      <trkpt lat="44.07737" lon="7.0208">
        <ele>1763</ele>
        <time>2025-04-05T09:19:09Z</time>
      </trkpt>
      <trkpt lat="44.07735" lon="7.02086">
        <ele>1762</ele>
        <time>2025-04-05T09:19:15Z</time>
      </trkpt>
      <trkpt lat="44.07732" lon="7.02088">
        <ele>1762</ele>
        <time>2025-04-05T09:19:19Z</time>
      </trkpt>
      <trkpt lat="44.07735" lon="7.02091">
        <ele>1763</ele>
        <time>2025-04-05T09:19:23Z</time>
      </trkpt>
      <trkpt lat="44.07739" lon="7.02099">
        <ele>1772</ele>
        <time>2025-04-05T09:19:41Z</time>
      </trkpt>
      <trkpt lat="44.07741" lon="7.02102">
        <ele>1773</ele>
        <time>2025-04-05T09:19:45Z</time>
      </trkpt>
      <trkpt lat="44.07741" lon="7.02106">
        <ele>1774</ele>
        <time>2025-04-05T09:19:51Z</time>
      </trkpt>
      <trkpt lat="44.07741" lon="7.02115">
        <ele>1775</ele>
        <time>2025-04-05T09:20:01Z</time>
      </trkpt>
      <trkpt lat="44.07742" lon="7.0212">
        <ele>1776</ele>
        <time>2025-04-05T09:20:05Z</time>
      </trkpt>
      <trkpt lat="44.07745" lon="7.02124">
        <ele>1776</ele>
        <time>2025-04-05T09:20:09Z</time>
      </trkpt>
      <trkpt lat="44.07743" lon="7.02128">
        <ele>1774</ele>
        <time>2025-04-05T09:20:17Z</time>
      </trkpt>
      <trkpt lat="44.07741" lon="7.02135">
        <ele>1773</ele>
        <time>2025-04-05T09:20:29Z</time>
      </trkpt>
      <trkpt lat="44.07745" lon="7.02141">
        <ele>1777</ele>
        <time>2025-04-05T09:20:35Z</time>
      </trkpt>
      <trkpt lat="44.07745" lon="7.02145">
        <ele>1778</ele>
        <time>2025-04-05T09:20:39Z</time>
      </trkpt>
      <trkpt lat="44.07747" lon="7.02155">
        <ele>1780</ele>
        <time>2025-04-05T09:20:55Z</time>
      </trkpt>
      <trkpt lat="44.07747" lon="7.02162">
        <ele>1780</ele>
        <time>2025-04-05T09:21:03Z</time>
      </trkpt>
      <trkpt lat="44.07745" lon="7.02167">
        <ele>1780</ele>
        <time>2025-04-05T09:21:09Z</time>
      </trkpt>
      <trkpt lat="44.07748" lon="7.02173">
        <ele>1781</ele>
        <time>2025-04-05T09:21:13Z</time>
      </trkpt>
      <trkpt lat="44.07751" lon="7.02177">
        <ele>1782</ele>
        <time>2025-04-05T09:21:17Z</time>
      </trkpt>
      <trkpt lat="44.07751" lon="7.02182">
        <ele>1782</ele>
        <time>2025-04-05T09:21:21Z</time>
      </trkpt>
      <trkpt lat="44.07749" lon="7.02185">
        <ele>1782</ele>
        <time>2025-04-05T09:21:25Z</time>
      </trkpt>
      <trkpt lat="44.07744" lon="7.02189">
        <ele>1782</ele>
        <time>2025-04-05T09:21:31Z</time>
      </trkpt>
      <trkpt lat="44.07741" lon="7.02199">
        <ele>1784</ele>
        <time>2025-04-05T09:21:39Z</time>
      </trkpt>
      <trkpt lat="44.07742" lon="7.02204">
        <ele>1783</ele>
        <time>2025-04-05T09:21:47Z</time>
      </trkpt>
      <trkpt lat="44.07743" lon="7.02214">
        <ele>1784</ele>
        <time>2025-04-05T09:21:57Z</time>
      </trkpt>
      <trkpt lat="44.07744" lon="7.02219">
        <ele>1785</ele>
        <time>2025-04-05T09:22:01Z</time>
      </trkpt>
      <trkpt lat="44.07744" lon="7.02224">
        <ele>1784</ele>
        <time>2025-04-05T09:22:07Z</time>
      </trkpt>
      <trkpt lat="44.07742" lon="7.0223">
        <ele>1783</ele>
        <time>2025-04-05T09:22:11Z</time>
      </trkpt>
      <trkpt lat="44.07738" lon="7.02231">
        <ele>1782</ele>
        <time>2025-04-05T09:22:15Z</time>
      </trkpt>
      <trkpt lat="44.07737" lon="7.02241">
        <ele>1783</ele>
        <time>2025-04-05T09:22:25Z</time>
      </trkpt>
      <trkpt lat="44.07734" lon="7.02253">
        <ele>1784</ele>
        <time>2025-04-05T09:22:37Z</time>
      </trkpt>
      <trkpt lat="44.07733" lon="7.02258">
        <ele>1785</ele>
        <time>2025-04-05T09:22:43Z</time>
      </trkpt>
      <trkpt lat="44.07732" lon="7.02263">
        <ele>1786</ele>
        <time>2025-04-05T09:22:51Z</time>
      </trkpt>
      <trkpt lat="44.0773" lon="7.02268">
        <ele>1787</ele>
        <time>2025-04-05T09:22:55Z</time>
      </trkpt>
      <trkpt lat="44.07727" lon="7.02271">
        <ele>1787</ele>
        <time>2025-04-05T09:22:59Z</time>
      </trkpt>
      <trkpt lat="44.07725" lon="7.02275">
        <ele>1788</ele>
        <time>2025-04-05T09:23:03Z</time>
      </trkpt>
      <trkpt lat="44.07724" lon="7.02284">
        <ele>1788</ele>
        <time>2025-04-05T09:23:11Z</time>
      </trkpt>
      <trkpt lat="44.07726" lon="7.02288">
        <ele>1789</ele>
        <time>2025-04-05T09:23:17Z</time>
      </trkpt>
      <trkpt lat="44.07725" lon="7.02293">
        <ele>1790</ele>
        <time>2025-04-05T09:23:23Z</time>
      </trkpt>
      <trkpt lat="44.07722" lon="7.02301">
        <ele>1791</ele>
        <time>2025-04-05T09:23:31Z</time>
      </trkpt>
      <trkpt lat="44.07714" lon="7.02321">
        <ele>1791</ele>
        <time>2025-04-05T09:23:53Z</time>
      </trkpt>
      <trkpt lat="44.07711" lon="7.02325">
        <ele>1792</ele>
        <time>2025-04-05T09:23:59Z</time>
      </trkpt>
      <trkpt lat="44.07709" lon="7.02328">
        <ele>1792</ele>
        <time>2025-04-05T09:24:05Z</time>
      </trkpt>
      <trkpt lat="44.07711" lon="7.02331">
        <ele>1793</ele>
        <time>2025-04-05T09:24:23Z</time>
      </trkpt>
      <trkpt lat="44.0771" lon="7.02334">
        <ele>1794</ele>
        <time>2025-04-05T09:24:31Z</time>
      </trkpt>
      <trkpt lat="44.07709" lon="7.02339">
        <ele>1797</ele>
        <time>2025-04-05T09:24:35Z</time>
      </trkpt>
      <trkpt lat="44.07707" lon="7.02343">
        <ele>1798</ele>
        <time>2025-04-05T09:24:39Z</time>
      </trkpt>
      <trkpt lat="44.07698" lon="7.02355">
        <ele>1799</ele>
        <time>2025-04-05T09:24:53Z</time>
      </trkpt>
      <trkpt lat="44.07695" lon="7.02356">
        <ele>1798</ele>
        <time>2025-04-05T09:25:01Z</time>
      </trkpt>
      <trkpt lat="44.07693" lon="7.0236">
        <ele>1798</ele>
        <time>2025-04-05T09:25:07Z</time>
      </trkpt>
      <trkpt lat="44.07689" lon="7.02363">
        <ele>1799</ele>
        <time>2025-04-05T09:25:35Z</time>
      </trkpt>
      <trkpt lat="44.07686" lon="7.02365">
        <ele>1801</ele>
        <time>2025-04-05T09:25:47Z</time>
      </trkpt>
      <trkpt lat="44.07679" lon="7.02362">
        <ele>1801</ele>
        <time>2025-04-05T09:25:57Z</time>
      </trkpt>
      <trkpt lat="44.07681" lon="7.02365">
        <ele>1801</ele>
        <time>2025-04-05T09:26:03Z</time>
      </trkpt>
      <trkpt lat="44.07678" lon="7.0237">
        <ele>1801</ele>
        <time>2025-04-05T09:26:11Z</time>
      </trkpt>
      <trkpt lat="44.07674" lon="7.02372">
        <ele>1800</ele>
        <time>2025-04-05T09:26:17Z</time>
      </trkpt>
      <trkpt lat="44.07671" lon="7.0237">
        <ele>1800</ele>
        <time>2025-04-05T09:26:21Z</time>
      </trkpt>
      <trkpt lat="44.07667" lon="7.02369">
        <ele>1800</ele>
        <time>2025-04-05T09:26:25Z</time>
      </trkpt>
      <trkpt lat="44.07666" lon="7.02373">
        <ele>1802</ele>
        <time>2025-04-05T09:26:45Z</time>
      </trkpt>
      <trkpt lat="44.07665" lon="7.02379">
        <ele>1803</ele>
        <time>2025-04-05T09:26:51Z</time>
      </trkpt>
      <trkpt lat="44.07667" lon="7.02389">
        <ele>1805</ele>
        <time>2025-04-05T09:27:01Z</time>
      </trkpt>
      <trkpt lat="44.07667" lon="7.02394">
        <ele>1807</ele>
        <time>2025-04-05T09:27:07Z</time>
      </trkpt>
      <trkpt lat="44.07666" lon="7.02399">
        <ele>1807</ele>
        <time>2025-04-05T09:27:13Z</time>
      </trkpt>
      <trkpt lat="44.07665" lon="7.02405">
        <ele>1807</ele>
        <time>2025-04-05T09:27:19Z</time>
      </trkpt>
      <trkpt lat="44.07661" lon="7.02415">
        <ele>1808</ele>
        <time>2025-04-05T09:27:31Z</time>
      </trkpt>
      <trkpt lat="44.07658" lon="7.02416">
        <ele>1807</ele>
        <time>2025-04-05T09:27:37Z</time>
      </trkpt>
      <trkpt lat="44.07655" lon="7.02418">
        <ele>1807</ele>
        <time>2025-04-05T09:27:41Z</time>
      </trkpt>
      <trkpt lat="44.07649" lon="7.02421">
        <ele>1807</ele>
        <time>2025-04-05T09:27:51Z</time>
      </trkpt>
      <trkpt lat="44.07646" lon="7.0242">
        <ele>1809</ele>
        <time>2025-04-05T09:27:59Z</time>
      </trkpt>
      <trkpt lat="44.07643" lon="7.02421">
        <ele>1808</ele>
        <time>2025-04-05T09:28:15Z</time>
      </trkpt>
      <trkpt lat="44.07639" lon="7.0242">
        <ele>1809</ele>
        <time>2025-04-05T09:28:21Z</time>
      </trkpt>
      <trkpt lat="44.07636" lon="7.02419">
        <ele>1809</ele>
        <time>2025-04-05T09:28:29Z</time>
      </trkpt>
      <trkpt lat="44.07634" lon="7.02423">
        <ele>1809</ele>
        <time>2025-04-05T09:28:35Z</time>
      </trkpt>
      <trkpt lat="44.0763" lon="7.02421">
        <ele>1810</ele>
        <time>2025-04-05T09:28:41Z</time>
      </trkpt>
      <trkpt lat="44.07628" lon="7.02419">
        <ele>1811</ele>
        <time>2025-04-05T09:28:59Z</time>
      </trkpt>
      <trkpt lat="44.07628" lon="7.02416">
        <ele>1812</ele>
        <time>2025-04-05T09:36:41Z</time>
      </trkpt>
      <trkpt lat="44.07631" lon="7.02417">
        <ele>1812</ele>
        <time>2025-04-05T09:37:07Z</time>
      </trkpt>
      <trkpt lat="44.07634" lon="7.02415">
        <ele>1814</ele>
        <time>2025-04-05T09:38:07Z</time>
      </trkpt>
      <trkpt lat="44.07637" lon="7.02416">
        <ele>1815</ele>
        <time>2025-04-05T09:38:13Z</time>
      </trkpt>
      <trkpt lat="44.0764" lon="7.02418">
        <ele>1817</ele>
        <time>2025-04-05T09:38:21Z</time>
      </trkpt>
      <trkpt lat="44.07642" lon="7.02415">
        <ele>1817</ele>
        <time>2025-04-05T09:38:27Z</time>
      </trkpt>
      <trkpt lat="44.07653" lon="7.02416">
        <ele>1816</ele>
        <time>2025-04-05T09:38:47Z</time>
      </trkpt>
      <trkpt lat="44.07657" lon="7.02415">
        <ele>1815</ele>
        <time>2025-04-05T09:38:53Z</time>
      </trkpt>
      <trkpt lat="44.07659" lon="7.02417">
        <ele>1816</ele>
        <time>2025-04-05T09:39:01Z</time>
      </trkpt>
      <trkpt lat="44.07656" lon="7.02426">
        <ele>1814</ele>
        <time>2025-04-05T09:39:09Z</time>
      </trkpt>
      <trkpt lat="44.07656" lon="7.02431">
        <ele>1813</ele>
        <time>2025-04-05T09:39:13Z</time>
      </trkpt>
      <trkpt lat="44.07652" lon="7.02439">
        <ele>1809</ele>
        <time>2025-04-05T09:39:29Z</time>
      </trkpt>
      <trkpt lat="44.07646" lon="7.02445">
        <ele>1806</ele>
        <time>2025-04-05T09:39:37Z</time>
      </trkpt>
      <trkpt lat="44.07633" lon="7.02453">
        <ele>1804</ele>
        <time>2025-04-05T09:39:55Z</time>
      </trkpt>
      <trkpt lat="44.07629" lon="7.02455">
        <ele>1806</ele>
        <time>2025-04-05T09:39:59Z</time>
      </trkpt>
      <trkpt lat="44.07621" lon="7.02457">
        <ele>1805</ele>
        <time>2025-04-05T09:40:09Z</time>
      </trkpt>
      <trkpt lat="44.07611" lon="7.02465">
        <ele>1803</ele>
        <time>2025-04-05T09:40:25Z</time>
      </trkpt>
      <trkpt lat="44.07608" lon="7.02467">
        <ele>1802</ele>
        <time>2025-04-05T09:40:31Z</time>
      </trkpt>
      <trkpt lat="44.076" lon="7.02478">
        <ele>1799</ele>
        <time>2025-04-05T09:40:51Z</time>
      </trkpt>
      <trkpt lat="44.07598" lon="7.02482">
        <ele>1798</ele>
        <time>2025-04-05T09:40:59Z</time>
      </trkpt>
      <trkpt lat="44.07596" lon="7.02486">
        <ele>1798</ele>
        <time>2025-04-05T09:41:05Z</time>
      </trkpt>
      <trkpt lat="44.07594" lon="7.02489">
        <ele>1796</ele>
        <time>2025-04-05T09:41:09Z</time>
      </trkpt>
      <trkpt lat="44.07591" lon="7.02491">
        <ele>1796</ele>
        <time>2025-04-05T09:41:13Z</time>
      </trkpt>
      <trkpt lat="44.07588" lon="7.02494">
        <ele>1797</ele>
        <time>2025-04-05T09:41:19Z</time>
      </trkpt>
      <trkpt lat="44.07585" lon="7.0249">
        <ele>1797</ele>
        <time>2025-04-05T09:41:29Z</time>
      </trkpt>
      <trkpt lat="44.07583" lon="7.02487">
        <ele>1795</ele>
        <time>2025-04-05T09:41:33Z</time>
      </trkpt>
      <trkpt lat="44.0758" lon="7.02492">
        <ele>1794</ele>
        <time>2025-04-05T09:41:51Z</time>
      </trkpt>
      <trkpt lat="44.07577" lon="7.02493">
        <ele>1793</ele>
        <time>2025-04-05T09:41:57Z</time>
      </trkpt>
      <trkpt lat="44.07573" lon="7.02491">
        <ele>1792</ele>
        <time>2025-04-05T09:42:05Z</time>
      </trkpt>
      <trkpt lat="44.07566" lon="7.02497">
        <ele>1792</ele>
        <time>2025-04-05T09:42:15Z</time>
      </trkpt>
      <trkpt lat="44.07562" lon="7.02497">
        <ele>1790</ele>
        <time>2025-04-05T09:42:19Z</time>
      </trkpt>
      <trkpt lat="44.07559" lon="7.02499">
        <ele>1789</ele>
        <time>2025-04-05T09:42:23Z</time>
      </trkpt>
      <trkpt lat="44.07555" lon="7.02498">
        <ele>1787</ele>
        <time>2025-04-05T09:42:29Z</time>
      </trkpt>
      <trkpt lat="44.07548" lon="7.02501">
        <ele>1787</ele>
        <time>2025-04-05T09:42:45Z</time>
      </trkpt>
      <trkpt lat="44.07544" lon="7.02502">
        <ele>1787</ele>
        <time>2025-04-05T09:42:49Z</time>
      </trkpt>
      <trkpt lat="44.07541" lon="7.02504">
        <ele>1787</ele>
        <time>2025-04-05T09:42:53Z</time>
      </trkpt>
      <trkpt lat="44.07533" lon="7.02506">
        <ele>1788</ele>
        <time>2025-04-05T09:43:01Z</time>
      </trkpt>
      <trkpt lat="44.07529" lon="7.02505">
        <ele>1788</ele>
        <time>2025-04-05T09:43:05Z</time>
      </trkpt>
      <trkpt lat="44.07511" lon="7.02511">
        <ele>1787</ele>
        <time>2025-04-05T09:43:29Z</time>
      </trkpt>
      <trkpt lat="44.07506" lon="7.0251">
        <ele>1787</ele>
        <time>2025-04-05T09:43:33Z</time>
      </trkpt>
      <trkpt lat="44.07502" lon="7.02507">
        <ele>1787</ele>
        <time>2025-04-05T09:43:37Z</time>
      </trkpt>
      <trkpt lat="44.07492" lon="7.02505">
        <ele>1787</ele>
        <time>2025-04-05T09:43:59Z</time>
      </trkpt>
      <trkpt lat="44.07487" lon="7.02505">
        <ele>1789</ele>
        <time>2025-04-05T09:44:05Z</time>
      </trkpt>
      <trkpt lat="44.07484" lon="7.02502">
        <ele>1790</ele>
        <time>2025-04-05T09:44:11Z</time>
      </trkpt>
      <trkpt lat="44.07479" lon="7.02502">
        <ele>1791</ele>
        <time>2025-04-05T09:44:17Z</time>
      </trkpt>
      <trkpt lat="44.07475" lon="7.02505">
        <ele>1792</ele>
        <time>2025-04-05T09:44:21Z</time>
      </trkpt>
      <trkpt lat="44.07472" lon="7.02506">
        <ele>1793</ele>
        <time>2025-04-05T09:44:25Z</time>
      </trkpt>
      <trkpt lat="44.07468" lon="7.02504">
        <ele>1793</ele>
        <time>2025-04-05T09:44:29Z</time>
      </trkpt>
      <trkpt lat="44.07463" lon="7.02499">
        <ele>1792</ele>
        <time>2025-04-05T09:44:41Z</time>
      </trkpt>
      <trkpt lat="44.07461" lon="7.02494">
        <ele>1791</ele>
        <time>2025-04-05T09:44:45Z</time>
      </trkpt>
      <trkpt lat="44.07457" lon="7.02493">
        <ele>1791</ele>
        <time>2025-04-05T09:44:49Z</time>
      </trkpt>
      <trkpt lat="44.07454" lon="7.02493">
        <ele>1790</ele>
        <time>2025-04-05T09:44:53Z</time>
      </trkpt>
      <trkpt lat="44.0745" lon="7.02492">
        <ele>1789</ele>
        <time>2025-04-05T09:44:57Z</time>
      </trkpt>
      <trkpt lat="44.07444" lon="7.02486">
        <ele>1787</ele>
        <time>2025-04-05T09:45:03Z</time>
      </trkpt>
      <trkpt lat="44.0744" lon="7.02487">
        <ele>1787</ele>
        <time>2025-04-05T09:45:09Z</time>
      </trkpt>
      <trkpt lat="44.07437" lon="7.02486">
        <ele>1786</ele>
        <time>2025-04-05T09:45:13Z</time>
      </trkpt>
      <trkpt lat="44.07434" lon="7.02484">
        <ele>1786</ele>
        <time>2025-04-05T09:45:17Z</time>
      </trkpt>
      <trkpt lat="44.07425" lon="7.02483">
        <ele>1786</ele>
        <time>2025-04-05T09:45:31Z</time>
      </trkpt>
      <trkpt lat="44.07414" lon="7.02482">
        <ele>1784</ele>
        <time>2025-04-05T09:45:47Z</time>
      </trkpt>
      <trkpt lat="44.07407" lon="7.02485">
        <ele>1783</ele>
        <time>2025-04-05T09:45:55Z</time>
      </trkpt>
      <trkpt lat="44.07403" lon="7.02486">
        <ele>1782</ele>
        <time>2025-04-05T09:46:01Z</time>
      </trkpt>
      <trkpt lat="44.07399" lon="7.02483">
        <ele>1781</ele>
        <time>2025-04-05T09:46:07Z</time>
      </trkpt>
      <trkpt lat="44.07395" lon="7.02486">
        <ele>1781</ele>
        <time>2025-04-05T09:46:13Z</time>
      </trkpt>
      <trkpt lat="44.07391" lon="7.02486">
        <ele>1780</ele>
        <time>2025-04-05T09:46:17Z</time>
      </trkpt>
      <trkpt lat="44.07384" lon="7.02485">
        <ele>1779</ele>
        <time>2025-04-05T09:46:25Z</time>
      </trkpt>
      <trkpt lat="44.07381" lon="7.02485">
        <ele>1778</ele>
        <time>2025-04-05T09:46:33Z</time>
      </trkpt>
      <trkpt lat="44.07374" lon="7.02487">
        <ele>1776</ele>
        <time>2025-04-05T09:46:41Z</time>
      </trkpt>
      <trkpt lat="44.0737" lon="7.02489">
        <ele>1775</ele>
        <time>2025-04-05T09:46:45Z</time>
      </trkpt>
      <trkpt lat="44.07367" lon="7.0249">
        <ele>1775</ele>
        <time>2025-04-05T09:46:47Z</time>
      </trkpt>
      <trkpt lat="44.07363" lon="7.02488">
        <ele>1775</ele>
        <time>2025-04-05T09:46:53Z</time>
      </trkpt>
      <trkpt lat="44.07358" lon="7.02485">
        <ele>1775</ele>
        <time>2025-04-05T09:46:59Z</time>
      </trkpt>
      <trkpt lat="44.07354" lon="7.02482">
        <ele>1775</ele>
        <time>2025-04-05T09:47:03Z</time>
      </trkpt>
      <trkpt lat="44.07346" lon="7.02483">
        <ele>1774</ele>
        <time>2025-04-05T09:47:13Z</time>
      </trkpt>
      <trkpt lat="44.07342" lon="7.02483">
        <ele>1773</ele>
        <time>2025-04-05T09:47:17Z</time>
      </trkpt>
      <trkpt lat="44.07338" lon="7.02485">
        <ele>1773</ele>
        <time>2025-04-05T09:47:21Z</time>
      </trkpt>
      <trkpt lat="44.07335" lon="7.02485">
        <ele>1772</ele>
        <time>2025-04-05T09:47:25Z</time>
      </trkpt>
      <trkpt lat="44.07322" lon="7.02488">
        <ele>1772</ele>
        <time>2025-04-05T09:47:37Z</time>
      </trkpt>
      <trkpt lat="44.07319" lon="7.02488">
        <ele>1773</ele>
        <time>2025-04-05T09:47:41Z</time>
      </trkpt>
      <trkpt lat="44.07313" lon="7.02489">
        <ele>1772</ele>
        <time>2025-04-05T09:47:49Z</time>
      </trkpt>
      <trkpt lat="44.07309" lon="7.02491">
        <ele>1771</ele>
        <time>2025-04-05T09:47:55Z</time>
      </trkpt>
      <trkpt lat="44.07305" lon="7.02488">
        <ele>1771</ele>
        <time>2025-04-05T09:47:59Z</time>
      </trkpt>
      <trkpt lat="44.07302" lon="7.02488">
        <ele>1772</ele>
        <time>2025-04-05T09:48:03Z</time>
      </trkpt>
      <trkpt lat="44.07279" lon="7.02497">
        <ele>1771</ele>
        <time>2025-04-05T09:48:29Z</time>
      </trkpt>
      <trkpt lat="44.07273" lon="7.02502">
        <ele>1770</ele>
        <time>2025-04-05T09:48:41Z</time>
      </trkpt>
      <trkpt lat="44.07268" lon="7.02504">
        <ele>1772</ele>
        <time>2025-04-05T09:48:47Z</time>
      </trkpt>
      <trkpt lat="44.07265" lon="7.02505">
        <ele>1773</ele>
        <time>2025-04-05T09:48:51Z</time>
      </trkpt>
      <trkpt lat="44.07261" lon="7.02507">
        <ele>1773</ele>
        <time>2025-04-05T09:48:55Z</time>
      </trkpt>
      <trkpt lat="44.07237" lon="7.02517">
        <ele>1776</ele>
        <time>2025-04-05T09:49:27Z</time>
      </trkpt>
      <trkpt lat="44.07225" lon="7.02529">
        <ele>1779</ele>
        <time>2025-04-05T09:49:41Z</time>
      </trkpt>
      <trkpt lat="44.0722" lon="7.02534">
        <ele>1779</ele>
        <time>2025-04-05T09:49:49Z</time>
      </trkpt>
      <trkpt lat="44.07216" lon="7.02535">
        <ele>1779</ele>
        <time>2025-04-05T09:49:53Z</time>
      </trkpt>
      <trkpt lat="44.07211" lon="7.02537">
        <ele>1780</ele>
        <time>2025-04-05T09:49:59Z</time>
      </trkpt>
      <trkpt lat="44.07207" lon="7.02541">
        <ele>1780</ele>
        <time>2025-04-05T09:50:03Z</time>
      </trkpt>
      <trkpt lat="44.07203" lon="7.02548">
        <ele>1780</ele>
        <time>2025-04-05T09:50:09Z</time>
      </trkpt>
      <trkpt lat="44.07196" lon="7.02551">
        <ele>1782</ele>
        <time>2025-04-05T09:50:17Z</time>
      </trkpt>
      <trkpt lat="44.07192" lon="7.02552">
        <ele>1783</ele>
        <time>2025-04-05T09:50:21Z</time>
      </trkpt>
      <trkpt lat="44.07186" lon="7.02555">
        <ele>1782</ele>
        <time>2025-04-05T09:50:29Z</time>
      </trkpt>
      <trkpt lat="44.07178" lon="7.02558">
        <ele>1783</ele>
        <time>2025-04-05T09:50:37Z</time>
      </trkpt>
      <trkpt lat="44.07168" lon="7.02564">
        <ele>1784</ele>
        <time>2025-04-05T09:50:48Z</time>
      </trkpt>
      <trkpt lat="44.07161" lon="7.02563">
        <ele>1785</ele>
        <time>2025-04-05T09:50:54Z</time>
      </trkpt>
      <trkpt lat="44.07156" lon="7.02566">
        <ele>1786</ele>
        <time>2025-04-05T09:51:00Z</time>
      </trkpt>
      <trkpt lat="44.07152" lon="7.02574">
        <ele>1786</ele>
        <time>2025-04-05T09:51:08Z</time>
      </trkpt>
      <trkpt lat="44.07145" lon="7.02583">
        <ele>1786</ele>
        <time>2025-04-05T09:51:17Z</time>
      </trkpt>
      <trkpt lat="44.07132" lon="7.02592">
        <ele>1787</ele>
        <time>2025-04-05T09:51:31Z</time>
      </trkpt>
      <trkpt lat="44.0712" lon="7.02597">
        <ele>1786</ele>
        <time>2025-04-05T09:51:44Z</time>
      </trkpt>
      <trkpt lat="44.07104" lon="7.02608">
        <ele>1788</ele>
        <time>2025-04-05T09:52:02Z</time>
      </trkpt>
      <trkpt lat="44.07099" lon="7.0261">
        <ele>1788</ele>
        <time>2025-04-05T09:52:06Z</time>
      </trkpt>
      <trkpt lat="44.07097" lon="7.02609">
        <ele>1788</ele>
        <time>2025-04-05T09:52:10Z</time>
      </trkpt>
      <trkpt lat="44.0709" lon="7.02603">
        <ele>1788</ele>
        <time>2025-04-05T09:52:18Z</time>
      </trkpt>
      <trkpt lat="44.07087" lon="7.026">
        <ele>1788</ele>
        <time>2025-04-05T09:52:22Z</time>
      </trkpt>
      <trkpt lat="44.07085" lon="7.026">
        <ele>1790</ele>
        <time>2025-04-05T09:54:20Z</time>
      </trkpt>
      <trkpt lat="44.07083" lon="7.02603">
        <ele>1791</ele>
        <time>2025-04-05T09:56:48Z</time>
      </trkpt>
      <trkpt lat="44.07083" lon="7.026">
        <ele>1790</ele>
        <time>2025-04-05T09:57:52Z</time>
      </trkpt>
      <trkpt lat="44.07085" lon="7.026">
        <ele>1791</ele>
        <time>2025-04-05T09:58:40Z</time>
      </trkpt>
      <trkpt lat="44.07084" lon="7.02605">
        <ele>1791</ele>
        <time>2025-04-05T09:59:34Z</time>
      </trkpt>
      <trkpt lat="44.07088" lon="7.026">
        <ele>1792</ele>
        <time>2025-04-05T09:59:44Z</time>
      </trkpt>
      <trkpt lat="44.07085" lon="7.02594">
        <ele>1792</ele>
        <time>2025-04-05T10:00:18Z</time>
      </trkpt>
      <trkpt lat="44.07083" lon="7.0259">
        <ele>1791</ele>
        <time>2025-04-05T10:00:22Z</time>
      </trkpt>
      <trkpt lat="44.07072" lon="7.02583">
        <ele>1791</ele>
        <time>2025-04-05T10:00:34Z</time>
      </trkpt>
      <trkpt lat="44.0707" lon="7.0258">
        <ele>1791</ele>
        <time>2025-04-05T10:00:40Z</time>
      </trkpt>
      <trkpt lat="44.07068" lon="7.02577">
        <ele>1792</ele>
        <time>2025-04-05T10:00:50Z</time>
      </trkpt>
      <trkpt lat="44.07066" lon="7.02573">
        <ele>1792</ele>
        <time>2025-04-05T10:00:58Z</time>
      </trkpt>
      <trkpt lat="44.07064" lon="7.02563">
        <ele>1791</ele>
        <time>2025-04-05T10:01:16Z</time>
      </trkpt>
      <trkpt lat="44.07058" lon="7.02558">
        <ele>1791</ele>
        <time>2025-04-05T10:01:26Z</time>
      </trkpt>
      <trkpt lat="44.07055" lon="7.02553">
        <ele>1793</ele>
        <time>2025-04-05T10:01:34Z</time>
      </trkpt>
      <trkpt lat="44.07051" lon="7.0255">
        <ele>1793</ele>
        <time>2025-04-05T10:01:42Z</time>
      </trkpt>
      <trkpt lat="44.07047" lon="7.0255">
        <ele>1793</ele>
        <time>2025-04-05T10:01:48Z</time>
      </trkpt>
      <trkpt lat="44.07041" lon="7.02547">
        <ele>1799</ele>
        <time>2025-04-05T10:02:18Z</time>
      </trkpt>
      <trkpt lat="44.07039" lon="7.02543">
        <ele>1804</ele>
        <time>2025-04-05T10:02:24Z</time>
      </trkpt>
      <trkpt lat="44.07036" lon="7.02539">
        <ele>1806</ele>
        <time>2025-04-05T10:02:30Z</time>
      </trkpt>
      <trkpt lat="44.07033" lon="7.02536">
        <ele>1806</ele>
        <time>2025-04-05T10:02:36Z</time>
      </trkpt>
      <trkpt lat="44.07031" lon="7.0253">
        <ele>1810</ele>
        <time>2025-04-05T10:02:44Z</time>
      </trkpt>
      <trkpt lat="44.07028" lon="7.02533">
        <ele>1810</ele>
        <time>2025-04-05T10:02:54Z</time>
      </trkpt>
      <trkpt lat="44.07028" lon="7.02538">
        <ele>1810</ele>
        <time>2025-04-05T10:03:02Z</time>
      </trkpt>
      <trkpt lat="44.07025" lon="7.02534">
        <ele>1809</ele>
        <time>2025-04-05T10:03:08Z</time>
      </trkpt>
      <trkpt lat="44.07025" lon="7.0253">
        <ele>1809</ele>
        <time>2025-04-05T10:03:12Z</time>
      </trkpt>
      <trkpt lat="44.07023" lon="7.02526">
        <ele>1809</ele>
        <time>2025-04-05T10:03:16Z</time>
      </trkpt>
      <trkpt lat="44.07023" lon="7.02522">
        <ele>1808</ele>
        <time>2025-04-05T10:03:20Z</time>
      </trkpt>
      <trkpt lat="44.07021" lon="7.02518">
        <ele>1808</ele>
        <time>2025-04-05T10:03:28Z</time>
      </trkpt>
      <trkpt lat="44.07024" lon="7.02515">
        <ele>1806</ele>
        <time>2025-04-05T10:03:36Z</time>
      </trkpt>
      <trkpt lat="44.07024" lon="7.0251">
        <ele>1808</ele>
        <time>2025-04-05T10:03:42Z</time>
      </trkpt>
      <trkpt lat="44.07022" lon="7.02502">
        <ele>1810</ele>
        <time>2025-04-05T10:03:50Z</time>
      </trkpt>
      <trkpt lat="44.07019" lon="7.02499">
        <ele>1812</ele>
        <time>2025-04-05T10:03:54Z</time>
      </trkpt>
      <trkpt lat="44.07018" lon="7.02491">
        <ele>1812</ele>
        <time>2025-04-05T10:04:00Z</time>
      </trkpt>
      <trkpt lat="44.07016" lon="7.02481">
        <ele>1817</ele>
        <time>2025-04-05T10:04:14Z</time>
      </trkpt>
      <trkpt lat="44.07015" lon="7.02476">
        <ele>1818</ele>
        <time>2025-04-05T10:04:30Z</time>
      </trkpt>
      <trkpt lat="44.0701" lon="7.02443">
        <ele>1824</ele>
        <time>2025-04-05T10:05:00Z</time>
      </trkpt>
      <trkpt lat="44.07009" lon="7.02437">
        <ele>1824</ele>
        <time>2025-04-05T10:05:04Z</time>
      </trkpt>
      <trkpt lat="44.07008" lon="7.02432">
        <ele>1823</ele>
        <time>2025-04-05T10:05:08Z</time>
      </trkpt>
      <trkpt lat="44.07008" lon="7.02428">
        <ele>1822</ele>
        <time>2025-04-05T10:05:14Z</time>
      </trkpt>
      <trkpt lat="44.07009" lon="7.02424">
        <ele>1824</ele>
        <time>2025-04-05T10:05:38Z</time>
      </trkpt>
      <trkpt lat="44.07006" lon="7.02416">
        <ele>1827</ele>
        <time>2025-04-05T10:06:06Z</time>
      </trkpt>
      <trkpt lat="44.07005" lon="7.0241">
        <ele>1826</ele>
        <time>2025-04-05T10:06:12Z</time>
      </trkpt>
      <trkpt lat="44.07004" lon="7.02405">
        <ele>1825</ele>
        <time>2025-04-05T10:06:18Z</time>
      </trkpt>
      <trkpt lat="44.07002" lon="7.02402">
        <ele>1825</ele>
        <time>2025-04-05T10:06:22Z</time>
      </trkpt>
      <trkpt lat="44.06996" lon="7.02389">
        <ele>1826</ele>
        <time>2025-04-05T10:06:36Z</time>
      </trkpt>
      <trkpt lat="44.06995" lon="7.02379">
        <ele>1830</ele>
        <time>2025-04-05T10:07:02Z</time>
      </trkpt>
      <trkpt lat="44.06992" lon="7.02375">
        <ele>1831</ele>
        <time>2025-04-05T10:07:08Z</time>
      </trkpt>
      <trkpt lat="44.06991" lon="7.02366">
        <ele>1831</ele>
        <time>2025-04-05T10:07:16Z</time>
      </trkpt>
      <trkpt lat="44.06994" lon="7.02356">
        <ele>1833</ele>
        <time>2025-04-05T10:07:26Z</time>
      </trkpt>
      <trkpt lat="44.06994" lon="7.02351">
        <ele>1836</ele>
        <time>2025-04-05T10:07:32Z</time>
      </trkpt>
      <trkpt lat="44.06993" lon="7.02347">
        <ele>1833</ele>
        <time>2025-04-05T10:07:46Z</time>
      </trkpt>
      <trkpt lat="44.06993" lon="7.02341">
        <ele>1832</ele>
        <time>2025-04-05T10:07:52Z</time>
      </trkpt>
      <trkpt lat="44.06995" lon="7.02337">
        <ele>1831</ele>
        <time>2025-04-05T10:08:00Z</time>
      </trkpt>
      <trkpt lat="44.06998" lon="7.02332">
        <ele>1831</ele>
        <time>2025-04-05T10:08:04Z</time>
      </trkpt>
      <trkpt lat="44.06996" lon="7.02328">
        <ele>1830</ele>
        <time>2025-04-05T10:08:12Z</time>
      </trkpt>
      <trkpt lat="44.06998" lon="7.02318">
        <ele>1828</ele>
        <time>2025-04-05T10:08:36Z</time>
      </trkpt>
      <trkpt lat="44.06999" lon="7.02313">
        <ele>1827</ele>
        <time>2025-04-05T10:08:42Z</time>
      </trkpt>
      <trkpt lat="44.06999" lon="7.02308">
        <ele>1827</ele>
        <time>2025-04-05T10:08:48Z</time>
      </trkpt>
      <trkpt lat="44.06996" lon="7.02299">
        <ele>1833</ele>
        <time>2025-04-05T10:09:00Z</time>
      </trkpt>
      <trkpt lat="44.06996" lon="7.02294">
        <ele>1833</ele>
        <time>2025-04-05T10:09:08Z</time>
      </trkpt>
      <trkpt lat="44.06996" lon="7.02289">
        <ele>1836</ele>
        <time>2025-04-05T10:09:20Z</time>
      </trkpt>
      <trkpt lat="44.06997" lon="7.02284">
        <ele>1838</ele>
        <time>2025-04-05T10:09:26Z</time>
      </trkpt>
      <trkpt lat="44.06996" lon="7.02278">
        <ele>1839</ele>
        <time>2025-04-05T10:09:32Z</time>
      </trkpt>
      <trkpt lat="44.06996" lon="7.02253">
        <ele>1841</ele>
        <time>2025-04-05T10:10:12Z</time>
      </trkpt>
      <trkpt lat="44.06994" lon="7.02247">
        <ele>1843</ele>
        <time>2025-04-05T10:10:18Z</time>
      </trkpt>
      <trkpt lat="44.06996" lon="7.02241">
        <ele>1845</ele>
        <time>2025-04-05T10:10:26Z</time>
      </trkpt>
      <trkpt lat="44.06995" lon="7.02236">
        <ele>1848</ele>
        <time>2025-04-05T10:10:32Z</time>
      </trkpt>
      <trkpt lat="44.06994" lon="7.02231">
        <ele>1849</ele>
        <time>2025-04-05T10:10:38Z</time>
      </trkpt>
      <trkpt lat="44.06994" lon="7.02225">
        <ele>1850</ele>
        <time>2025-04-05T10:10:44Z</time>
      </trkpt>
      <trkpt lat="44.06998" lon="7.02199">
        <ele>1852</ele>
        <time>2025-04-05T10:11:16Z</time>
      </trkpt>
      <trkpt lat="44.06997" lon="7.02194">
        <ele>1853</ele>
        <time>2025-04-05T10:11:22Z</time>
      </trkpt>
      <trkpt lat="44.06996" lon="7.02189">
        <ele>1854</ele>
        <time>2025-04-05T10:11:28Z</time>
      </trkpt>
      <trkpt lat="44.06997" lon="7.02184">
        <ele>1855</ele>
        <time>2025-04-05T10:11:34Z</time>
      </trkpt>
      <trkpt lat="44.06994" lon="7.0218">
        <ele>1854</ele>
        <time>2025-04-05T10:11:38Z</time>
      </trkpt>
      <trkpt lat="44.06992" lon="7.02177">
        <ele>1855</ele>
        <time>2025-04-05T10:11:58Z</time>
      </trkpt>
      <trkpt lat="44.0699" lon="7.02177">
        <ele>1859</ele>
        <time>2025-04-05T10:12:20Z</time>
      </trkpt>
      <trkpt lat="44.0699" lon="7.02177">
        <ele>1858</ele>
        <time>2025-04-05T10:12:50Z</time>
      </trkpt>
      <trkpt lat="44.06989" lon="7.02177">
        <ele>1856</ele>
        <time>2025-04-05T10:13:34Z</time>
      </trkpt>
      <trkpt lat="44.06988" lon="7.02172">
        <ele>1855</ele>
        <time>2025-04-05T10:13:42Z</time>
      </trkpt>
      <trkpt lat="44.06985" lon="7.02169">
        <ele>1857</ele>
        <time>2025-04-05T10:14:22Z</time>
      </trkpt>
      <trkpt lat="44.06982" lon="7.02166">
        <ele>1858</ele>
        <time>2025-04-05T10:14:28Z</time>
      </trkpt>
      <trkpt lat="44.06981" lon="7.02162">
        <ele>1859</ele>
        <time>2025-04-05T10:14:50Z</time>
      </trkpt>
      <trkpt lat="44.06978" lon="7.02159">
        <ele>1860</ele>
        <time>2025-04-05T10:14:56Z</time>
      </trkpt>
      <trkpt lat="44.06975" lon="7.02155">
        <ele>1859</ele>
        <time>2025-04-05T10:15:02Z</time>
      </trkpt>
      <trkpt lat="44.0697" lon="7.02142">
        <ele>1857</ele>
        <time>2025-04-05T10:15:16Z</time>
      </trkpt>
      <trkpt lat="44.06966" lon="7.02139">
        <ele>1856</ele>
        <time>2025-04-05T10:15:22Z</time>
      </trkpt>
      <trkpt lat="44.06964" lon="7.02137">
        <ele>1857</ele>
        <time>2025-04-05T10:15:26Z</time>
      </trkpt>
      <trkpt lat="44.06962" lon="7.02134">
        <ele>1860</ele>
        <time>2025-04-05T10:15:32Z</time>
      </trkpt>
      <trkpt lat="44.0696" lon="7.02131">
        <ele>1861</ele>
        <time>2025-04-05T10:15:36Z</time>
      </trkpt>
      <trkpt lat="44.06957" lon="7.02129">
        <ele>1860</ele>
        <time>2025-04-05T10:15:40Z</time>
      </trkpt>
      <trkpt lat="44.0696" lon="7.02127">
        <ele>1859</ele>
        <time>2025-04-05T10:15:52Z</time>
      </trkpt>
      <trkpt lat="44.06956" lon="7.02124">
        <ele>1859</ele>
        <time>2025-04-05T10:16:06Z</time>
      </trkpt>
      <trkpt lat="44.06954" lon="7.0212">
        <ele>1861</ele>
        <time>2025-04-05T10:16:14Z</time>
      </trkpt>
      <trkpt lat="44.06952" lon="7.02116">
        <ele>1861</ele>
        <time>2025-04-05T10:16:18Z</time>
      </trkpt>
      <trkpt lat="44.06951" lon="7.02112">
        <ele>1861</ele>
        <time>2025-04-05T10:16:22Z</time>
      </trkpt>
      <trkpt lat="44.06949" lon="7.02108">
        <ele>1860</ele>
        <time>2025-04-05T10:16:28Z</time>
      </trkpt>
      <trkpt lat="44.06945" lon="7.02099">
        <ele>1862</ele>
        <time>2025-04-05T10:16:38Z</time>
      </trkpt>
      <trkpt lat="44.06943" lon="7.02096">
        <ele>1863</ele>
        <time>2025-04-05T10:16:42Z</time>
      </trkpt>
      <trkpt lat="44.0694" lon="7.02093">
        <ele>1864</ele>
        <time>2025-04-05T10:16:48Z</time>
      </trkpt>
      <trkpt lat="44.06937" lon="7.02091">
        <ele>1865</ele>
        <time>2025-04-05T10:16:54Z</time>
      </trkpt>
      <trkpt lat="44.06935" lon="7.02086">
        <ele>1865</ele>
        <time>2025-04-05T10:16:58Z</time>
      </trkpt>
      <trkpt lat="44.06933" lon="7.02081">
        <ele>1864</ele>
        <time>2025-04-05T10:17:04Z</time>
      </trkpt>
      <trkpt lat="44.06932" lon="7.02074">
        <ele>1865</ele>
        <time>2025-04-05T10:17:10Z</time>
      </trkpt>
      <trkpt lat="44.06929" lon="7.02067">
        <ele>1864</ele>
        <time>2025-04-05T10:17:18Z</time>
      </trkpt>
      <trkpt lat="44.06926" lon="7.02057">
        <ele>1866</ele>
        <time>2025-04-05T10:17:30Z</time>
      </trkpt>
      <trkpt lat="44.06922" lon="7.02037">
        <ele>1865</ele>
        <time>2025-04-05T10:17:48Z</time>
      </trkpt>
      <trkpt lat="44.06922" lon="7.02034">
        <ele>1865</ele>
        <time>2025-04-05T10:18:32Z</time>
      </trkpt>
      <trkpt lat="44.06919" lon="7.02034">
        <ele>1865</ele>
        <time>2025-04-05T10:18:54Z</time>
      </trkpt>
      <trkpt lat="44.06916" lon="7.02035">
        <ele>1865</ele>
        <time>2025-04-05T10:19:24Z</time>
      </trkpt>
      <trkpt lat="44.06915" lon="7.02034">
        <ele>1866</ele>
        <time>2025-04-05T10:20:54Z</time>
      </trkpt>
      <trkpt lat="44.06912" lon="7.02045">
        <ele>1869</ele>
        <time>2025-04-05T10:21:12Z</time>
      </trkpt>
      <trkpt lat="44.0691" lon="7.02051">
        <ele>1870</ele>
        <time>2025-04-05T10:21:16Z</time>
      </trkpt>
      <trkpt lat="44.06907" lon="7.02051">
        <ele>1872</ele>
        <time>2025-04-05T10:21:20Z</time>
      </trkpt>
      <trkpt lat="44.06899" lon="7.0206">
        <ele>1872</ele>
        <time>2025-04-05T10:21:30Z</time>
      </trkpt>
      <trkpt lat="44.06894" lon="7.0206">
        <ele>1872</ele>
        <time>2025-04-05T10:21:34Z</time>
      </trkpt>
      <trkpt lat="44.06891" lon="7.02055">
        <ele>1872</ele>
        <time>2025-04-05T10:21:40Z</time>
      </trkpt>
      <trkpt lat="44.06888" lon="7.02058">
        <ele>1872</ele>
        <time>2025-04-05T10:21:52Z</time>
      </trkpt>
      <trkpt lat="44.06884" lon="7.02057">
        <ele>1872</ele>
        <time>2025-04-05T10:21:56Z</time>
      </trkpt>
      <trkpt lat="44.06881" lon="7.02061">
        <ele>1872</ele>
        <time>2025-04-05T10:22:00Z</time>
      </trkpt>
      <trkpt lat="44.0688" lon="7.02065">
        <ele>1873</ele>
        <time>2025-04-05T10:22:08Z</time>
      </trkpt>
      <trkpt lat="44.06879" lon="7.02069">
        <ele>1873</ele>
        <time>2025-04-05T10:22:14Z</time>
      </trkpt>
      <trkpt lat="44.06881" lon="7.02072">
        <ele>1878</ele>
        <time>2025-04-05T10:22:36Z</time>
      </trkpt>
      <trkpt lat="44.06875" lon="7.02075">
        <ele>1879</ele>
        <time>2025-04-05T10:22:46Z</time>
      </trkpt>
      <trkpt lat="44.0687" lon="7.02077">
        <ele>1880</ele>
        <time>2025-04-05T10:22:52Z</time>
      </trkpt>
      <trkpt lat="44.0687" lon="7.0208">
        <ele>1878</ele>
        <time>2025-04-05T10:25:42Z</time>
      </trkpt>
      <trkpt lat="44.06867" lon="7.02077">
        <ele>1879</ele>
        <time>2025-04-05T10:25:52Z</time>
      </trkpt>
      <trkpt lat="44.06864" lon="7.02082">
        <ele>1879</ele>
        <time>2025-04-05T10:26:06Z</time>
      </trkpt>
      <trkpt lat="44.0686" lon="7.02082">
        <ele>1879</ele>
        <time>2025-04-05T10:26:12Z</time>
      </trkpt>
      <trkpt lat="44.06856" lon="7.02086">
        <ele>1879</ele>
        <time>2025-04-05T10:26:18Z</time>
      </trkpt>
      <trkpt lat="44.06853" lon="7.02094">
        <ele>1880</ele>
        <time>2025-04-05T10:26:28Z</time>
      </trkpt>
      <trkpt lat="44.06848" lon="7.02097">
        <ele>1880</ele>
        <time>2025-04-05T10:26:32Z</time>
      </trkpt>
      <trkpt lat="44.06842" lon="7.02099">
        <ele>1881</ele>
        <time>2025-04-05T10:26:42Z</time>
      </trkpt>
      <trkpt lat="44.06839" lon="7.02103">
        <ele>1883</ele>
        <time>2025-04-05T10:26:48Z</time>
      </trkpt>
      <trkpt lat="44.06836" lon="7.02101">
        <ele>1884</ele>
        <time>2025-04-05T10:26:54Z</time>
      </trkpt>
      <trkpt lat="44.06832" lon="7.02103">
        <ele>1883</ele>
        <time>2025-04-05T10:27:10Z</time>
      </trkpt>
      <trkpt lat="44.06826" lon="7.0211">
        <ele>1883</ele>
        <time>2025-04-05T10:27:20Z</time>
      </trkpt>
      <trkpt lat="44.06818" lon="7.02118">
        <ele>1886</ele>
        <time>2025-04-05T10:27:36Z</time>
      </trkpt>
      <trkpt lat="44.06815" lon="7.02123">
        <ele>1886</ele>
        <time>2025-04-05T10:27:42Z</time>
      </trkpt>
      <trkpt lat="44.06811" lon="7.02122">
        <ele>1887</ele>
        <time>2025-04-05T10:28:04Z</time>
      </trkpt>
      <trkpt lat="44.0681" lon="7.02126">
        <ele>1886</ele>
        <time>2025-04-05T10:28:06Z</time>
      </trkpt>
      <trkpt lat="44.06806" lon="7.02129">
        <ele>1886</ele>
        <time>2025-04-05T10:28:10Z</time>
      </trkpt>
      <trkpt lat="44.06801" lon="7.02129">
        <ele>1886</ele>
        <time>2025-04-05T10:28:18Z</time>
      </trkpt>
      <trkpt lat="44.06798" lon="7.02133">
        <ele>1888</ele>
        <time>2025-04-05T10:28:24Z</time>
      </trkpt>
      <trkpt lat="44.06793" lon="7.02139">
        <ele>1888</ele>
        <time>2025-04-05T10:28:34Z</time>
      </trkpt>
      <trkpt lat="44.0679" lon="7.02138">
        <ele>1890</ele>
        <time>2025-04-05T10:28:56Z</time>
      </trkpt>
      <trkpt lat="44.06785" lon="7.02143">
        <ele>1891</ele>
        <time>2025-04-05T10:29:04Z</time>
      </trkpt>
      <trkpt lat="44.06783" lon="7.02146">
        <ele>1892</ele>
        <time>2025-04-05T10:29:10Z</time>
      </trkpt>
      <trkpt lat="44.0678" lon="7.02146">
        <ele>1893</ele>
        <time>2025-04-05T10:29:14Z</time>
      </trkpt>
      <trkpt lat="44.06774" lon="7.0215">
        <ele>1894</ele>
        <time>2025-04-05T10:29:26Z</time>
      </trkpt>
      <trkpt lat="44.0677" lon="7.0215">
        <ele>1896</ele>
        <time>2025-04-05T10:29:46Z</time>
      </trkpt>
      <trkpt lat="44.06767" lon="7.02153">
        <ele>1896</ele>
        <time>2025-04-05T10:29:50Z</time>
      </trkpt>
      <trkpt lat="44.06763" lon="7.02152">
        <ele>1896</ele>
        <time>2025-04-05T10:30:06Z</time>
      </trkpt>
      <trkpt lat="44.06757" lon="7.02156">
        <ele>1897</ele>
        <time>2025-04-05T10:30:18Z</time>
      </trkpt>
      <trkpt lat="44.06754" lon="7.02159">
        <ele>1899</ele>
        <time>2025-04-05T10:30:22Z</time>
      </trkpt>
      <trkpt lat="44.06753" lon="7.02164">
        <ele>1900</ele>
        <time>2025-04-05T10:30:26Z</time>
      </trkpt>
      <trkpt lat="44.06753" lon="7.02169">
        <ele>1901</ele>
        <time>2025-04-05T10:30:30Z</time>
      </trkpt>
      <trkpt lat="44.06751" lon="7.02173">
        <ele>1902</ele>
        <time>2025-04-05T10:30:34Z</time>
      </trkpt>
      <trkpt lat="44.06745" lon="7.02174">
        <ele>1902</ele>
        <time>2025-04-05T10:30:38Z</time>
      </trkpt>
      <trkpt lat="44.0674" lon="7.02179">
        <ele>1904</ele>
        <time>2025-04-05T10:31:02Z</time>
      </trkpt>
      <trkpt lat="44.06736" lon="7.0218">
        <ele>1904</ele>
        <time>2025-04-05T10:31:08Z</time>
      </trkpt>
      <trkpt lat="44.06733" lon="7.02183">
        <ele>1906</ele>
        <time>2025-04-05T10:31:14Z</time>
      </trkpt>
      <trkpt lat="44.06732" lon="7.02188">
        <ele>1905</ele>
        <time>2025-04-05T10:31:20Z</time>
      </trkpt>
      <trkpt lat="44.06728" lon="7.02195">
        <ele>1906</ele>
        <time>2025-04-05T10:31:26Z</time>
      </trkpt>
      <trkpt lat="44.06726" lon="7.02198">
        <ele>1907</ele>
        <time>2025-04-05T10:31:32Z</time>
      </trkpt>
      <trkpt lat="44.06724" lon="7.022">
        <ele>1907</ele>
        <time>2025-04-05T10:31:46Z</time>
      </trkpt>
      <trkpt lat="44.0672" lon="7.02201">
        <ele>1907</ele>
        <time>2025-04-05T10:31:50Z</time>
      </trkpt>
      <trkpt lat="44.06716" lon="7.02204">
        <ele>1908</ele>
        <time>2025-04-05T10:31:58Z</time>
      </trkpt>
      <trkpt lat="44.06714" lon="7.02206">
        <ele>1908</ele>
        <time>2025-04-05T10:32:04Z</time>
      </trkpt>
      <trkpt lat="44.0671" lon="7.02206">
        <ele>1909</ele>
        <time>2025-04-05T10:32:22Z</time>
      </trkpt>
      <trkpt lat="44.06698" lon="7.02216">
        <ele>1910</ele>
        <time>2025-04-05T10:32:32Z</time>
      </trkpt>
      <trkpt lat="44.06695" lon="7.02218">
        <ele>1911</ele>
        <time>2025-04-05T10:32:38Z</time>
      </trkpt>
      <trkpt lat="44.06691" lon="7.0222">
        <ele>1911</ele>
        <time>2025-04-05T10:32:44Z</time>
      </trkpt>
      <trkpt lat="44.06687" lon="7.02223">
        <ele>1911</ele>
        <time>2025-04-05T10:32:50Z</time>
      </trkpt>
      <trkpt lat="44.06677" lon="7.02227">
        <ele>1912</ele>
        <time>2025-04-05T10:33:02Z</time>
      </trkpt>
      <trkpt lat="44.06675" lon="7.02232">
        <ele>1910</ele>
        <time>2025-04-05T10:33:08Z</time>
      </trkpt>
      <trkpt lat="44.06668" lon="7.02238">
        <ele>1911</ele>
        <time>2025-04-05T10:33:20Z</time>
      </trkpt>
      <trkpt lat="44.0667" lon="7.02248">
        <ele>1913</ele>
        <time>2025-04-05T10:33:28Z</time>
      </trkpt>
      <trkpt lat="44.0667" lon="7.02252">
        <ele>1912</ele>
        <time>2025-04-05T10:33:32Z</time>
      </trkpt>
      <trkpt lat="44.06672" lon="7.02259">
        <ele>1912</ele>
        <time>2025-04-05T10:33:36Z</time>
      </trkpt>
      <trkpt lat="44.06674" lon="7.02263">
        <ele>1913</ele>
        <time>2025-04-05T10:33:40Z</time>
      </trkpt>
      <trkpt lat="44.0667" lon="7.02271">
        <ele>1913</ele>
        <time>2025-04-05T10:33:46Z</time>
      </trkpt>
      <trkpt lat="44.06669" lon="7.02277">
        <ele>1912</ele>
        <time>2025-04-05T10:33:50Z</time>
      </trkpt>
      <trkpt lat="44.0667" lon="7.02283">
        <ele>1912</ele>
        <time>2025-04-05T10:33:54Z</time>
      </trkpt>
      <trkpt lat="44.06673" lon="7.02289">
        <ele>1913</ele>
        <time>2025-04-05T10:33:58Z</time>
      </trkpt>
      <trkpt lat="44.06673" lon="7.02297">
        <ele>1912</ele>
        <time>2025-04-05T10:34:04Z</time>
      </trkpt>
      <trkpt lat="44.06673" lon="7.02303">
        <ele>1912</ele>
        <time>2025-04-05T10:34:08Z</time>
      </trkpt>
      <trkpt lat="44.06672" lon="7.02316">
        <ele>1912</ele>
        <time>2025-04-05T10:34:18Z</time>
      </trkpt>
      <trkpt lat="44.06673" lon="7.02321">
        <ele>1913</ele>
        <time>2025-04-05T10:34:22Z</time>
      </trkpt>
      <trkpt lat="44.06675" lon="7.02323">
        <ele>1910</ele>
        <time>2025-04-05T10:59:08Z</time>
      </trkpt>
      <trkpt lat="44.06678" lon="7.0232">
        <ele>1908</ele>
        <time>2025-04-05T10:59:16Z</time>
      </trkpt>
      <trkpt lat="44.06683" lon="7.02322">
        <ele>1906</ele>
        <time>2025-04-05T10:59:22Z</time>
      </trkpt>
      <trkpt lat="44.06691" lon="7.02317">
        <ele>1907</ele>
        <time>2025-04-05T10:59:36Z</time>
      </trkpt>
      <trkpt lat="44.06693" lon="7.02313">
        <ele>1910</ele>
        <time>2025-04-05T11:00:00Z</time>
      </trkpt>
      <trkpt lat="44.06695" lon="7.02317">
        <ele>1910</ele>
        <time>2025-04-05T11:00:28Z</time>
      </trkpt>
      <trkpt lat="44.06699" lon="7.02316">
        <ele>1910</ele>
        <time>2025-04-05T11:00:36Z</time>
      </trkpt>
      <trkpt lat="44.06701" lon="7.02314">
        <ele>1909</ele>
        <time>2025-04-05T11:00:44Z</time>
      </trkpt>
      <trkpt lat="44.06701" lon="7.02303">
        <ele>1912</ele>
        <time>2025-04-05T11:01:04Z</time>
      </trkpt>
      <trkpt lat="44.06699" lon="7.023">
        <ele>1912</ele>
        <time>2025-04-05T11:02:00Z</time>
      </trkpt>
      <trkpt lat="44.06699" lon="7.02299">
        <ele>1913</ele>
        <time>2025-04-05T11:04:08Z</time>
      </trkpt>
      <trkpt lat="44.06701" lon="7.02299">
        <ele>1912</ele>
        <time>2025-04-05T11:10:02Z</time>
      </trkpt>
      <trkpt lat="44.06702" lon="7.02302">
        <ele>1911</ele>
        <time>2025-04-05T11:13:20Z</time>
      </trkpt>
      <trkpt lat="44.06701" lon="7.02306">
        <ele>1911</ele>
        <time>2025-04-05T11:17:40Z</time>
      </trkpt>
      <trkpt lat="44.06702" lon="7.02311">
        <ele>1911</ele>
        <time>2025-04-05T11:17:46Z</time>
      </trkpt>
      <trkpt lat="44.06699" lon="7.02314">
        <ele>1910</ele>
        <time>2025-04-05T11:17:58Z</time>
      </trkpt>
      <trkpt lat="44.06696" lon="7.02316">
        <ele>1909</ele>
        <time>2025-04-05T11:18:06Z</time>
      </trkpt>
      <trkpt lat="44.06692" lon="7.02317">
        <ele>1909</ele>
        <time>2025-04-05T11:18:12Z</time>
      </trkpt>
      <trkpt lat="44.06689" lon="7.02317">
        <ele>1909</ele>
        <time>2025-04-05T11:18:16Z</time>
      </trkpt>
      <trkpt lat="44.06679" lon="7.02316">
        <ele>1910</ele>
        <time>2025-04-05T11:18:36Z</time>
      </trkpt>
      <trkpt lat="44.06675" lon="7.02322">
        <ele>1908</ele>
        <time>2025-04-05T11:18:46Z</time>
      </trkpt>
      <trkpt lat="44.06673" lon="7.02325">
        <ele>1908</ele>
        <time>2025-04-05T11:25:02Z</time>
      </trkpt>
      <trkpt lat="44.06677" lon="7.02327">
        <ele>1908</ele>
        <time>2025-04-05T11:26:58Z</time>
      </trkpt>
      <trkpt lat="44.06689" lon="7.02351">
        <ele>1911</ele>
        <time>2025-04-05T11:27:24Z</time>
      </trkpt>
      <trkpt lat="44.06695" lon="7.02365">
        <ele>1910</ele>
        <time>2025-04-05T11:27:36Z</time>
      </trkpt>
      <trkpt lat="44.06697" lon="7.02374">
        <ele>1909</ele>
        <time>2025-04-05T11:27:44Z</time>
      </trkpt>
      <trkpt lat="44.06699" lon="7.02377">
        <ele>1909</ele>
        <time>2025-04-05T11:27:48Z</time>
      </trkpt>
      <trkpt lat="44.06701" lon="7.02381">
        <ele>1908</ele>
        <time>2025-04-05T11:27:52Z</time>
      </trkpt>
      <trkpt lat="44.06703" lon="7.02385">
        <ele>1909</ele>
        <time>2025-04-05T11:28:02Z</time>
      </trkpt>
      <trkpt lat="44.06702" lon="7.0239">
        <ele>1907</ele>
        <time>2025-04-05T11:28:14Z</time>
      </trkpt>
      <trkpt lat="44.06704" lon="7.02395">
        <ele>1907</ele>
        <time>2025-04-05T11:28:18Z</time>
      </trkpt>
      <trkpt lat="44.06705" lon="7.02404">
        <ele>1907</ele>
        <time>2025-04-05T11:28:28Z</time>
      </trkpt>
      <trkpt lat="44.06711" lon="7.02426">
        <ele>1906</ele>
        <time>2025-04-05T11:28:50Z</time>
      </trkpt>
      <trkpt lat="44.06713" lon="7.02431">
        <ele>1906</ele>
        <time>2025-04-05T11:28:54Z</time>
      </trkpt>
      <trkpt lat="44.06716" lon="7.0244">
        <ele>1904</ele>
        <time>2025-04-05T11:29:02Z</time>
      </trkpt>
      <trkpt lat="44.0672" lon="7.02449">
        <ele>1904</ele>
        <time>2025-04-05T11:29:12Z</time>
      </trkpt>
      <trkpt lat="44.06725" lon="7.02464">
        <ele>1902</ele>
        <time>2025-04-05T11:29:24Z</time>
      </trkpt>
      <trkpt lat="44.06726" lon="7.02469">
        <ele>1902</ele>
        <time>2025-04-05T11:29:30Z</time>
      </trkpt>
      <trkpt lat="44.06728" lon="7.0248">
        <ele>1901</ele>
        <time>2025-04-05T11:29:38Z</time>
      </trkpt>
      <trkpt lat="44.0673" lon="7.02488">
        <ele>1900</ele>
        <time>2025-04-05T11:29:46Z</time>
      </trkpt>
      <trkpt lat="44.06743" lon="7.02522">
        <ele>1894</ele>
        <time>2025-04-05T11:30:20Z</time>
      </trkpt>
      <trkpt lat="44.06751" lon="7.02547">
        <ele>1889</ele>
        <time>2025-04-05T11:30:42Z</time>
      </trkpt>
      <trkpt lat="44.06753" lon="7.02552">
        <ele>1887</ele>
        <time>2025-04-05T11:30:46Z</time>
      </trkpt>
      <trkpt lat="44.06754" lon="7.02557">
        <ele>1887</ele>
        <time>2025-04-05T11:30:50Z</time>
      </trkpt>
      <trkpt lat="44.06756" lon="7.02561">
        <ele>1885</ele>
        <time>2025-04-05T11:30:54Z</time>
      </trkpt>
      <trkpt lat="44.06757" lon="7.02565">
        <ele>1885</ele>
        <time>2025-04-05T11:30:58Z</time>
      </trkpt>
      <trkpt lat="44.06759" lon="7.0257">
        <ele>1885</ele>
        <time>2025-04-05T11:31:02Z</time>
      </trkpt>
      <trkpt lat="44.06767" lon="7.02596">
        <ele>1882</ele>
        <time>2025-04-05T11:31:26Z</time>
      </trkpt>
      <trkpt lat="44.06774" lon="7.02615">
        <ele>1880</ele>
        <time>2025-04-05T11:31:44Z</time>
      </trkpt>
      <trkpt lat="44.06778" lon="7.02631">
        <ele>1878</ele>
        <time>2025-04-05T11:31:56Z</time>
      </trkpt>
      <trkpt lat="44.0678" lon="7.02634">
        <ele>1877</ele>
        <time>2025-04-05T11:32:00Z</time>
      </trkpt>
      <trkpt lat="44.06788" lon="7.02656">
        <ele>1874</ele>
        <time>2025-04-05T11:32:24Z</time>
      </trkpt>
      <trkpt lat="44.0679" lon="7.0266">
        <ele>1872</ele>
        <time>2025-04-05T11:32:30Z</time>
      </trkpt>
      <trkpt lat="44.06793" lon="7.0267">
        <ele>1871</ele>
        <time>2025-04-05T11:33:24Z</time>
      </trkpt>
      <trkpt lat="44.06798" lon="7.02676">
        <ele>1868</ele>
        <time>2025-04-05T11:33:58Z</time>
      </trkpt>
      <trkpt lat="44.06802" lon="7.02676">
        <ele>1867</ele>
        <time>2025-04-05T11:34:10Z</time>
      </trkpt>
      <trkpt lat="44.06803" lon="7.0268">
        <ele>1867</ele>
        <time>2025-04-05T11:36:22Z</time>
      </trkpt>
      <trkpt lat="44.06803" lon="7.02679">
        <ele>1867</ele>
        <time>2025-04-05T11:37:28Z</time>
      </trkpt>
      <trkpt lat="44.06806" lon="7.02677">
        <ele>1867</ele>
        <time>2025-04-05T11:37:44Z</time>
      </trkpt>
      <trkpt lat="44.0681" lon="7.02681">
        <ele>1867</ele>
        <time>2025-04-05T11:39:24Z</time>
      </trkpt>
      <trkpt lat="44.06817" lon="7.02684">
        <ele>1863</ele>
        <time>2025-04-05T11:39:34Z</time>
      </trkpt>
      <trkpt lat="44.06821" lon="7.02685">
        <ele>1860</ele>
        <time>2025-04-05T11:39:38Z</time>
      </trkpt>
      <trkpt lat="44.0683" lon="7.0269">
        <ele>1856</ele>
        <time>2025-04-05T11:39:54Z</time>
      </trkpt>
      <trkpt lat="44.06834" lon="7.0269">
        <ele>1855</ele>
        <time>2025-04-05T11:39:58Z</time>
      </trkpt>
      <trkpt lat="44.06837" lon="7.02692">
        <ele>1854</ele>
        <time>2025-04-05T11:40:04Z</time>
      </trkpt>
      <trkpt lat="44.06841" lon="7.02693">
        <ele>1853</ele>
        <time>2025-04-05T11:40:10Z</time>
      </trkpt>
      <trkpt lat="44.06844" lon="7.02692">
        <ele>1852</ele>
        <time>2025-04-05T11:40:24Z</time>
      </trkpt>
      <trkpt lat="44.06847" lon="7.02695">
        <ele>1849</ele>
        <time>2025-04-05T11:41:26Z</time>
      </trkpt>
      <trkpt lat="44.06851" lon="7.02694">
        <ele>1848</ele>
        <time>2025-04-05T11:41:50Z</time>
      </trkpt>
      <trkpt lat="44.06851" lon="7.02692">
        <ele>1848</ele>
        <time>2025-04-05T11:44:10Z</time>
      </trkpt>
      <trkpt lat="44.06855" lon="7.02694">
        <ele>1848</ele>
        <time>2025-04-05T11:45:02Z</time>
      </trkpt>
      <trkpt lat="44.06858" lon="7.02695">
        <ele>1848</ele>
        <time>2025-04-05T11:45:08Z</time>
      </trkpt>
      <trkpt lat="44.06858" lon="7.027">
        <ele>1850</ele>
        <time>2025-04-05T11:45:36Z</time>
      </trkpt>
      <trkpt lat="44.06858" lon="7.02699">
        <ele>1850</ele>
        <time>2025-04-05T11:45:52Z</time>
      </trkpt>
      <trkpt lat="44.06854" lon="7.027">
        <ele>1850</ele>
        <time>2025-04-05T11:46:20Z</time>
      </trkpt>
      <trkpt lat="44.06853" lon="7.02696">
        <ele>1850</ele>
        <time>2025-04-05T11:46:26Z</time>
      </trkpt>
      <trkpt lat="44.06857" lon="7.02696">
        <ele>1848</ele>
        <time>2025-04-05T11:47:04Z</time>
      </trkpt>
      <trkpt lat="44.0686" lon="7.02697">
        <ele>1846</ele>
        <time>2025-04-05T11:47:08Z</time>
      </trkpt>
      <trkpt lat="44.06863" lon="7.02694">
        <ele>1847</ele>
        <time>2025-04-05T11:47:36Z</time>
      </trkpt>
      <trkpt lat="44.06866" lon="7.02696">
        <ele>1846</ele>
        <time>2025-04-05T11:47:40Z</time>
      </trkpt>
      <trkpt lat="44.06878" lon="7.02699">
        <ele>1843</ele>
        <time>2025-04-05T11:47:52Z</time>
      </trkpt>
      <trkpt lat="44.06885" lon="7.02703">
        <ele>1839</ele>
        <time>2025-04-05T11:48:06Z</time>
      </trkpt>
      <trkpt lat="44.06901" lon="7.02707">
        <ele>1836</ele>
        <time>2025-04-05T11:48:34Z</time>
      </trkpt>
      <trkpt lat="44.06908" lon="7.0271">
        <ele>1834</ele>
        <time>2025-04-05T11:48:42Z</time>
      </trkpt>
      <trkpt lat="44.06918" lon="7.02712">
        <ele>1831</ele>
        <time>2025-04-05T11:48:56Z</time>
      </trkpt>
      <trkpt lat="44.06928" lon="7.02711">
        <ele>1827</ele>
        <time>2025-04-05T11:49:14Z</time>
      </trkpt>
      <trkpt lat="44.06931" lon="7.02708">
        <ele>1826</ele>
        <time>2025-04-05T11:49:24Z</time>
      </trkpt>
      <trkpt lat="44.06934" lon="7.02708">
        <ele>1825</ele>
        <time>2025-04-05T11:49:28Z</time>
      </trkpt>
      <trkpt lat="44.06943" lon="7.02699">
        <ele>1824</ele>
        <time>2025-04-05T11:49:44Z</time>
      </trkpt>
      <trkpt lat="44.0695" lon="7.027">
        <ele>1819</ele>
        <time>2025-04-05T11:50:08Z</time>
      </trkpt>
      <trkpt lat="44.06958" lon="7.02691">
        <ele>1818</ele>
        <time>2025-04-05T11:50:20Z</time>
      </trkpt>
      <trkpt lat="44.06964" lon="7.02688">
        <ele>1817</ele>
        <time>2025-04-05T11:50:30Z</time>
      </trkpt>
      <trkpt lat="44.06968" lon="7.02685">
        <ele>1816</ele>
        <time>2025-04-05T11:50:36Z</time>
      </trkpt>
      <trkpt lat="44.06971" lon="7.02681">
        <ele>1815</ele>
        <time>2025-04-05T11:50:44Z</time>
      </trkpt>
      <trkpt lat="44.06974" lon="7.02679">
        <ele>1815</ele>
        <time>2025-04-05T11:50:48Z</time>
      </trkpt>
      <trkpt lat="44.06978" lon="7.02677">
        <ele>1814</ele>
        <time>2025-04-05T11:51:00Z</time>
      </trkpt>
      <trkpt lat="44.06982" lon="7.02673">
        <ele>1813</ele>
        <time>2025-04-05T11:51:06Z</time>
      </trkpt>
      <trkpt lat="44.06999" lon="7.02662">
        <ele>1808</ele>
        <time>2025-04-05T11:51:44Z</time>
      </trkpt>
      <trkpt lat="44.07005" lon="7.02659">
        <ele>1809</ele>
        <time>2025-04-05T11:52:04Z</time>
      </trkpt>
      <trkpt lat="44.07011" lon="7.02656">
        <ele>1808</ele>
        <time>2025-04-05T11:52:34Z</time>
      </trkpt>
      <trkpt lat="44.07015" lon="7.02653">
        <ele>1807</ele>
        <time>2025-04-05T11:52:38Z</time>
      </trkpt>
      <trkpt lat="44.0703" lon="7.02644">
        <ele>1801</ele>
        <time>2025-04-05T11:53:00Z</time>
      </trkpt>
      <trkpt lat="44.07035" lon="7.02637">
        <ele>1800</ele>
        <time>2025-04-05T11:53:10Z</time>
      </trkpt>
      <trkpt lat="44.07055" lon="7.02631">
        <ele>1798</ele>
        <time>2025-04-05T11:53:32Z</time>
      </trkpt>
      <trkpt lat="44.07058" lon="7.0263">
        <ele>1797</ele>
        <time>2025-04-05T11:53:36Z</time>
      </trkpt>
      <trkpt lat="44.0706" lon="7.02627">
        <ele>1796</ele>
        <time>2025-04-05T11:53:40Z</time>
      </trkpt>
      <trkpt lat="44.07063" lon="7.02623">
        <ele>1794</ele>
        <time>2025-04-05T11:53:46Z</time>
      </trkpt>
      <trkpt lat="44.07069" lon="7.0262">
        <ele>1791</ele>
        <time>2025-04-05T11:53:52Z</time>
      </trkpt>
      <trkpt lat="44.07072" lon="7.02617">
        <ele>1790</ele>
        <time>2025-04-05T11:53:56Z</time>
      </trkpt>
      <trkpt lat="44.07076" lon="7.0261">
        <ele>1789</ele>
        <time>2025-04-05T11:54:04Z</time>
      </trkpt>
      <trkpt lat="44.0708" lon="7.02607">
        <ele>1790</ele>
        <time>2025-04-05T11:54:08Z</time>
      </trkpt>
      <trkpt lat="44.07085" lon="7.02601">
        <ele>1789</ele>
        <time>2025-04-05T11:54:16Z</time>
      </trkpt>
      <trkpt lat="44.07085" lon="7.02601">
        <ele>1788</ele>
        <time>2025-04-05T11:56:24Z</time>
      </trkpt>
      <trkpt lat="44.07086" lon="7.026">
        <ele>1788</ele>
        <time>2025-04-05T11:57:34Z</time>
      </trkpt>
      <trkpt lat="44.07092" lon="7.02601">
        <ele>1788</ele>
        <time>2025-04-05T11:58:20Z</time>
      </trkpt>
      <trkpt lat="44.07096" lon="7.02604">
        <ele>1789</ele>
        <time>2025-04-05T11:58:26Z</time>
      </trkpt>
      <trkpt lat="44.07104" lon="7.02608">
        <ele>1790</ele>
        <time>2025-04-05T11:58:34Z</time>
      </trkpt>
      <trkpt lat="44.07111" lon="7.02605">
        <ele>1790</ele>
        <time>2025-04-05T11:58:42Z</time>
      </trkpt>
      <trkpt lat="44.07115" lon="7.02602">
        <ele>1790</ele>
        <time>2025-04-05T11:58:46Z</time>
      </trkpt>
      <trkpt lat="44.07124" lon="7.02601">
        <ele>1789</ele>
        <time>2025-04-05T11:58:54Z</time>
      </trkpt>
      <trkpt lat="44.07128" lon="7.02598">
        <ele>1789</ele>
        <time>2025-04-05T11:59:00Z</time>
      </trkpt>
      <trkpt lat="44.07132" lon="7.02596">
        <ele>1789</ele>
        <time>2025-04-05T11:59:04Z</time>
      </trkpt>
      <trkpt lat="44.07136" lon="7.02594">
        <ele>1789</ele>
        <time>2025-04-05T11:59:08Z</time>
      </trkpt>
      <trkpt lat="44.07139" lon="7.02591">
        <ele>1788</ele>
        <time>2025-04-05T11:59:12Z</time>
      </trkpt>
      <trkpt lat="44.0715" lon="7.02585">
        <ele>1788</ele>
        <time>2025-04-05T11:59:24Z</time>
      </trkpt>
      <trkpt lat="44.07168" lon="7.02571">
        <ele>1786</ele>
        <time>2025-04-05T11:59:42Z</time>
      </trkpt>
      <trkpt lat="44.07172" lon="7.02568">
        <ele>1787</ele>
        <time>2025-04-05T11:59:46Z</time>
      </trkpt>
      <trkpt lat="44.07198" lon="7.02551">
        <ele>1784</ele>
        <time>2025-04-05T12:00:12Z</time>
      </trkpt>
      <trkpt lat="44.0723" lon="7.02531">
        <ele>1780</ele>
        <time>2025-04-05T12:00:42Z</time>
      </trkpt>
      <trkpt lat="44.07238" lon="7.02525">
        <ele>1780</ele>
        <time>2025-04-05T12:00:50Z</time>
      </trkpt>
      <trkpt lat="44.07241" lon="7.02522">
        <ele>1781</ele>
        <time>2025-04-05T12:00:54Z</time>
      </trkpt>
      <trkpt lat="44.0726" lon="7.02514">
        <ele>1778</ele>
        <time>2025-04-05T12:01:10Z</time>
      </trkpt>
      <trkpt lat="44.07263" lon="7.02511">
        <ele>1778</ele>
        <time>2025-04-05T12:01:14Z</time>
      </trkpt>
      <trkpt lat="44.07275" lon="7.02505">
        <ele>1776</ele>
        <time>2025-04-05T12:01:26Z</time>
      </trkpt>
      <trkpt lat="44.07279" lon="7.02503">
        <ele>1776</ele>
        <time>2025-04-05T12:01:30Z</time>
      </trkpt>
      <trkpt lat="44.07279" lon="7.02499">
        <ele>1777</ele>
        <time>2025-04-05T12:02:04Z</time>
      </trkpt>
      <trkpt lat="44.07286" lon="7.02498">
        <ele>1776</ele>
        <time>2025-04-05T12:02:26Z</time>
      </trkpt>
      <trkpt lat="44.0729" lon="7.02498">
        <ele>1776</ele>
        <time>2025-04-05T12:02:30Z</time>
      </trkpt>
      <trkpt lat="44.07293" lon="7.02495">
        <ele>1776</ele>
        <time>2025-04-05T12:03:54Z</time>
      </trkpt>
      <trkpt lat="44.07296" lon="7.02492">
        <ele>1776</ele>
        <time>2025-04-05T12:03:58Z</time>
      </trkpt>
      <trkpt lat="44.07299" lon="7.02492">
        <ele>1777</ele>
        <time>2025-04-05T12:04:04Z</time>
      </trkpt>
      <trkpt lat="44.07302" lon="7.0249">
        <ele>1778</ele>
        <time>2025-04-05T12:04:46Z</time>
      </trkpt>
      <trkpt lat="44.07307" lon="7.02487">
        <ele>1778</ele>
        <time>2025-04-05T12:06:36Z</time>
      </trkpt>
      <trkpt lat="44.07311" lon="7.02486">
        <ele>1778</ele>
        <time>2025-04-05T12:06:42Z</time>
      </trkpt>
      <trkpt lat="44.07337" lon="7.02469">
        <ele>1774</ele>
        <time>2025-04-05T12:07:14Z</time>
      </trkpt>
      <trkpt lat="44.0734" lon="7.02467">
        <ele>1773</ele>
        <time>2025-04-05T12:07:18Z</time>
      </trkpt>
      <trkpt lat="44.07344" lon="7.02465">
        <ele>1772</ele>
        <time>2025-04-05T12:07:24Z</time>
      </trkpt>
      <trkpt lat="44.07349" lon="7.02461">
        <ele>1772</ele>
        <time>2025-04-05T12:07:32Z</time>
      </trkpt>
      <trkpt lat="44.07352" lon="7.02459">
        <ele>1771</ele>
        <time>2025-04-05T12:07:36Z</time>
      </trkpt>
      <trkpt lat="44.07356" lon="7.02457">
        <ele>1772</ele>
        <time>2025-04-05T12:07:40Z</time>
      </trkpt>
      <trkpt lat="44.07362" lon="7.0245">
        <ele>1772</ele>
        <time>2025-04-05T12:07:48Z</time>
      </trkpt>
      <trkpt lat="44.07364" lon="7.02447">
        <ele>1772</ele>
        <time>2025-04-05T12:07:52Z</time>
      </trkpt>
      <trkpt lat="44.07368" lon="7.02447">
        <ele>1772</ele>
        <time>2025-04-05T12:08:30Z</time>
      </trkpt>
      <trkpt lat="44.07367" lon="7.02445">
        <ele>1769</ele>
        <time>2025-04-05T12:13:10Z</time>
      </trkpt>
      <trkpt lat="44.07366" lon="7.02445">
        <ele>1769</ele>
        <time>2025-04-05T12:18:10Z</time>
      </trkpt>
      <trkpt lat="44.07367" lon="7.02448">
        <ele>1773</ele>
        <time>2025-04-05T12:20:06Z</time>
      </trkpt>
      <trkpt lat="44.07366" lon="7.02452">
        <ele>1773</ele>
        <time>2025-04-05T12:21:10Z</time>
      </trkpt>
      <trkpt lat="44.07364" lon="7.0245">
        <ele>1779</ele>
        <time>2025-04-05T12:23:02Z</time>
      </trkpt>
      <trkpt lat="44.07367" lon="7.02445">
        <ele>1771</ele>
        <time>2025-04-05T12:24:06Z</time>
      </trkpt>
      <trkpt lat="44.07368" lon="7.02444">
        <ele>1771</ele>
        <time>2025-04-05T12:25:08Z</time>
      </trkpt>
      <trkpt lat="44.07367" lon="7.02444">
        <ele>1771</ele>
        <time>2025-04-05T12:25:56Z</time>
      </trkpt>
      <trkpt lat="44.07368" lon="7.02442">
        <ele>1772</ele>
        <time>2025-04-05T12:26:34Z</time>
      </trkpt>
      <trkpt lat="44.07368" lon="7.02438">
        <ele>1772</ele>
        <time>2025-04-05T12:26:40Z</time>
      </trkpt>
      <trkpt lat="44.07382" lon="7.02427">
        <ele>1770</ele>
        <time>2025-04-05T12:27:16Z</time>
      </trkpt>
      <trkpt lat="44.07385" lon="7.02424">
        <ele>1768</ele>
        <time>2025-04-05T12:27:20Z</time>
      </trkpt>
      <trkpt lat="44.07391" lon="7.0242">
        <ele>1768</ele>
        <time>2025-04-05T12:27:26Z</time>
      </trkpt>
      <trkpt lat="44.07399" lon="7.02407">
        <ele>1769</ele>
        <time>2025-04-05T12:27:36Z</time>
      </trkpt>
      <trkpt lat="44.07408" lon="7.02401">
        <ele>1769</ele>
        <time>2025-04-05T12:27:46Z</time>
      </trkpt>
      <trkpt lat="44.07415" lon="7.0239">
        <ele>1768</ele>
        <time>2025-04-05T12:27:58Z</time>
      </trkpt>
      <trkpt lat="44.07422" lon="7.02386">
        <ele>1769</ele>
        <time>2025-04-05T12:28:04Z</time>
      </trkpt>
      <trkpt lat="44.07425" lon="7.02383">
        <ele>1769</ele>
        <time>2025-04-05T12:28:08Z</time>
      </trkpt>
      <trkpt lat="44.07427" lon="7.02379">
        <ele>1770</ele>
        <time>2025-04-05T12:28:12Z</time>
      </trkpt>
      <trkpt lat="44.07429" lon="7.02374">
        <ele>1769</ele>
        <time>2025-04-05T12:28:16Z</time>
      </trkpt>
      <trkpt lat="44.07435" lon="7.02371">
        <ele>1768</ele>
        <time>2025-04-05T12:28:22Z</time>
      </trkpt>
      <trkpt lat="44.07441" lon="7.02365">
        <ele>1766</ele>
        <time>2025-04-05T12:28:30Z</time>
      </trkpt>
      <trkpt lat="44.07444" lon="7.02363">
        <ele>1766</ele>
        <time>2025-04-05T12:28:34Z</time>
      </trkpt>
      <trkpt lat="44.07453" lon="7.02352">
        <ele>1764</ele>
        <time>2025-04-05T12:28:44Z</time>
      </trkpt>
      <trkpt lat="44.07458" lon="7.02351">
        <ele>1764</ele>
        <time>2025-04-05T12:28:48Z</time>
      </trkpt>
      <trkpt lat="44.07465" lon="7.02342">
        <ele>1766</ele>
        <time>2025-04-05T12:28:56Z</time>
      </trkpt>
      <trkpt lat="44.07473" lon="7.02338">
        <ele>1766</ele>
        <time>2025-04-05T12:29:04Z</time>
      </trkpt>
      <trkpt lat="44.07484" lon="7.02337">
        <ele>1763</ele>
        <time>2025-04-05T12:29:14Z</time>
      </trkpt>
      <trkpt lat="44.07497" lon="7.02334">
        <ele>1762</ele>
        <time>2025-04-05T12:29:32Z</time>
      </trkpt>
      <trkpt lat="44.07501" lon="7.02335">
        <ele>1762</ele>
        <time>2025-04-05T12:29:36Z</time>
      </trkpt>
      <trkpt lat="44.07509" lon="7.02335">
        <ele>1762</ele>
        <time>2025-04-05T12:29:46Z</time>
      </trkpt>
      <trkpt lat="44.07511" lon="7.02332">
        <ele>1761</ele>
        <time>2025-04-05T12:29:50Z</time>
      </trkpt>
      <trkpt lat="44.07514" lon="7.0233">
        <ele>1761</ele>
        <time>2025-04-05T12:29:54Z</time>
      </trkpt>
      <trkpt lat="44.07523" lon="7.02317">
        <ele>1759</ele>
        <time>2025-04-05T12:30:08Z</time>
      </trkpt>
      <trkpt lat="44.07528" lon="7.0231">
        <ele>1758</ele>
        <time>2025-04-05T12:30:16Z</time>
      </trkpt>
      <trkpt lat="44.07533" lon="7.0231">
        <ele>1759</ele>
        <time>2025-04-05T12:30:20Z</time>
      </trkpt>
      <trkpt lat="44.07537" lon="7.02307">
        <ele>1759</ele>
        <time>2025-04-05T12:30:24Z</time>
      </trkpt>
      <trkpt lat="44.07539" lon="7.02302">
        <ele>1759</ele>
        <time>2025-04-05T12:30:28Z</time>
      </trkpt>
      <trkpt lat="44.07543" lon="7.02298">
        <ele>1758</ele>
        <time>2025-04-05T12:30:32Z</time>
      </trkpt>
      <trkpt lat="44.07556" lon="7.02293">
        <ele>1758</ele>
        <time>2025-04-05T12:30:44Z</time>
      </trkpt>
      <trkpt lat="44.07564" lon="7.02288">
        <ele>1758</ele>
        <time>2025-04-05T12:30:52Z</time>
      </trkpt>
      <trkpt lat="44.07571" lon="7.02287">
        <ele>1757</ele>
        <time>2025-04-05T12:30:56Z</time>
      </trkpt>
      <trkpt lat="44.07583" lon="7.02282">
        <ele>1759</ele>
        <time>2025-04-05T12:31:06Z</time>
      </trkpt>
      <trkpt lat="44.07585" lon="7.02278">
        <ele>1760</ele>
        <time>2025-04-05T12:31:10Z</time>
      </trkpt>
      <trkpt lat="44.07616" lon="7.02255">
        <ele>1762</ele>
        <time>2025-04-05T12:31:38Z</time>
      </trkpt>
      <trkpt lat="44.0762" lon="7.02252">
        <ele>1762</ele>
        <time>2025-04-05T12:31:42Z</time>
      </trkpt>
      <trkpt lat="44.07624" lon="7.02248">
        <ele>1762</ele>
        <time>2025-04-05T12:31:46Z</time>
      </trkpt>
      <trkpt lat="44.07628" lon="7.02245">
        <ele>1762</ele>
        <time>2025-04-05T12:31:50Z</time>
      </trkpt>
      <trkpt lat="44.07638" lon="7.02232">
        <ele>1763</ele>
        <time>2025-04-05T12:32:02Z</time>
      </trkpt>
      <trkpt lat="44.0764" lon="7.02225">
        <ele>1765</ele>
        <time>2025-04-05T12:32:06Z</time>
      </trkpt>
      <trkpt lat="44.07643" lon="7.02222">
        <ele>1765</ele>
        <time>2025-04-05T12:32:10Z</time>
      </trkpt>
      <trkpt lat="44.07651" lon="7.02214">
        <ele>1765</ele>
        <time>2025-04-05T12:32:18Z</time>
      </trkpt>
      <trkpt lat="44.07655" lon="7.02206">
        <ele>1765</ele>
        <time>2025-04-05T12:32:24Z</time>
      </trkpt>
      <trkpt lat="44.07658" lon="7.02204">
        <ele>1764</ele>
        <time>2025-04-05T12:32:28Z</time>
      </trkpt>
      <trkpt lat="44.07661" lon="7.02199">
        <ele>1764</ele>
        <time>2025-04-05T12:32:32Z</time>
      </trkpt>
      <trkpt lat="44.07664" lon="7.02195">
        <ele>1764</ele>
        <time>2025-04-05T12:32:36Z</time>
      </trkpt>
      <trkpt lat="44.07668" lon="7.02191">
        <ele>1763</ele>
        <time>2025-04-05T12:32:40Z</time>
      </trkpt>
      <trkpt lat="44.07668" lon="7.02184">
        <ele>1763</ele>
        <time>2025-04-05T12:32:44Z</time>
      </trkpt>
      <trkpt lat="44.07672" lon="7.02179">
        <ele>1763</ele>
        <time>2025-04-05T12:32:48Z</time>
      </trkpt>
      <trkpt lat="44.07674" lon="7.02175">
        <ele>1762</ele>
        <time>2025-04-05T12:32:52Z</time>
      </trkpt>
      <trkpt lat="44.07677" lon="7.02159">
        <ele>1765</ele>
        <time>2025-04-05T12:33:02Z</time>
      </trkpt>
      <trkpt lat="44.07679" lon="7.02156">
        <ele>1765</ele>
        <time>2025-04-05T12:33:06Z</time>
      </trkpt>
      <trkpt lat="44.07683" lon="7.02153">
        <ele>1765</ele>
        <time>2025-04-05T12:33:10Z</time>
      </trkpt>
      <trkpt lat="44.07686" lon="7.02149">
        <ele>1764</ele>
        <time>2025-04-05T12:33:14Z</time>
      </trkpt>
      <trkpt lat="44.07688" lon="7.02143">
        <ele>1763</ele>
        <time>2025-04-05T12:33:18Z</time>
      </trkpt>
      <trkpt lat="44.07689" lon="7.02137">
        <ele>1763</ele>
        <time>2025-04-05T12:33:22Z</time>
      </trkpt>
      <trkpt lat="44.0769" lon="7.02132">
        <ele>1763</ele>
        <time>2025-04-05T12:33:26Z</time>
      </trkpt>
      <trkpt lat="44.07695" lon="7.02121">
        <ele>1763</ele>
        <time>2025-04-05T12:33:34Z</time>
      </trkpt>
      <trkpt lat="44.07697" lon="7.02115">
        <ele>1764</ele>
        <time>2025-04-05T12:33:38Z</time>
      </trkpt>
      <trkpt lat="44.07699" lon="7.02111">
        <ele>1764</ele>
        <time>2025-04-05T12:33:42Z</time>
      </trkpt>
      <trkpt lat="44.07705" lon="7.02095">
        <ele>1765</ele>
        <time>2025-04-05T12:33:54Z</time>
      </trkpt>
      <trkpt lat="44.07707" lon="7.0209">
        <ele>1765</ele>
        <time>2025-04-05T12:33:58Z</time>
      </trkpt>
      <trkpt lat="44.07714" lon="7.02081">
        <ele>1763</ele>
        <time>2025-04-05T12:34:06Z</time>
      </trkpt>
      <trkpt lat="44.07715" lon="7.02075">
        <ele>1763</ele>
        <time>2025-04-05T12:34:10Z</time>
      </trkpt>
      <trkpt lat="44.07722" lon="7.02062">
        <ele>1762</ele>
        <time>2025-04-05T12:34:22Z</time>
      </trkpt>
      <trkpt lat="44.07729" lon="7.0205">
        <ele>1761</ele>
        <time>2025-04-05T12:34:32Z</time>
      </trkpt>
      <trkpt lat="44.07733" lon="7.02047">
        <ele>1760</ele>
        <time>2025-04-05T12:34:36Z</time>
      </trkpt>
      <trkpt lat="44.07747" lon="7.02041">
        <ele>1759</ele>
        <time>2025-04-05T12:34:50Z</time>
      </trkpt>
      <trkpt lat="44.0775" lon="7.02041">
        <ele>1757</ele>
        <time>2025-04-05T12:35:04Z</time>
      </trkpt>
      <trkpt lat="44.07754" lon="7.02042">
        <ele>1756</ele>
        <time>2025-04-05T12:35:08Z</time>
      </trkpt>
      <trkpt lat="44.0776" lon="7.02037">
        <ele>1756</ele>
        <time>2025-04-05T12:35:14Z</time>
      </trkpt>
      <trkpt lat="44.07763" lon="7.02035">
        <ele>1756</ele>
        <time>2025-04-05T12:35:18Z</time>
      </trkpt>
      <trkpt lat="44.07776" lon="7.02034">
        <ele>1754</ele>
        <time>2025-04-05T12:35:40Z</time>
      </trkpt>
      <trkpt lat="44.07789" lon="7.02034">
        <ele>1753</ele>
        <time>2025-04-05T12:35:54Z</time>
      </trkpt>
      <trkpt lat="44.07794" lon="7.02031">
        <ele>1751</ele>
        <time>2025-04-05T12:35:58Z</time>
      </trkpt>
      <trkpt lat="44.07801" lon="7.02031">
        <ele>1748</ele>
        <time>2025-04-05T12:36:02Z</time>
      </trkpt>
      <trkpt lat="44.07803" lon="7.02033">
        <ele>1747</ele>
        <time>2025-04-05T12:36:04Z</time>
      </trkpt>
      <trkpt lat="44.07812" lon="7.02041">
        <ele>1744</ele>
        <time>2025-04-05T12:36:12Z</time>
      </trkpt>
      <trkpt lat="44.07817" lon="7.02044">
        <ele>1744</ele>
        <time>2025-04-05T12:36:16Z</time>
      </trkpt>
      <trkpt lat="44.07832" lon="7.02054">
        <ele>1742</ele>
        <time>2025-04-05T12:36:28Z</time>
      </trkpt>
      <trkpt lat="44.07836" lon="7.02056">
        <ele>1741</ele>
        <time>2025-04-05T12:36:32Z</time>
      </trkpt>
      <trkpt lat="44.07839" lon="7.02056">
        <ele>1741</ele>
        <time>2025-04-05T12:36:34Z</time>
      </trkpt>
      <trkpt lat="44.07844" lon="7.02061">
        <ele>1741</ele>
        <time>2025-04-05T12:36:38Z</time>
      </trkpt>
      <trkpt lat="44.07846" lon="7.02064">
        <ele>1740</ele>
        <time>2025-04-05T12:36:40Z</time>
      </trkpt>
      <trkpt lat="44.07853" lon="7.02071">
        <ele>1740</ele>
        <time>2025-04-05T12:36:48Z</time>
      </trkpt>
      <trkpt lat="44.07858" lon="7.02072">
        <ele>1741</ele>
        <time>2025-04-05T12:36:52Z</time>
      </trkpt>
      <trkpt lat="44.07861" lon="7.02078">
        <ele>1742</ele>
        <time>2025-04-05T12:36:56Z</time>
      </trkpt>
      <trkpt lat="44.07864" lon="7.02082">
        <ele>1743</ele>
        <time>2025-04-05T12:37:00Z</time>
      </trkpt>
      <trkpt lat="44.07871" lon="7.02083">
        <ele>1743</ele>
        <time>2025-04-05T12:37:04Z</time>
      </trkpt>
      <trkpt lat="44.07884" lon="7.02099">
        <ele>1743</ele>
        <time>2025-04-05T12:37:18Z</time>
      </trkpt>
      <trkpt lat="44.07886" lon="7.02102">
        <ele>1744</ele>
        <time>2025-04-05T12:37:24Z</time>
      </trkpt>
      <trkpt lat="44.07891" lon="7.02107">
        <ele>1745</ele>
        <time>2025-04-05T12:37:52Z</time>
      </trkpt>
      <trkpt lat="44.07895" lon="7.02111">
        <ele>1746</ele>
        <time>2025-04-05T12:37:56Z</time>
      </trkpt>
      <trkpt lat="44.07895" lon="7.02111">
        <ele>1749</ele>
        <time>2025-04-05T12:38:14Z</time>
      </trkpt>
      <trkpt lat="44.07901" lon="7.02113">
        <ele>1748</ele>
        <time>2025-04-05T12:38:22Z</time>
      </trkpt>
      <trkpt lat="44.07915" lon="7.02129">
        <ele>1736</ele>
        <time>2025-04-05T12:38:38Z</time>
      </trkpt>
      <trkpt lat="44.07919" lon="7.02135">
        <ele>1734</ele>
        <time>2025-04-05T12:38:42Z</time>
      </trkpt>
      <trkpt lat="44.07923" lon="7.02141">
        <ele>1733</ele>
        <time>2025-04-05T12:38:48Z</time>
      </trkpt>
      <trkpt lat="44.07952" lon="7.02167">
        <ele>1724</ele>
        <time>2025-04-05T12:39:20Z</time>
      </trkpt>
      <trkpt lat="44.07955" lon="7.02169">
        <ele>1725</ele>
        <time>2025-04-05T12:39:24Z</time>
      </trkpt>
      <trkpt lat="44.07965" lon="7.02182">
        <ele>1724</ele>
        <time>2025-04-05T12:39:36Z</time>
      </trkpt>
      <trkpt lat="44.07972" lon="7.02194">
        <ele>1722</ele>
        <time>2025-04-05T12:39:50Z</time>
      </trkpt>
      <trkpt lat="44.0798" lon="7.02201">
        <ele>1720</ele>
        <time>2025-04-05T12:40:00Z</time>
      </trkpt>
      <trkpt lat="44.08003" lon="7.02226">
        <ele>1716</ele>
        <time>2025-04-05T12:40:30Z</time>
      </trkpt>
      <trkpt lat="44.08006" lon="7.0223">
        <ele>1716</ele>
        <time>2025-04-05T12:40:34Z</time>
      </trkpt>
      <trkpt lat="44.08026" lon="7.02251">
        <ele>1712</ele>
        <time>2025-04-05T12:41:04Z</time>
      </trkpt>
      <trkpt lat="44.08046" lon="7.02275">
        <ele>1709</ele>
        <time>2025-04-05T12:41:26Z</time>
      </trkpt>
      <trkpt lat="44.08048" lon="7.02279">
        <ele>1708</ele>
        <time>2025-04-05T12:41:28Z</time>
      </trkpt>
      <trkpt lat="44.08054" lon="7.02287">
        <ele>1705</ele>
        <time>2025-04-05T12:41:40Z</time>
      </trkpt>
      <trkpt lat="44.08057" lon="7.02289">
        <ele>1705</ele>
        <time>2025-04-05T12:41:46Z</time>
      </trkpt>
      <trkpt lat="44.08061" lon="7.0229">
        <ele>1703</ele>
        <time>2025-04-05T12:41:54Z</time>
      </trkpt>
      <trkpt lat="44.08065" lon="7.02293">
        <ele>1701</ele>
        <time>2025-04-05T12:42:00Z</time>
      </trkpt>
      <trkpt lat="44.08074" lon="7.02293">
        <ele>1699</ele>
        <time>2025-04-05T12:42:10Z</time>
      </trkpt>
      <trkpt lat="44.0808" lon="7.02293">
        <ele>1699</ele>
        <time>2025-04-05T12:42:16Z</time>
      </trkpt>
      <trkpt lat="44.08087" lon="7.02296">
        <ele>1699</ele>
        <time>2025-04-05T12:42:20Z</time>
      </trkpt>
      <trkpt lat="44.0809" lon="7.02296">
        <ele>1699</ele>
        <time>2025-04-05T12:42:24Z</time>
      </trkpt>
      <trkpt lat="44.08094" lon="7.02295">
        <ele>1698</ele>
        <time>2025-04-05T12:42:28Z</time>
      </trkpt>
      <trkpt lat="44.08094" lon="7.02299">
        <ele>1696</ele>
        <time>2025-04-05T12:42:54Z</time>
      </trkpt>
      <trkpt lat="44.08094" lon="7.02298">
        <ele>1695</ele>
        <time>2025-04-05T12:44:38Z</time>
      </trkpt>
      <trkpt lat="44.08097" lon="7.02297">
        <ele>1696</ele>
        <time>2025-04-05T12:45:26Z</time>
      </trkpt>
      <trkpt lat="44.081" lon="7.02297">
        <ele>1698</ele>
        <time>2025-04-05T12:48:02Z</time>
      </trkpt>
      <trkpt lat="44.081" lon="7.02301">
        <ele>1699</ele>
        <time>2025-04-05T12:48:18Z</time>
      </trkpt>
      <trkpt lat="44.08102" lon="7.02307">
        <ele>1699</ele>
        <time>2025-04-05T12:48:22Z</time>
      </trkpt>
      <trkpt lat="44.08103" lon="7.02312">
        <ele>1698</ele>
        <time>2025-04-05T12:48:26Z</time>
      </trkpt>
      <trkpt lat="44.08105" lon="7.02315">
        <ele>1697</ele>
        <time>2025-04-05T12:48:30Z</time>
      </trkpt>
      <trkpt lat="44.08114" lon="7.02321">
        <ele>1697</ele>
        <time>2025-04-05T12:48:38Z</time>
      </trkpt>
      <trkpt lat="44.08115" lon="7.02327">
        <ele>1696</ele>
        <time>2025-04-05T12:48:42Z</time>
      </trkpt>
      <trkpt lat="44.08115" lon="7.02331">
        <ele>1697</ele>
        <time>2025-04-05T12:48:46Z</time>
      </trkpt>
      <trkpt lat="44.08118" lon="7.02335">
        <ele>1696</ele>
        <time>2025-04-05T12:48:50Z</time>
      </trkpt>
      <trkpt lat="44.08127" lon="7.02351">
        <ele>1696</ele>
        <time>2025-04-05T12:49:02Z</time>
      </trkpt>
      <trkpt lat="44.08129" lon="7.02354">
        <ele>1696</ele>
        <time>2025-04-05T12:49:04Z</time>
      </trkpt>
      <trkpt lat="44.08138" lon="7.02372">
        <ele>1694</ele>
        <time>2025-04-05T12:49:18Z</time>
      </trkpt>
      <trkpt lat="44.08138" lon="7.02378">
        <ele>1694</ele>
        <time>2025-04-05T12:49:22Z</time>
      </trkpt>
      <trkpt lat="44.08141" lon="7.02385">
        <ele>1694</ele>
        <time>2025-04-05T12:49:26Z</time>
      </trkpt>
      <trkpt lat="44.08159" lon="7.0242">
        <ele>1691</ele>
        <time>2025-04-05T12:49:52Z</time>
      </trkpt>
      <trkpt lat="44.08163" lon="7.02431">
        <ele>1691</ele>
        <time>2025-04-05T12:50:00Z</time>
      </trkpt>
      <trkpt lat="44.0817" lon="7.02441">
        <ele>1690</ele>
        <time>2025-04-05T12:50:08Z</time>
      </trkpt>
      <trkpt lat="44.08174" lon="7.02447">
        <ele>1692</ele>
        <time>2025-04-05T12:50:12Z</time>
      </trkpt>
      <trkpt lat="44.08176" lon="7.02458">
        <ele>1695</ele>
        <time>2025-04-05T12:50:18Z</time>
      </trkpt>
      <trkpt lat="44.0818" lon="7.02465">
        <ele>1693</ele>
        <time>2025-04-05T12:50:24Z</time>
      </trkpt>
      <trkpt lat="44.08184" lon="7.02469">
        <ele>1693</ele>
        <time>2025-04-05T12:50:28Z</time>
      </trkpt>
      <trkpt lat="44.0819" lon="7.02477">
        <ele>1693</ele>
        <time>2025-04-05T12:50:34Z</time>
      </trkpt>
      <trkpt lat="44.08192" lon="7.02484">
        <ele>1695</ele>
        <time>2025-04-05T12:50:38Z</time>
      </trkpt>
      <trkpt lat="44.082" lon="7.02493">
        <ele>1693</ele>
        <time>2025-04-05T12:50:48Z</time>
      </trkpt>
      <trkpt lat="44.08202" lon="7.02498">
        <ele>1693</ele>
        <time>2025-04-05T12:50:50Z</time>
      </trkpt>
      <trkpt lat="44.08207" lon="7.02511">
        <ele>1694</ele>
        <time>2025-04-05T12:51:00Z</time>
      </trkpt>
      <trkpt lat="44.08214" lon="7.02523">
        <ele>1696</ele>
        <time>2025-04-05T12:51:10Z</time>
      </trkpt>
      <trkpt lat="44.08219" lon="7.0253">
        <ele>1696</ele>
        <time>2025-04-05T12:51:16Z</time>
      </trkpt>
      <trkpt lat="44.08223" lon="7.02533">
        <ele>1694</ele>
        <time>2025-04-05T12:51:20Z</time>
      </trkpt>
      <trkpt lat="44.08239" lon="7.02546">
        <ele>1694</ele>
        <time>2025-04-05T12:51:36Z</time>
      </trkpt>
      <trkpt lat="44.08241" lon="7.02549">
        <ele>1696</ele>
        <time>2025-04-05T12:51:40Z</time>
      </trkpt>
      <trkpt lat="44.08254" lon="7.02566">
        <ele>1696</ele>
        <time>2025-04-05T12:51:56Z</time>
      </trkpt>
      <trkpt lat="44.08257" lon="7.02571">
        <ele>1697</ele>
        <time>2025-04-05T12:52:02Z</time>
      </trkpt>
      <trkpt lat="44.08261" lon="7.02575">
        <ele>1696</ele>
        <time>2025-04-05T12:52:06Z</time>
      </trkpt>
      <trkpt lat="44.08271" lon="7.02588">
        <ele>1695</ele>
        <time>2025-04-05T12:52:22Z</time>
      </trkpt>
      <trkpt lat="44.08297" lon="7.02611">
        <ele>1695</ele>
        <time>2025-04-05T12:52:52Z</time>
      </trkpt>
      <trkpt lat="44.08308" lon="7.02612">
        <ele>1694</ele>
        <time>2025-04-05T12:53:04Z</time>
      </trkpt>
      <trkpt lat="44.08317" lon="7.02618">
        <ele>1695</ele>
        <time>2025-04-05T12:53:14Z</time>
      </trkpt>
      <trkpt lat="44.08325" lon="7.02617">
        <ele>1697</ele>
        <time>2025-04-05T12:53:22Z</time>
      </trkpt>
      <trkpt lat="44.0833" lon="7.02616">
        <ele>1697</ele>
        <time>2025-04-05T12:53:26Z</time>
      </trkpt>
      <trkpt lat="44.08335" lon="7.02615">
        <ele>1697</ele>
        <time>2025-04-05T12:53:30Z</time>
      </trkpt>
      <trkpt lat="44.08338" lon="7.02612">
        <ele>1697</ele>
        <time>2025-04-05T12:53:34Z</time>
      </trkpt>
      <trkpt lat="44.08341" lon="7.0261">
        <ele>1698</ele>
        <time>2025-04-05T12:53:40Z</time>
      </trkpt>
      <trkpt lat="44.08344" lon="7.02607">
        <ele>1699</ele>
        <time>2025-04-05T12:53:44Z</time>
      </trkpt>
      <trkpt lat="44.08347" lon="7.02606">
        <ele>1702</ele>
        <time>2025-04-05T12:53:48Z</time>
      </trkpt>
      <trkpt lat="44.08353" lon="7.02609">
        <ele>1702</ele>
        <time>2025-04-05T12:53:52Z</time>
      </trkpt>
      <trkpt lat="44.08356" lon="7.02609">
        <ele>1701</ele>
        <time>2025-04-05T12:53:54Z</time>
      </trkpt>
      <trkpt lat="44.08361" lon="7.02607">
        <ele>1699</ele>
        <time>2025-04-05T12:53:58Z</time>
      </trkpt>
      <trkpt lat="44.08365" lon="7.02608">
        <ele>1698</ele>
        <time>2025-04-05T12:54:02Z</time>
      </trkpt>
      <trkpt lat="44.08369" lon="7.02606">
        <ele>1699</ele>
        <time>2025-04-05T12:54:06Z</time>
      </trkpt>
      <trkpt lat="44.08374" lon="7.02605">
        <ele>1701</ele>
        <time>2025-04-05T12:54:10Z</time>
      </trkpt>
      <trkpt lat="44.08378" lon="7.02603">
        <ele>1702</ele>
        <time>2025-04-05T12:54:14Z</time>
      </trkpt>
      <trkpt lat="44.08385" lon="7.02599">
        <ele>1708</ele>
        <time>2025-04-05T12:54:24Z</time>
      </trkpt>
      <trkpt lat="44.08387" lon="7.02593">
        <ele>1708</ele>
        <time>2025-04-05T12:54:28Z</time>
      </trkpt>
      <trkpt lat="44.08396" lon="7.02592">
        <ele>1707</ele>
        <time>2025-04-05T12:54:36Z</time>
      </trkpt>
      <trkpt lat="44.08404" lon="7.02593">
        <ele>1707</ele>
        <time>2025-04-05T12:54:44Z</time>
      </trkpt>
      <trkpt lat="44.08408" lon="7.02591">
        <ele>1705</ele>
        <time>2025-04-05T12:54:48Z</time>
      </trkpt>
      <trkpt lat="44.08415" lon="7.0259">
        <ele>1703</ele>
        <time>2025-04-05T12:54:56Z</time>
      </trkpt>
      <trkpt lat="44.08428" lon="7.02587">
        <ele>1704</ele>
        <time>2025-04-05T12:55:08Z</time>
      </trkpt>
      <trkpt lat="44.08431" lon="7.02588">
        <ele>1705</ele>
        <time>2025-04-05T12:55:10Z</time>
      </trkpt>
      <trkpt lat="44.08435" lon="7.02588">
        <ele>1706</ele>
        <time>2025-04-05T12:55:14Z</time>
      </trkpt>
      <trkpt lat="44.08444" lon="7.02586">
        <ele>1705</ele>
        <time>2025-04-05T12:55:24Z</time>
      </trkpt>
      <trkpt lat="44.08447" lon="7.02585">
        <ele>1706</ele>
        <time>2025-04-05T12:55:28Z</time>
      </trkpt>
      <trkpt lat="44.0845" lon="7.02581">
        <ele>1705</ele>
        <time>2025-04-05T12:55:32Z</time>
      </trkpt>
      <trkpt lat="44.08454" lon="7.02579">
        <ele>1704</ele>
        <time>2025-04-05T12:55:36Z</time>
      </trkpt>
      <trkpt lat="44.08465" lon="7.02567">
        <ele>1705</ele>
        <time>2025-04-05T12:55:52Z</time>
      </trkpt>
      <trkpt lat="44.08466" lon="7.02563">
        <ele>1707</ele>
        <time>2025-04-05T12:55:56Z</time>
      </trkpt>
      <trkpt lat="44.08496" lon="7.02542">
        <ele>1715</ele>
        <time>2025-04-05T12:56:28Z</time>
      </trkpt>
      <trkpt lat="44.08499" lon="7.02541">
        <ele>1714</ele>
        <time>2025-04-05T12:56:32Z</time>
      </trkpt>
      <trkpt lat="44.08503" lon="7.0254">
        <ele>1714</ele>
        <time>2025-04-05T12:56:36Z</time>
      </trkpt>
      <trkpt lat="44.08514" lon="7.02531">
        <ele>1714</ele>
        <time>2025-04-05T12:56:48Z</time>
      </trkpt>
      <trkpt lat="44.08517" lon="7.02526">
        <ele>1715</ele>
        <time>2025-04-05T12:56:52Z</time>
      </trkpt>
      <trkpt lat="44.08518" lon="7.0252">
        <ele>1715</ele>
        <time>2025-04-05T12:56:56Z</time>
      </trkpt>
      <trkpt lat="44.08525" lon="7.02505">
        <ele>1714</ele>
        <time>2025-04-05T12:57:10Z</time>
      </trkpt>
      <trkpt lat="44.08528" lon="7.02486">
        <ele>1714</ele>
        <time>2025-04-05T12:57:24Z</time>
      </trkpt>
      <trkpt lat="44.08527" lon="7.02481">
        <ele>1715</ele>
        <time>2025-04-05T12:57:28Z</time>
      </trkpt>
      <trkpt lat="44.08528" lon="7.02476">
        <ele>1715</ele>
        <time>2025-04-05T12:57:32Z</time>
      </trkpt>
      <trkpt lat="44.08529" lon="7.02469">
        <ele>1714</ele>
        <time>2025-04-05T12:57:36Z</time>
      </trkpt>
      <trkpt lat="44.0853" lon="7.02456">
        <ele>1712</ele>
        <time>2025-04-05T12:57:44Z</time>
      </trkpt>
      <trkpt lat="44.08529" lon="7.0245">
        <ele>1712</ele>
        <time>2025-04-05T12:57:48Z</time>
      </trkpt>
      <trkpt lat="44.08529" lon="7.02445">
        <ele>1714</ele>
        <time>2025-04-05T12:57:52Z</time>
      </trkpt>
      <trkpt lat="44.08531" lon="7.02407">
        <ele>1718</ele>
        <time>2025-04-05T12:58:22Z</time>
      </trkpt>
      <trkpt lat="44.08531" lon="7.02403">
        <ele>1718</ele>
        <time>2025-04-05T12:58:26Z</time>
      </trkpt>
      <trkpt lat="44.08532" lon="7.02399">
        <ele>1718</ele>
        <time>2025-04-05T12:58:30Z</time>
      </trkpt>
      <trkpt lat="44.08535" lon="7.02397">
        <ele>1719</ele>
        <time>2025-04-05T12:58:34Z</time>
      </trkpt>
      <trkpt lat="44.08535" lon="7.02392">
        <ele>1720</ele>
        <time>2025-04-05T12:58:48Z</time>
      </trkpt>
      <trkpt lat="44.08535" lon="7.02392">
        <ele>1715</ele>
        <time>2025-04-05T12:59:28Z</time>
      </trkpt>
      <trkpt lat="44.08532" lon="7.02387">
        <ele>1715</ele>
        <time>2025-04-05T12:59:36Z</time>
      </trkpt>
      <trkpt lat="44.08529" lon="7.02384">
        <ele>1718</ele>
        <time>2025-04-05T12:59:40Z</time>
      </trkpt>
      <trkpt lat="44.08526" lon="7.02383">
        <ele>1719</ele>
        <time>2025-04-05T12:59:44Z</time>
      </trkpt>
      <trkpt lat="44.08522" lon="7.0238">
        <ele>1721</ele>
        <time>2025-04-05T12:59:50Z</time>
      </trkpt>
      <trkpt lat="44.08515" lon="7.02375">
        <ele>1723</ele>
        <time>2025-04-05T12:59:58Z</time>
      </trkpt>
      <trkpt lat="44.08511" lon="7.02366">
        <ele>1723</ele>
        <time>2025-04-05T13:00:06Z</time>
      </trkpt>
      <trkpt lat="44.08508" lon="7.02362">
        <ele>1724</ele>
        <time>2025-04-05T13:00:10Z</time>
      </trkpt>
      <trkpt lat="44.08506" lon="7.02355">
        <ele>1725</ele>
        <time>2025-04-05T13:00:16Z</time>
      </trkpt>
      <trkpt lat="44.08505" lon="7.02351">
        <ele>1725</ele>
        <time>2025-04-05T13:00:24Z</time>
      </trkpt>
      <trkpt lat="44.08511" lon="7.02349">
        <ele>1722</ele>
        <time>2025-04-05T13:02:28Z</time>
      </trkpt>
      <trkpt lat="44.08507" lon="7.02347">
        <ele>1722</ele>
        <time>2025-04-05T13:03:04Z</time>
      </trkpt>
      <trkpt lat="44.08504" lon="7.02347">
        <ele>1721</ele>
        <time>2025-04-05T13:03:32Z</time>
      </trkpt>
      <trkpt lat="44.08505" lon="7.02351">
        <ele>1721</ele>
        <time>2025-04-05T13:03:40Z</time>
      </trkpt>
      <trkpt lat="44.08507" lon="7.02353">
        <ele>1720</ele>
        <time>2025-04-05T13:04:18Z</time>
      </trkpt>
      <trkpt lat="44.08505" lon="7.02357">
        <ele>1714</ele>
        <time>2025-04-05T13:04:32Z</time>
      </trkpt>
      <trkpt lat="44.08504" lon="7.02353">
        <ele>1713</ele>
        <time>2025-04-05T13:04:44Z</time>
      </trkpt>
      <trkpt lat="44.08508" lon="7.02351">
        <ele>1715</ele>
        <time>2025-04-05T13:05:14Z</time>
      </trkpt>
      <trkpt lat="44.08511" lon="7.02351">
        <ele>1716</ele>
        <time>2025-04-05T13:05:18Z</time>
      </trkpt>
      <trkpt lat="44.08514" lon="7.02348">
        <ele>1719</ele>
        <time>2025-04-05T13:05:24Z</time>
      </trkpt>
      <trkpt lat="44.08515" lon="7.02344">
        <ele>1719</ele>
        <time>2025-04-05T13:05:30Z</time>
      </trkpt>
      <trkpt lat="44.0852" lon="7.02342">
        <ele>1720</ele>
        <time>2025-04-05T13:05:36Z</time>
      </trkpt>
      <trkpt lat="44.08523" lon="7.02336">
        <ele>1722</ele>
        <time>2025-04-05T13:05:42Z</time>
      </trkpt>
      <trkpt lat="44.08543" lon="7.02318">
        <ele>1729</ele>
        <time>2025-04-05T13:06:16Z</time>
      </trkpt>
      <trkpt lat="44.08547" lon="7.02318">
        <ele>1728</ele>
        <time>2025-04-05T13:06:20Z</time>
      </trkpt>
      <trkpt lat="44.08553" lon="7.02318">
        <ele>1728</ele>
        <time>2025-04-05T13:06:28Z</time>
      </trkpt>
      <trkpt lat="44.08556" lon="7.02309">
        <ele>1731</ele>
        <time>2025-04-05T13:06:40Z</time>
      </trkpt>
      <trkpt lat="44.08559" lon="7.02306">
        <ele>1730</ele>
        <time>2025-04-05T13:06:46Z</time>
      </trkpt>
      <trkpt lat="44.08561" lon="7.02302">
        <ele>1730</ele>
        <time>2025-04-05T13:06:52Z</time>
      </trkpt>
      <trkpt lat="44.08568" lon="7.02298">
        <ele>1727</ele>
        <time>2025-04-05T13:07:04Z</time>
      </trkpt>
      <trkpt lat="44.0857" lon="7.02295">
        <ele>1727</ele>
        <time>2025-04-05T13:07:12Z</time>
      </trkpt>
      <trkpt lat="44.08572" lon="7.02291">
        <ele>1730</ele>
        <time>2025-04-05T13:07:20Z</time>
      </trkpt>
      <trkpt lat="44.08576" lon="7.02288">
        <ele>1733</ele>
        <time>2025-04-05T13:07:30Z</time>
      </trkpt>
      <trkpt lat="44.0858" lon="7.02291">
        <ele>1734</ele>
        <time>2025-04-05T13:07:36Z</time>
      </trkpt>
      <trkpt lat="44.08578" lon="7.02273">
        <ele>1734</ele>
        <time>2025-04-05T13:08:10Z</time>
      </trkpt>
      <trkpt lat="44.08578" lon="7.02269">
        <ele>1735</ele>
        <time>2025-04-05T13:08:16Z</time>
      </trkpt>
      <trkpt lat="44.08579" lon="7.02264">
        <ele>1736</ele>
        <time>2025-04-05T13:08:24Z</time>
      </trkpt>
      <trkpt lat="44.08578" lon="7.02258">
        <ele>1736</ele>
        <time>2025-04-05T13:08:30Z</time>
      </trkpt>
      <trkpt lat="44.0858" lon="7.02254">
        <ele>1738</ele>
        <time>2025-04-05T13:08:54Z</time>
      </trkpt>
      <trkpt lat="44.08581" lon="7.02244">
        <ele>1741</ele>
        <time>2025-04-05T13:09:08Z</time>
      </trkpt>
      <trkpt lat="44.08584" lon="7.02246">
        <ele>1741</ele>
        <time>2025-04-05T13:09:16Z</time>
      </trkpt>
      <trkpt lat="44.08588" lon="7.02249">
        <ele>1742</ele>
        <time>2025-04-05T13:09:22Z</time>
      </trkpt>
      <trkpt lat="44.08592" lon="7.02251">
        <ele>1743</ele>
        <time>2025-04-05T13:09:30Z</time>
      </trkpt>
      <trkpt lat="44.08595" lon="7.0225">
        <ele>1745</ele>
        <time>2025-04-05T13:09:56Z</time>
      </trkpt>
      <trkpt lat="44.08599" lon="7.02254">
        <ele>1745</ele>
        <time>2025-04-05T13:10:02Z</time>
      </trkpt>
      <trkpt lat="44.08602" lon="7.02255">
        <ele>1746</ele>
        <time>2025-04-05T13:10:10Z</time>
      </trkpt>
      <trkpt lat="44.08605" lon="7.02255">
        <ele>1748</ele>
        <time>2025-04-05T13:10:20Z</time>
      </trkpt>
      <trkpt lat="44.08607" lon="7.02252">
        <ele>1750</ele>
        <time>2025-04-05T13:10:58Z</time>
      </trkpt>
      <trkpt lat="44.08612" lon="7.0225">
        <ele>1751</ele>
        <time>2025-04-05T13:11:04Z</time>
      </trkpt>
      <trkpt lat="44.08613" lon="7.02246">
        <ele>1751</ele>
        <time>2025-04-05T13:11:18Z</time>
      </trkpt>
      <trkpt lat="44.08613" lon="7.02234">
        <ele>1753</ele>
        <time>2025-04-05T13:11:36Z</time>
      </trkpt>
      <trkpt lat="44.08614" lon="7.02231">
        <ele>1754</ele>
        <time>2025-04-05T13:11:42Z</time>
      </trkpt>
      <trkpt lat="44.08616" lon="7.02235">
        <ele>1754</ele>
        <time>2025-04-05T13:11:46Z</time>
      </trkpt>
      <trkpt lat="44.08619" lon="7.02231">
        <ele>1758</ele>
        <time>2025-04-05T13:12:10Z</time>
      </trkpt>
      <trkpt lat="44.08621" lon="7.02229">
        <ele>1759</ele>
        <time>2025-04-05T13:12:16Z</time>
      </trkpt>
      <trkpt lat="44.08625" lon="7.02231">
        <ele>1759</ele>
        <time>2025-04-05T13:12:24Z</time>
      </trkpt>
      <trkpt lat="44.08627" lon="7.02228">
        <ele>1759</ele>
        <time>2025-04-05T13:12:32Z</time>
      </trkpt>
      <trkpt lat="44.0863" lon="7.0223">
        <ele>1759</ele>
        <time>2025-04-05T13:12:42Z</time>
      </trkpt>
      <trkpt lat="44.08636" lon="7.0223">
        <ele>1757</ele>
        <time>2025-04-05T13:12:58Z</time>
      </trkpt>
      <trkpt lat="44.08636" lon="7.02224">
        <ele>1757</ele>
        <time>2025-04-05T13:13:06Z</time>
      </trkpt>
      <trkpt lat="44.08637" lon="7.0222">
        <ele>1759</ele>
        <time>2025-04-05T13:13:12Z</time>
      </trkpt>
      <trkpt lat="44.08637" lon="7.02216">
        <ele>1760</ele>
        <time>2025-04-05T13:13:16Z</time>
      </trkpt>
      <trkpt lat="44.08641" lon="7.02218">
        <ele>1763</ele>
        <time>2025-04-05T13:13:42Z</time>
      </trkpt>
      <trkpt lat="44.08645" lon="7.0222">
        <ele>1764</ele>
        <time>2025-04-05T13:13:48Z</time>
      </trkpt>
      <trkpt lat="44.08649" lon="7.02221">
        <ele>1766</ele>
        <time>2025-04-05T13:13:54Z</time>
      </trkpt>
      <trkpt lat="44.08652" lon="7.02225">
        <ele>1766</ele>
        <time>2025-04-05T13:14:04Z</time>
      </trkpt>
      <trkpt lat="44.08654" lon="7.02221">
        <ele>1766</ele>
        <time>2025-04-05T13:14:12Z</time>
      </trkpt>
      <trkpt lat="44.08656" lon="7.02218">
        <ele>1767</ele>
        <time>2025-04-05T13:14:18Z</time>
      </trkpt>
      <trkpt lat="44.08655" lon="7.02213">
        <ele>1767</ele>
        <time>2025-04-05T13:14:38Z</time>
      </trkpt>
      <trkpt lat="44.08656" lon="7.02209">
        <ele>1766</ele>
        <time>2025-04-05T13:14:42Z</time>
      </trkpt>
      <trkpt lat="44.08658" lon="7.02205">
        <ele>1766</ele>
        <time>2025-04-05T13:14:46Z</time>
      </trkpt>
      <trkpt lat="44.08658" lon="7.02201">
        <ele>1766</ele>
        <time>2025-04-05T13:14:52Z</time>
      </trkpt>
      <trkpt lat="44.08666" lon="7.0219">
        <ele>1768</ele>
        <time>2025-04-05T13:15:10Z</time>
      </trkpt>
      <trkpt lat="44.08666" lon="7.0218">
        <ele>1771</ele>
        <time>2025-04-05T13:15:20Z</time>
      </trkpt>
      <trkpt lat="44.08669" lon="7.02177">
        <ele>1775</ele>
        <time>2025-04-05T13:15:40Z</time>
      </trkpt>
      <trkpt lat="44.08671" lon="7.02175">
        <ele>1776</ele>
        <time>2025-04-05T13:15:46Z</time>
      </trkpt>
      <trkpt lat="44.08675" lon="7.02174">
        <ele>1777</ele>
        <time>2025-04-05T13:15:52Z</time>
      </trkpt>
      <trkpt lat="44.08678" lon="7.0217">
        <ele>1781</ele>
        <time>2025-04-05T13:16:18Z</time>
      </trkpt>
      <trkpt lat="44.0868" lon="7.02166">
        <ele>1781</ele>
        <time>2025-04-05T13:16:22Z</time>
      </trkpt>
      <trkpt lat="44.08682" lon="7.02162">
        <ele>1780</ele>
        <time>2025-04-05T13:16:28Z</time>
      </trkpt>
      <trkpt lat="44.08689" lon="7.02166">
        <ele>1781</ele>
        <time>2025-04-05T13:16:42Z</time>
      </trkpt>
      <trkpt lat="44.08694" lon="7.02166">
        <ele>1783</ele>
        <time>2025-04-05T13:16:48Z</time>
      </trkpt>
      <trkpt lat="44.08696" lon="7.02163">
        <ele>1782</ele>
        <time>2025-04-05T13:16:54Z</time>
      </trkpt>
      <trkpt lat="44.08699" lon="7.02161">
        <ele>1781</ele>
        <time>2025-04-05T13:17:00Z</time>
      </trkpt>
      <trkpt lat="44.08702" lon="7.02163">
        <ele>1782</ele>
        <time>2025-04-05T13:17:04Z</time>
      </trkpt>
      <trkpt lat="44.08705" lon="7.02162">
        <ele>1782</ele>
        <time>2025-04-05T13:17:08Z</time>
      </trkpt>
      <trkpt lat="44.08703" lon="7.02159">
        <ele>1785</ele>
        <time>2025-04-05T13:17:34Z</time>
      </trkpt>
      <trkpt lat="44.08704" lon="7.02154">
        <ele>1787</ele>
        <time>2025-04-05T13:17:52Z</time>
      </trkpt>
      <trkpt lat="44.08707" lon="7.02153">
        <ele>1788</ele>
        <time>2025-04-05T13:17:56Z</time>
      </trkpt>
      <trkpt lat="44.08711" lon="7.02154">
        <ele>1790</ele>
        <time>2025-04-05T13:18:00Z</time>
      </trkpt>
      <trkpt lat="44.08715" lon="7.02153">
        <ele>1790</ele>
        <time>2025-04-05T13:18:04Z</time>
      </trkpt>
      <trkpt lat="44.08722" lon="7.0215">
        <ele>1791</ele>
        <time>2025-04-05T13:18:14Z</time>
      </trkpt>
      <trkpt lat="44.08728" lon="7.02146">
        <ele>1793</ele>
        <time>2025-04-05T13:18:22Z</time>
      </trkpt>
      <trkpt lat="44.0873" lon="7.02143">
        <ele>1794</ele>
        <time>2025-04-05T13:18:26Z</time>
      </trkpt>
      <trkpt lat="44.08743" lon="7.02129">
        <ele>1796</ele>
        <time>2025-04-05T13:18:44Z</time>
      </trkpt>
      <trkpt lat="44.08744" lon="7.02125">
        <ele>1797</ele>
        <time>2025-04-05T13:18:48Z</time>
      </trkpt>
      <trkpt lat="44.0875" lon="7.02117">
        <ele>1797</ele>
        <time>2025-04-05T13:18:58Z</time>
      </trkpt>
      <trkpt lat="44.08752" lon="7.02114">
        <ele>1797</ele>
        <time>2025-04-05T13:19:02Z</time>
      </trkpt>
      <trkpt lat="44.08754" lon="7.0211">
        <ele>1797</ele>
        <time>2025-04-05T13:19:06Z</time>
      </trkpt>
      <trkpt lat="44.08764" lon="7.02097">
        <ele>1799</ele>
        <time>2025-04-05T13:19:20Z</time>
      </trkpt>
      <trkpt lat="44.08766" lon="7.02094">
        <ele>1799</ele>
        <time>2025-04-05T13:19:26Z</time>
      </trkpt>
      <trkpt lat="44.08771" lon="7.02086">
        <ele>1801</ele>
        <time>2025-04-05T13:19:36Z</time>
      </trkpt>
      <trkpt lat="44.08777" lon="7.02082">
        <ele>1801</ele>
        <time>2025-04-05T13:19:44Z</time>
      </trkpt>
      <trkpt lat="44.08779" lon="7.02078">
        <ele>1801</ele>
        <time>2025-04-05T13:19:58Z</time>
      </trkpt>
      <trkpt lat="44.08781" lon="7.02075">
        <ele>1802</ele>
        <time>2025-04-05T13:20:02Z</time>
      </trkpt>
      <trkpt lat="44.08785" lon="7.02076">
        <ele>1802</ele>
        <time>2025-04-05T13:20:06Z</time>
      </trkpt>
      <trkpt lat="44.08788" lon="7.02074">
        <ele>1802</ele>
        <time>2025-04-05T13:20:10Z</time>
      </trkpt>
      <trkpt lat="44.08791" lon="7.02064">
        <ele>1805</ele>
        <time>2025-04-05T13:20:20Z</time>
      </trkpt>
      <trkpt lat="44.08794" lon="7.02061">
        <ele>1807</ele>
        <time>2025-04-05T13:20:24Z</time>
      </trkpt>
      <trkpt lat="44.088" lon="7.02056">
        <ele>1806</ele>
        <time>2025-04-05T13:20:34Z</time>
      </trkpt>
      <trkpt lat="44.08798" lon="7.02053">
        <ele>1808</ele>
        <time>2025-04-05T13:20:48Z</time>
      </trkpt>
      <trkpt lat="44.08802" lon="7.02052">
        <ele>1808</ele>
        <time>2025-04-05T13:20:54Z</time>
      </trkpt>
      <trkpt lat="44.08804" lon="7.02048">
        <ele>1809</ele>
        <time>2025-04-05T13:20:58Z</time>
      </trkpt>
      <trkpt lat="44.08816" lon="7.02046">
        <ele>1811</ele>
        <time>2025-04-05T13:21:10Z</time>
      </trkpt>
      <trkpt lat="44.0882" lon="7.02044">
        <ele>1811</ele>
        <time>2025-04-05T13:21:14Z</time>
      </trkpt>
      <trkpt lat="44.08827" lon="7.02036">
        <ele>1811</ele>
        <time>2025-04-05T13:21:24Z</time>
      </trkpt>
      <trkpt lat="44.0883" lon="7.02034">
        <ele>1811</ele>
        <time>2025-04-05T13:21:28Z</time>
      </trkpt>
      <trkpt lat="44.08834" lon="7.02033">
        <ele>1812</ele>
        <time>2025-04-05T13:21:32Z</time>
      </trkpt>
      <trkpt lat="44.08843" lon="7.02032">
        <ele>1813</ele>
        <time>2025-04-05T13:21:42Z</time>
      </trkpt>
      <trkpt lat="44.08846" lon="7.02032">
        <ele>1813</ele>
        <time>2025-04-05T13:21:46Z</time>
      </trkpt>
      <trkpt lat="44.08853" lon="7.02031">
        <ele>1814</ele>
        <time>2025-04-05T13:21:54Z</time>
      </trkpt>
      <trkpt lat="44.0886" lon="7.02032">
        <ele>1814</ele>
        <time>2025-04-05T13:22:02Z</time>
      </trkpt>
      <trkpt lat="44.08863" lon="7.02032">
        <ele>1813</ele>
        <time>2025-04-05T13:22:06Z</time>
      </trkpt>
      <trkpt lat="44.08866" lon="7.0203">
        <ele>1813</ele>
        <time>2025-04-05T13:22:10Z</time>
      </trkpt>
      <trkpt lat="44.0887" lon="7.0203">
        <ele>1814</ele>
        <time>2025-04-05T13:22:14Z</time>
      </trkpt>
      <trkpt lat="44.08873" lon="7.02028">
        <ele>1814</ele>
        <time>2025-04-05T13:22:18Z</time>
      </trkpt>
      <trkpt lat="44.08875" lon="7.02024">
        <ele>1814</ele>
        <time>2025-04-05T13:22:22Z</time>
      </trkpt>
      <trkpt lat="44.0888" lon="7.02022">
        <ele>1814</ele>
        <time>2025-04-05T13:22:28Z</time>
      </trkpt>
      <trkpt lat="44.08891" lon="7.02019">
        <ele>1815</ele>
        <time>2025-04-05T13:22:42Z</time>
      </trkpt>
      <trkpt lat="44.08894" lon="7.02018">
        <ele>1816</ele>
        <time>2025-04-05T13:22:46Z</time>
      </trkpt>
      <trkpt lat="44.08897" lon="7.02016">
        <ele>1816</ele>
        <time>2025-04-05T13:22:50Z</time>
      </trkpt>
      <trkpt lat="44.089" lon="7.02013">
        <ele>1817</ele>
        <time>2025-04-05T13:22:56Z</time>
      </trkpt>
      <trkpt lat="44.08908" lon="7.02014">
        <ele>1818</ele>
        <time>2025-04-05T13:23:06Z</time>
      </trkpt>
      <trkpt lat="44.08911" lon="7.02016">
        <ele>1819</ele>
        <time>2025-04-05T13:23:10Z</time>
      </trkpt>
      <trkpt lat="44.08918" lon="7.02015">
        <ele>1819</ele>
        <time>2025-04-05T13:23:20Z</time>
      </trkpt>
      <trkpt lat="44.08921" lon="7.02014">
        <ele>1820</ele>
        <time>2025-04-05T13:23:24Z</time>
      </trkpt>
      <trkpt lat="44.08923" lon="7.0201">
        <ele>1820</ele>
        <time>2025-04-05T13:23:34Z</time>
      </trkpt>
      <trkpt lat="44.08927" lon="7.02006">
        <ele>1820</ele>
        <time>2025-04-05T13:23:42Z</time>
      </trkpt>
      <trkpt lat="44.0893" lon="7.02007">
        <ele>1820</ele>
        <time>2025-04-05T13:23:46Z</time>
      </trkpt>
      <trkpt lat="44.08937" lon="7.02015">
        <ele>1821</ele>
        <time>2025-04-05T13:23:56Z</time>
      </trkpt>
      <trkpt lat="44.0894" lon="7.02014">
        <ele>1822</ele>
        <time>2025-04-05T13:24:04Z</time>
      </trkpt>
      <trkpt lat="44.08942" lon="7.02011">
        <ele>1822</ele>
        <time>2025-04-05T13:24:10Z</time>
      </trkpt>
      <trkpt lat="44.08945" lon="7.02007">
        <ele>1822</ele>
        <time>2025-04-05T13:24:16Z</time>
      </trkpt>
      <trkpt lat="44.08948" lon="7.02006">
        <ele>1822</ele>
        <time>2025-04-05T13:24:28Z</time>
      </trkpt>
      <trkpt lat="44.08949" lon="7.02005">
        <ele>1825</ele>
        <time>2025-04-05T13:26:32Z</time>
      </trkpt>
      <trkpt lat="44.08952" lon="7.02004">
        <ele>1825</ele>
        <time>2025-04-05T13:26:50Z</time>
      </trkpt>
      <trkpt lat="44.08951" lon="7.02005">
        <ele>1826</ele>
        <time>2025-04-05T13:30:00Z</time>
      </trkpt>
      <trkpt lat="44.08949" lon="7.02003">
        <ele>1826</ele>
        <time>2025-04-05T13:31:12Z</time>
      </trkpt>
      <trkpt lat="44.08951" lon="7.02">
        <ele>1826</ele>
        <time>2025-04-05T13:32:32Z</time>
      </trkpt>
      <trkpt lat="44.08949" lon="7.01997">
        <ele>1825</ele>
        <time>2025-04-05T13:33:24Z</time>
      </trkpt>
      <trkpt lat="44.08945" lon="7.0199">
        <ele>1824</ele>
        <time>2025-04-05T13:33:30Z</time>
      </trkpt>
      <trkpt lat="44.08941" lon="7.01988">
        <ele>1825</ele>
        <time>2025-04-05T13:33:34Z</time>
      </trkpt>
      <trkpt lat="44.08939" lon="7.01985">
        <ele>1826</ele>
        <time>2025-04-05T13:33:38Z</time>
      </trkpt>
      <trkpt lat="44.08936" lon="7.01984">
        <ele>1826</ele>
        <time>2025-04-05T13:33:44Z</time>
      </trkpt>
      <trkpt lat="44.08931" lon="7.01976">
        <ele>1826</ele>
        <time>2025-04-05T13:33:50Z</time>
      </trkpt>
      <trkpt lat="44.08928" lon="7.01973">
        <ele>1825</ele>
        <time>2025-04-05T13:33:54Z</time>
      </trkpt>
      <trkpt lat="44.08925" lon="7.01964">
        <ele>1824</ele>
        <time>2025-04-05T13:34:06Z</time>
      </trkpt>
      <trkpt lat="44.08921" lon="7.01962">
        <ele>1823</ele>
        <time>2025-04-05T13:34:12Z</time>
      </trkpt>
      <trkpt lat="44.08916" lon="7.01959">
        <ele>1821</ele>
        <time>2025-04-05T13:34:20Z</time>
      </trkpt>
      <trkpt lat="44.08907" lon="7.01951">
        <ele>1818</ele>
        <time>2025-04-05T13:34:32Z</time>
      </trkpt>
      <trkpt lat="44.08907" lon="7.01951">
        <ele>1815</ele>
        <time>2025-04-05T13:36:14Z</time>
      </trkpt>
      <trkpt lat="44.08902" lon="7.01952">
        <ele>1815</ele>
        <time>2025-04-05T13:37:52Z</time>
      </trkpt>
      <trkpt lat="44.08905" lon="7.01948">
        <ele>1815</ele>
        <time>2025-04-05T13:39:34Z</time>
      </trkpt>
      <trkpt lat="44.0891" lon="7.01937">
        <ele>1815</ele>
        <time>2025-04-05T13:39:42Z</time>
      </trkpt>
      <trkpt lat="44.08911" lon="7.01933">
        <ele>1815</ele>
        <time>2025-04-05T13:39:46Z</time>
      </trkpt>
      <trkpt lat="44.08911" lon="7.01928">
        <ele>1816</ele>
        <time>2025-04-05T13:39:50Z</time>
      </trkpt>
      <trkpt lat="44.08912" lon="7.0192">
        <ele>1815</ele>
        <time>2025-04-05T13:39:58Z</time>
      </trkpt>
      <trkpt lat="44.08912" lon="7.01908">
        <ele>1816</ele>
        <time>2025-04-05T13:40:22Z</time>
      </trkpt>
      <trkpt lat="44.08909" lon="7.01899">
        <ele>1814</ele>
        <time>2025-04-05T13:40:30Z</time>
      </trkpt>
      <trkpt lat="44.08907" lon="7.01895">
        <ele>1814</ele>
        <time>2025-04-05T13:40:36Z</time>
      </trkpt>
      <trkpt lat="44.08905" lon="7.0189">
        <ele>1814</ele>
        <time>2025-04-05T13:40:42Z</time>
      </trkpt>
      <trkpt lat="44.08902" lon="7.0188">
        <ele>1813</ele>
        <time>2025-04-05T13:40:50Z</time>
      </trkpt>
      <trkpt lat="44.089" lon="7.01871">
        <ele>1813</ele>
        <time>2025-04-05T13:40:58Z</time>
      </trkpt>
      <trkpt lat="44.08898" lon="7.01866">
        <ele>1813</ele>
        <time>2025-04-05T13:41:04Z</time>
      </trkpt>
      <trkpt lat="44.08899" lon="7.01861">
        <ele>1811</ele>
        <time>2025-04-05T13:41:10Z</time>
      </trkpt>
      <trkpt lat="44.08898" lon="7.01857">
        <ele>1810</ele>
        <time>2025-04-05T13:41:16Z</time>
      </trkpt>
      <trkpt lat="44.08899" lon="7.0185">
        <ele>1811</ele>
        <time>2025-04-05T13:41:38Z</time>
      </trkpt>
      <trkpt lat="44.08899" lon="7.01845">
        <ele>1807</ele>
        <time>2025-04-05T13:42:16Z</time>
      </trkpt>
      <trkpt lat="44.08897" lon="7.01846">
        <ele>1807</ele>
        <time>2025-04-05T13:45:32Z</time>
      </trkpt>
      <trkpt lat="44.08896" lon="7.01856">
        <ele>1806</ele>
        <time>2025-04-05T13:45:44Z</time>
      </trkpt>
      <trkpt lat="44.08896" lon="7.01875">
        <ele>1806</ele>
        <time>2025-04-05T13:46:10Z</time>
      </trkpt>
      <trkpt lat="44.08898" lon="7.01878">
        <ele>1806</ele>
        <time>2025-04-05T13:46:16Z</time>
      </trkpt>
      <trkpt lat="44.08901" lon="7.01887">
        <ele>1808</ele>
        <time>2025-04-05T13:46:28Z</time>
      </trkpt>
      <trkpt lat="44.08906" lon="7.01902">
        <ele>1810</ele>
        <time>2025-04-05T13:46:44Z</time>
      </trkpt>
      <trkpt lat="44.08908" lon="7.01907">
        <ele>1810</ele>
        <time>2025-04-05T13:46:52Z</time>
      </trkpt>
      <trkpt lat="44.08909" lon="7.01914">
        <ele>1812</ele>
        <time>2025-04-05T13:47:20Z</time>
      </trkpt>
      <trkpt lat="44.08911" lon="7.0193">
        <ele>1813</ele>
        <time>2025-04-05T13:47:34Z</time>
      </trkpt>
      <trkpt lat="44.08913" lon="7.0194">
        <ele>1815</ele>
        <time>2025-04-05T13:47:44Z</time>
      </trkpt>
      <trkpt lat="44.08916" lon="7.01944">
        <ele>1815</ele>
        <time>2025-04-05T13:47:50Z</time>
      </trkpt>
      <trkpt lat="44.08916" lon="7.01951">
        <ele>1816</ele>
        <time>2025-04-05T13:47:56Z</time>
      </trkpt>
      <trkpt lat="44.08919" lon="7.01959">
        <ele>1816</ele>
        <time>2025-04-05T13:48:04Z</time>
      </trkpt>
      <trkpt lat="44.08921" lon="7.01962">
        <ele>1817</ele>
        <time>2025-04-05T13:48:14Z</time>
      </trkpt>
      <trkpt lat="44.08922" lon="7.01966">
        <ele>1817</ele>
        <time>2025-04-05T13:48:18Z</time>
      </trkpt>
      <trkpt lat="44.08924" lon="7.0197">
        <ele>1817</ele>
        <time>2025-04-05T13:48:22Z</time>
      </trkpt>
      <trkpt lat="44.08927" lon="7.01974">
        <ele>1820</ele>
        <time>2025-04-05T13:48:32Z</time>
      </trkpt>
      <trkpt lat="44.08933" lon="7.01985">
        <ele>1821</ele>
        <time>2025-04-05T13:48:44Z</time>
      </trkpt>
      <trkpt lat="44.08944" lon="7.01999">
        <ele>1822</ele>
        <time>2025-04-05T13:49:04Z</time>
      </trkpt>
      <trkpt lat="44.08945" lon="7.02002">
        <ele>1822</ele>
        <time>2025-04-05T13:49:08Z</time>
      </trkpt>
      <trkpt lat="44.08949" lon="7.02005">
        <ele>1824</ele>
        <time>2025-04-05T13:49:14Z</time>
      </trkpt>
      <trkpt lat="44.08952" lon="7.02005">
        <ele>1827</ele>
        <time>2025-04-05T13:53:54Z</time>
      </trkpt>
      <trkpt lat="44.08954" lon="7.02008">
        <ele>1824</ele>
        <time>2025-04-05T13:54:52Z</time>
      </trkpt>
      <trkpt lat="44.08959" lon="7.02009">
        <ele>1824</ele>
        <time>2025-04-05T13:54:58Z</time>
      </trkpt>
      <trkpt lat="44.0897" lon="7.02012">
        <ele>1826</ele>
        <time>2025-04-05T13:55:16Z</time>
      </trkpt>
      <trkpt lat="44.08973" lon="7.02012">
        <ele>1826</ele>
        <time>2025-04-05T13:55:20Z</time>
      </trkpt>
      <trkpt lat="44.08984" lon="7.0201">
        <ele>1825</ele>
        <time>2025-04-05T13:55:36Z</time>
      </trkpt>
      <trkpt lat="44.08993" lon="7.02007">
        <ele>1824</ele>
        <time>2025-04-05T13:55:48Z</time>
      </trkpt>
      <trkpt lat="44.08996" lon="7.02006">
        <ele>1824</ele>
        <time>2025-04-05T13:55:52Z</time>
      </trkpt>
      <trkpt lat="44.09" lon="7.02005">
        <ele>1824</ele>
        <time>2025-04-05T13:55:58Z</time>
      </trkpt>
      <trkpt lat="44.09004" lon="7.02005">
        <ele>1824</ele>
        <time>2025-04-05T13:56:02Z</time>
      </trkpt>
      <trkpt lat="44.09011" lon="7.02004">
        <ele>1822</ele>
        <time>2025-04-05T13:56:12Z</time>
      </trkpt>
      <trkpt lat="44.09026" lon="7.02009">
        <ele>1820</ele>
        <time>2025-04-05T13:56:40Z</time>
      </trkpt>
      <trkpt lat="44.0903" lon="7.0201">
        <ele>1820</ele>
        <time>2025-04-05T13:56:46Z</time>
      </trkpt>
      <trkpt lat="44.09034" lon="7.02014">
        <ele>1819</ele>
        <time>2025-04-05T13:56:50Z</time>
      </trkpt>
      <trkpt lat="44.09049" lon="7.02009">
        <ele>1819</ele>
        <time>2025-04-05T13:57:18Z</time>
      </trkpt>
      <trkpt lat="44.09052" lon="7.02009">
        <ele>1817</ele>
        <time>2025-04-05T13:57:26Z</time>
      </trkpt>
      <trkpt lat="44.09056" lon="7.02009">
        <ele>1816</ele>
        <time>2025-04-05T13:57:32Z</time>
      </trkpt>
      <trkpt lat="44.09058" lon="7.02015">
        <ele>1813</ele>
        <time>2025-04-05T13:57:38Z</time>
      </trkpt>
      <trkpt lat="44.09061" lon="7.02018">
        <ele>1813</ele>
        <time>2025-04-05T13:57:42Z</time>
      </trkpt>
      <trkpt lat="44.09064" lon="7.02019">
        <ele>1813</ele>
        <time>2025-04-05T13:57:48Z</time>
      </trkpt>
      <trkpt lat="44.09068" lon="7.02022">
        <ele>1814</ele>
        <time>2025-04-05T13:58:04Z</time>
      </trkpt>
      <trkpt lat="44.09071" lon="7.02026">
        <ele>1814</ele>
        <time>2025-04-05T13:58:12Z</time>
      </trkpt>
      <trkpt lat="44.09077" lon="7.02031">
        <ele>1812</ele>
        <time>2025-04-05T13:58:22Z</time>
      </trkpt>
      <trkpt lat="44.09079" lon="7.02027">
        <ele>1810</ele>
        <time>2025-04-05T13:58:34Z</time>
      </trkpt>
      <trkpt lat="44.09083" lon="7.0203">
        <ele>1806</ele>
        <time>2025-04-05T13:58:40Z</time>
      </trkpt>
      <trkpt lat="44.09089" lon="7.02029">
        <ele>1807</ele>
        <time>2025-04-05T13:58:48Z</time>
      </trkpt>
      <trkpt lat="44.0909" lon="7.02024">
        <ele>1809</ele>
        <time>2025-04-05T13:58:54Z</time>
      </trkpt>
      <trkpt lat="44.09093" lon="7.02023">
        <ele>1810</ele>
        <time>2025-04-05T13:59:00Z</time>
      </trkpt>
      <trkpt lat="44.09096" lon="7.02024">
        <ele>1810</ele>
        <time>2025-04-05T13:59:08Z</time>
      </trkpt>
      <trkpt lat="44.09099" lon="7.02025">
        <ele>1811</ele>
        <time>2025-04-05T13:59:12Z</time>
      </trkpt>
      <trkpt lat="44.09103" lon="7.02026">
        <ele>1810</ele>
        <time>2025-04-05T13:59:16Z</time>
      </trkpt>
      <trkpt lat="44.09108" lon="7.02025">
        <ele>1810</ele>
        <time>2025-04-05T13:59:24Z</time>
      </trkpt>
      <trkpt lat="44.09111" lon="7.02027">
        <ele>1808</ele>
        <time>2025-04-05T13:59:28Z</time>
      </trkpt>
      <trkpt lat="44.09122" lon="7.02034">
        <ele>1801</ele>
        <time>2025-04-05T13:59:46Z</time>
      </trkpt>
      <trkpt lat="44.09125" lon="7.02038">
        <ele>1798</ele>
        <time>2025-04-05T13:59:52Z</time>
      </trkpt>
      <trkpt lat="44.09132" lon="7.0204">
        <ele>1795</ele>
        <time>2025-04-05T14:00:06Z</time>
      </trkpt>
      <trkpt lat="44.09135" lon="7.02043">
        <ele>1793</ele>
        <time>2025-04-05T14:00:14Z</time>
      </trkpt>
      <trkpt lat="44.09148" lon="7.02047">
        <ele>1792</ele>
        <time>2025-04-05T14:00:48Z</time>
      </trkpt>
      <trkpt lat="44.09155" lon="7.0205">
        <ele>1792</ele>
        <time>2025-04-05T14:01:00Z</time>
      </trkpt>
      <trkpt lat="44.09156" lon="7.02054">
        <ele>1791</ele>
        <time>2025-04-05T14:01:06Z</time>
      </trkpt>
      <trkpt lat="44.0916" lon="7.02055">
        <ele>1790</ele>
        <time>2025-04-05T14:01:14Z</time>
      </trkpt>
      <trkpt lat="44.09163" lon="7.02057">
        <ele>1788</ele>
        <time>2025-04-05T14:01:18Z</time>
      </trkpt>
      <trkpt lat="44.09165" lon="7.02061">
        <ele>1789</ele>
        <time>2025-04-05T14:01:22Z</time>
      </trkpt>
      <trkpt lat="44.09169" lon="7.02062">
        <ele>1789</ele>
        <time>2025-04-05T14:01:28Z</time>
      </trkpt>
      <trkpt lat="44.09175" lon="7.02061">
        <ele>1791</ele>
        <time>2025-04-05T14:01:38Z</time>
      </trkpt>
      <trkpt lat="44.09178" lon="7.02063">
        <ele>1790</ele>
        <time>2025-04-05T14:01:42Z</time>
      </trkpt>
      <trkpt lat="44.09181" lon="7.02066">
        <ele>1790</ele>
        <time>2025-04-05T14:01:48Z</time>
      </trkpt>
      <trkpt lat="44.09192" lon="7.02066">
        <ele>1787</ele>
        <time>2025-04-05T14:02:08Z</time>
      </trkpt>
      <trkpt lat="44.09197" lon="7.02071">
        <ele>1786</ele>
        <time>2025-04-05T14:02:16Z</time>
      </trkpt>
      <trkpt lat="44.092" lon="7.02072">
        <ele>1786</ele>
        <time>2025-04-05T14:02:20Z</time>
      </trkpt>
      <trkpt lat="44.09203" lon="7.02072">
        <ele>1784</ele>
        <time>2025-04-05T14:02:26Z</time>
      </trkpt>
      <trkpt lat="44.09206" lon="7.02071">
        <ele>1783</ele>
        <time>2025-04-05T14:02:32Z</time>
      </trkpt>
      <trkpt lat="44.09212" lon="7.02075">
        <ele>1782</ele>
        <time>2025-04-05T14:02:42Z</time>
      </trkpt>
      <trkpt lat="44.09215" lon="7.02075">
        <ele>1782</ele>
        <time>2025-04-05T14:02:46Z</time>
      </trkpt>
      <trkpt lat="44.09219" lon="7.02074">
        <ele>1782</ele>
        <time>2025-04-05T14:02:52Z</time>
      </trkpt>
      <trkpt lat="44.09222" lon="7.02075">
        <ele>1781</ele>
        <time>2025-04-05T14:02:58Z</time>
      </trkpt>
      <trkpt lat="44.09233" lon="7.02081">
        <ele>1777</ele>
        <time>2025-04-05T14:03:30Z</time>
      </trkpt>
      <trkpt lat="44.09236" lon="7.02082">
        <ele>1777</ele>
        <time>2025-04-05T14:03:34Z</time>
      </trkpt>
      <trkpt lat="44.0925" lon="7.02087">
        <ele>1777</ele>
        <time>2025-04-05T14:03:56Z</time>
      </trkpt>
      <trkpt lat="44.09261" lon="7.0209">
        <ele>1774</ele>
        <time>2025-04-05T14:04:14Z</time>
      </trkpt>
      <trkpt lat="44.09265" lon="7.02088">
        <ele>1775</ele>
        <time>2025-04-05T14:04:20Z</time>
      </trkpt>
      <trkpt lat="44.09269" lon="7.0209">
        <ele>1774</ele>
        <time>2025-04-05T14:04:24Z</time>
      </trkpt>
      <trkpt lat="44.09272" lon="7.02092">
        <ele>1773</ele>
        <time>2025-04-05T14:04:28Z</time>
      </trkpt>
      <trkpt lat="44.09281" lon="7.02098">
        <ele>1768</ele>
        <time>2025-04-05T14:04:42Z</time>
      </trkpt>
      <trkpt lat="44.09305" lon="7.02109">
        <ele>1762</ele>
        <time>2025-04-05T14:05:14Z</time>
      </trkpt>
      <trkpt lat="44.0931" lon="7.02111">
        <ele>1761</ele>
        <time>2025-04-05T14:05:18Z</time>
      </trkpt>
      <trkpt lat="44.09314" lon="7.02113">
        <ele>1760</ele>
        <time>2025-04-05T14:05:24Z</time>
      </trkpt>
      <trkpt lat="44.09317" lon="7.02115">
        <ele>1760</ele>
        <time>2025-04-05T14:05:28Z</time>
      </trkpt>
      <trkpt lat="44.09326" lon="7.02116">
        <ele>1757</ele>
        <time>2025-04-05T14:05:36Z</time>
      </trkpt>
      <trkpt lat="44.09351" lon="7.02128">
        <ele>1752</ele>
        <time>2025-04-05T14:06:06Z</time>
      </trkpt>
      <trkpt lat="44.09355" lon="7.02127">
        <ele>1751</ele>
        <time>2025-04-05T14:06:12Z</time>
      </trkpt>
      <trkpt lat="44.09355" lon="7.02125">
        <ele>1747</ele>
        <time>2025-04-05T14:06:46Z</time>
      </trkpt>
      <trkpt lat="44.09357" lon="7.02131">
        <ele>1747</ele>
        <time>2025-04-05T14:06:54Z</time>
      </trkpt>
      <trkpt lat="44.0936" lon="7.0213">
        <ele>1748</ele>
        <time>2025-04-05T14:07:16Z</time>
      </trkpt>
      <trkpt lat="44.09383" lon="7.02124">
        <ele>1752</ele>
        <time>2025-04-05T14:07:46Z</time>
      </trkpt>
      <trkpt lat="44.09391" lon="7.02125">
        <ele>1749</ele>
        <time>2025-04-05T14:07:56Z</time>
      </trkpt>
      <trkpt lat="44.09399" lon="7.02122">
        <ele>1748</ele>
        <time>2025-04-05T14:08:06Z</time>
      </trkpt>
      <trkpt lat="44.09403" lon="7.02123">
        <ele>1747</ele>
        <time>2025-04-05T14:08:10Z</time>
      </trkpt>
      <trkpt lat="44.09407" lon="7.0212">
        <ele>1746</ele>
        <time>2025-04-05T14:08:14Z</time>
      </trkpt>
      <trkpt lat="44.09422" lon="7.02126">
        <ele>1742</ele>
        <time>2025-04-05T14:08:30Z</time>
      </trkpt>
      <trkpt lat="44.09427" lon="7.02128">
        <ele>1743</ele>
        <time>2025-04-05T14:08:34Z</time>
      </trkpt>
      <trkpt lat="44.09431" lon="7.0213">
        <ele>1743</ele>
        <time>2025-04-05T14:08:38Z</time>
      </trkpt>
      <trkpt lat="44.09442" lon="7.02136">
        <ele>1744</ele>
        <time>2025-04-05T14:08:54Z</time>
      </trkpt>
      <trkpt lat="44.09445" lon="7.02138">
        <ele>1744</ele>
        <time>2025-04-05T14:08:58Z</time>
      </trkpt>
      <trkpt lat="44.09453" lon="7.02141">
        <ele>1744</ele>
        <time>2025-04-05T14:09:06Z</time>
      </trkpt>
      <trkpt lat="44.0946" lon="7.02151">
        <ele>1745</ele>
        <time>2025-04-05T14:09:18Z</time>
      </trkpt>
      <trkpt lat="44.09464" lon="7.02151">
        <ele>1745</ele>
        <time>2025-04-05T14:09:22Z</time>
      </trkpt>
      <trkpt lat="44.09472" lon="7.02155">
        <ele>1747</ele>
        <time>2025-04-05T14:09:32Z</time>
      </trkpt>
      <trkpt lat="44.09474" lon="7.02159">
        <ele>1746</ele>
        <time>2025-04-05T14:09:38Z</time>
      </trkpt>
      <trkpt lat="44.09477" lon="7.0216">
        <ele>1746</ele>
        <time>2025-04-05T14:09:44Z</time>
      </trkpt>
      <trkpt lat="44.09481" lon="7.02161">
        <ele>1745</ele>
        <time>2025-04-05T14:11:02Z</time>
      </trkpt>
      <trkpt lat="44.09485" lon="7.02161">
        <ele>1746</ele>
        <time>2025-04-05T14:11:12Z</time>
      </trkpt>
      <trkpt lat="44.09488" lon="7.02163">
        <ele>1745</ele>
        <time>2025-04-05T14:11:22Z</time>
      </trkpt>
      <trkpt lat="44.09495" lon="7.02162">
        <ele>1744</ele>
        <time>2025-04-05T14:11:36Z</time>
      </trkpt>
      <trkpt lat="44.09501" lon="7.02164">
        <ele>1743</ele>
        <time>2025-04-05T14:11:50Z</time>
      </trkpt>
      <trkpt lat="44.09504" lon="7.02167">
        <ele>1742</ele>
        <time>2025-04-05T14:11:56Z</time>
      </trkpt>
      <trkpt lat="44.0951" lon="7.02171">
        <ele>1741</ele>
        <time>2025-04-05T14:12:04Z</time>
      </trkpt>
      <trkpt lat="44.09518" lon="7.02174">
        <ele>1742</ele>
        <time>2025-04-05T14:12:14Z</time>
      </trkpt>
      <trkpt lat="44.09521" lon="7.02178">
        <ele>1739</ele>
        <time>2025-04-05T14:12:18Z</time>
      </trkpt>
      <trkpt lat="44.09527" lon="7.02178">
        <ele>1738</ele>
        <time>2025-04-05T14:12:28Z</time>
      </trkpt>
      <trkpt lat="44.0953" lon="7.02181">
        <ele>1738</ele>
        <time>2025-04-05T14:12:36Z</time>
      </trkpt>
      <trkpt lat="44.09533" lon="7.02182">
        <ele>1738</ele>
        <time>2025-04-05T14:12:40Z</time>
      </trkpt>
      <trkpt lat="44.09536" lon="7.02185">
        <ele>1737</ele>
        <time>2025-04-05T14:12:48Z</time>
      </trkpt>
      <trkpt lat="44.09536" lon="7.02189">
        <ele>1738</ele>
        <time>2025-04-05T14:12:52Z</time>
      </trkpt>
      <trkpt lat="44.09538" lon="7.02193">
        <ele>1738</ele>
        <time>2025-04-05T14:12:58Z</time>
      </trkpt>
      <trkpt lat="44.09546" lon="7.02194">
        <ele>1737</ele>
        <time>2025-04-05T14:13:14Z</time>
      </trkpt>
      <trkpt lat="44.09546" lon="7.02198">
        <ele>1736</ele>
        <time>2025-04-05T14:13:24Z</time>
      </trkpt>
      <trkpt lat="44.09548" lon="7.022">
        <ele>1733</ele>
        <time>2025-04-05T14:14:22Z</time>
      </trkpt>
      <trkpt lat="44.09545" lon="7.02202">
        <ele>1734</ele>
        <time>2025-04-05T14:15:36Z</time>
      </trkpt>
      <trkpt lat="44.09546" lon="7.02206">
        <ele>1732</ele>
        <time>2025-04-05T14:15:44Z</time>
      </trkpt>
      <trkpt lat="44.09549" lon="7.02202">
        <ele>1731</ele>
        <time>2025-04-05T14:15:56Z</time>
      </trkpt>
      <trkpt lat="44.0955" lon="7.02197">
        <ele>1731</ele>
        <time>2025-04-05T14:16:02Z</time>
      </trkpt>
      <trkpt lat="44.09554" lon="7.02193">
        <ele>1730</ele>
        <time>2025-04-05T14:16:08Z</time>
      </trkpt>
      <trkpt lat="44.09555" lon="7.02189">
        <ele>1730</ele>
        <time>2025-04-05T14:16:14Z</time>
      </trkpt>
      <trkpt lat="44.09558" lon="7.02188">
        <ele>1731</ele>
        <time>2025-04-05T14:16:20Z</time>
      </trkpt>
      <trkpt lat="44.09559" lon="7.02184">
        <ele>1730</ele>
        <time>2025-04-05T14:16:26Z</time>
      </trkpt>
      <trkpt lat="44.09563" lon="7.02175">
        <ele>1728</ele>
        <time>2025-04-05T14:16:38Z</time>
      </trkpt>
      <trkpt lat="44.0957" lon="7.02171">
        <ele>1730</ele>
        <time>2025-04-05T14:16:50Z</time>
      </trkpt>
      <trkpt lat="44.09573" lon="7.02168">
        <ele>1729</ele>
        <time>2025-04-05T14:16:54Z</time>
      </trkpt>
      <trkpt lat="44.09576" lon="7.02165">
        <ele>1727</ele>
        <time>2025-04-05T14:17:00Z</time>
      </trkpt>
      <trkpt lat="44.09577" lon="7.02159">
        <ele>1727</ele>
        <time>2025-04-05T14:17:06Z</time>
      </trkpt>
      <trkpt lat="44.09581" lon="7.02151">
        <ele>1727</ele>
        <time>2025-04-05T14:17:14Z</time>
      </trkpt>
      <trkpt lat="44.09578" lon="7.02148">
        <ele>1728</ele>
        <time>2025-04-05T14:17:52Z</time>
      </trkpt>
      <trkpt lat="44.09578" lon="7.02147">
        <ele>1733</ele>
        <time>2025-04-05T14:18:08Z</time>
      </trkpt>
      <trkpt lat="44.09582" lon="7.02148">
        <ele>1732</ele>
        <time>2025-04-05T14:18:16Z</time>
      </trkpt>
      <trkpt lat="44.09588" lon="7.02149">
        <ele>1729</ele>
        <time>2025-04-05T14:18:24Z</time>
      </trkpt>
      <trkpt lat="44.09591" lon="7.02146">
        <ele>1729</ele>
        <time>2025-04-05T14:18:28Z</time>
      </trkpt>
      <trkpt lat="44.09594" lon="7.02142">
        <ele>1728</ele>
        <time>2025-04-05T14:18:32Z</time>
      </trkpt>
      <trkpt lat="44.09597" lon="7.02139">
        <ele>1725</ele>
        <time>2025-04-05T14:18:38Z</time>
      </trkpt>
      <trkpt lat="44.09601" lon="7.02137">
        <ele>1725</ele>
        <time>2025-04-05T14:18:42Z</time>
      </trkpt>
      <trkpt lat="44.09608" lon="7.02134">
        <ele>1723</ele>
        <time>2025-04-05T14:18:52Z</time>
      </trkpt>
      <trkpt lat="44.09611" lon="7.0213">
        <ele>1723</ele>
        <time>2025-04-05T14:18:56Z</time>
      </trkpt>
      <trkpt lat="44.09614" lon="7.02126">
        <ele>1721</ele>
        <time>2025-04-05T14:19:00Z</time>
      </trkpt>
      <trkpt lat="44.09618" lon="7.02125">
        <ele>1721</ele>
        <time>2025-04-05T14:19:04Z</time>
      </trkpt>
      <trkpt lat="44.0962" lon="7.02121">
        <ele>1721</ele>
        <time>2025-04-05T14:19:10Z</time>
      </trkpt>
      <trkpt lat="44.09624" lon="7.02117">
        <ele>1722</ele>
        <time>2025-04-05T14:19:14Z</time>
      </trkpt>
      <trkpt lat="44.09625" lon="7.02113">
        <ele>1723</ele>
        <time>2025-04-05T14:19:18Z</time>
      </trkpt>
      <trkpt lat="44.09634" lon="7.02111">
        <ele>1724</ele>
        <time>2025-04-05T14:19:30Z</time>
      </trkpt>
      <trkpt lat="44.09637" lon="7.02108">
        <ele>1725</ele>
        <time>2025-04-05T14:19:34Z</time>
      </trkpt>
      <trkpt lat="44.09649" lon="7.02109">
        <ele>1724</ele>
        <time>2025-04-05T14:20:10Z</time>
      </trkpt>
      <trkpt lat="44.09653" lon="7.0211">
        <ele>1724</ele>
        <time>2025-04-05T14:20:14Z</time>
      </trkpt>
      <trkpt lat="44.09656" lon="7.02109">
        <ele>1724</ele>
        <time>2025-04-05T14:20:18Z</time>
      </trkpt>
      <trkpt lat="44.09662" lon="7.02105">
        <ele>1723</ele>
        <time>2025-04-05T14:20:26Z</time>
      </trkpt>
      <trkpt lat="44.09665" lon="7.02103">
        <ele>1723</ele>
        <time>2025-04-05T14:20:30Z</time>
      </trkpt>
      <trkpt lat="44.09678" lon="7.02103">
        <ele>1723</ele>
        <time>2025-04-05T14:20:44Z</time>
      </trkpt>
      <trkpt lat="44.09681" lon="7.02101">
        <ele>1724</ele>
        <time>2025-04-05T14:20:48Z</time>
      </trkpt>
      <trkpt lat="44.09692" lon="7.02097">
        <ele>1725</ele>
        <time>2025-04-05T14:20:58Z</time>
      </trkpt>
      <trkpt lat="44.09696" lon="7.02094">
        <ele>1724</ele>
        <time>2025-04-05T14:21:02Z</time>
      </trkpt>
      <trkpt lat="44.097" lon="7.02096">
        <ele>1725</ele>
        <time>2025-04-05T14:21:06Z</time>
      </trkpt>
      <trkpt lat="44.09707" lon="7.02095">
        <ele>1727</ele>
        <time>2025-04-05T14:21:16Z</time>
      </trkpt>
      <trkpt lat="44.09715" lon="7.02091">
        <ele>1725</ele>
        <time>2025-04-05T14:21:26Z</time>
      </trkpt>
      <trkpt lat="44.09725" lon="7.0209">
        <ele>1727</ele>
        <time>2025-04-05T14:21:38Z</time>
      </trkpt>
      <trkpt lat="44.09733" lon="7.02098">
        <ele>1727</ele>
        <time>2025-04-05T14:21:56Z</time>
      </trkpt>
      <trkpt lat="44.09735" lon="7.02101">
        <ele>1726</ele>
        <time>2025-04-05T14:22:00Z</time>
      </trkpt>
      <trkpt lat="44.09737" lon="7.02106">
        <ele>1726</ele>
        <time>2025-04-05T14:22:04Z</time>
      </trkpt>
      <trkpt lat="44.0975" lon="7.02115">
        <ele>1725</ele>
        <time>2025-04-05T14:22:24Z</time>
      </trkpt>
      <trkpt lat="44.09754" lon="7.02115">
        <ele>1724</ele>
        <time>2025-04-05T14:22:32Z</time>
      </trkpt>
      <trkpt lat="44.09764" lon="7.0212">
        <ele>1721</ele>
        <time>2025-04-05T14:22:48Z</time>
      </trkpt>
      <trkpt lat="44.09769" lon="7.02119">
        <ele>1723</ele>
        <time>2025-04-05T14:22:58Z</time>
      </trkpt>
      <trkpt lat="44.09772" lon="7.02122">
        <ele>1722</ele>
        <time>2025-04-05T14:23:02Z</time>
      </trkpt>
      <trkpt lat="44.09776" lon="7.02124">
        <ele>1720</ele>
        <time>2025-04-05T14:23:08Z</time>
      </trkpt>
      <trkpt lat="44.09779" lon="7.02124">
        <ele>1720</ele>
        <time>2025-04-05T14:23:14Z</time>
      </trkpt>
      <trkpt lat="44.09793" lon="7.0213">
        <ele>1718</ele>
        <time>2025-04-05T14:23:30Z</time>
      </trkpt>
      <trkpt lat="44.09796" lon="7.0213">
        <ele>1717</ele>
        <time>2025-04-05T14:23:36Z</time>
      </trkpt>
      <trkpt lat="44.09799" lon="7.02132">
        <ele>1713</ele>
        <time>2025-04-05T14:23:40Z</time>
      </trkpt>
      <trkpt lat="44.09806" lon="7.02134">
        <ele>1714</ele>
        <time>2025-04-05T14:23:48Z</time>
      </trkpt>
      <trkpt lat="44.09825" lon="7.02145">
        <ele>1711</ele>
        <time>2025-04-05T14:24:10Z</time>
      </trkpt>
      <trkpt lat="44.09829" lon="7.02143">
        <ele>1710</ele>
        <time>2025-04-05T14:24:16Z</time>
      </trkpt>
      <trkpt lat="44.09842" lon="7.02151">
        <ele>1708</ele>
        <time>2025-04-05T14:24:34Z</time>
      </trkpt>
      <trkpt lat="44.09853" lon="7.02161">
        <ele>1703</ele>
        <time>2025-04-05T14:24:46Z</time>
      </trkpt>
      <trkpt lat="44.09857" lon="7.02161">
        <ele>1700</ele>
        <time>2025-04-05T14:24:52Z</time>
      </trkpt>
      <trkpt lat="44.0986" lon="7.02161">
        <ele>1698</ele>
        <time>2025-04-05T14:25:06Z</time>
      </trkpt>
      <trkpt lat="44.0986" lon="7.02165">
        <ele>1698</ele>
        <time>2025-04-05T14:25:20Z</time>
      </trkpt>
      <trkpt lat="44.09865" lon="7.0217">
        <ele>1695</ele>
        <time>2025-04-05T14:25:34Z</time>
      </trkpt>
      <trkpt lat="44.0987" lon="7.02171">
        <ele>1695</ele>
        <time>2025-04-05T14:25:40Z</time>
      </trkpt>
      <trkpt lat="44.09873" lon="7.02171">
        <ele>1695</ele>
        <time>2025-04-05T14:25:44Z</time>
      </trkpt>
      <trkpt lat="44.09875" lon="7.02175">
        <ele>1695</ele>
        <time>2025-04-05T14:25:48Z</time>
      </trkpt>
      <trkpt lat="44.09884" lon="7.02182">
        <ele>1693</ele>
        <time>2025-04-05T14:26:00Z</time>
      </trkpt>
      <trkpt lat="44.09892" lon="7.02185">
        <ele>1692</ele>
        <time>2025-04-05T14:26:08Z</time>
      </trkpt>
      <trkpt lat="44.09903" lon="7.02207">
        <ele>1691</ele>
        <time>2025-04-05T14:26:28Z</time>
      </trkpt>
      <trkpt lat="44.09906" lon="7.02214">
        <ele>1690</ele>
        <time>2025-04-05T14:26:34Z</time>
      </trkpt>
      <trkpt lat="44.09914" lon="7.02218">
        <ele>1688</ele>
        <time>2025-04-05T14:26:44Z</time>
      </trkpt>
      <trkpt lat="44.09916" lon="7.02223">
        <ele>1690</ele>
        <time>2025-04-05T14:26:48Z</time>
      </trkpt>
      <trkpt lat="44.09918" lon="7.02229">
        <ele>1690</ele>
        <time>2025-04-05T14:26:54Z</time>
      </trkpt>
      <trkpt lat="44.09921" lon="7.02232">
        <ele>1689</ele>
        <time>2025-04-05T14:26:58Z</time>
      </trkpt>
      <trkpt lat="44.09923" lon="7.02235">
        <ele>1689</ele>
        <time>2025-04-05T14:27:02Z</time>
      </trkpt>
      <trkpt lat="44.09926" lon="7.02239">
        <ele>1688</ele>
        <time>2025-04-05T14:27:06Z</time>
      </trkpt>
      <trkpt lat="44.09931" lon="7.02248">
        <ele>1685</ele>
        <time>2025-04-05T14:27:16Z</time>
      </trkpt>
      <trkpt lat="44.09938" lon="7.02251">
        <ele>1683</ele>
        <time>2025-04-05T14:27:24Z</time>
      </trkpt>
      <trkpt lat="44.09944" lon="7.02249">
        <ele>1683</ele>
        <time>2025-04-05T14:27:30Z</time>
      </trkpt>
      <trkpt lat="44.09951" lon="7.02249">
        <ele>1683</ele>
        <time>2025-04-05T14:27:38Z</time>
      </trkpt>
      <trkpt lat="44.09959" lon="7.02256">
        <ele>1681</ele>
        <time>2025-04-05T14:27:46Z</time>
      </trkpt>
      <trkpt lat="44.09961" lon="7.0226">
        <ele>1682</ele>
        <time>2025-04-05T14:27:50Z</time>
      </trkpt>
      <trkpt lat="44.09964" lon="7.02263">
        <ele>1682</ele>
        <time>2025-04-05T14:27:54Z</time>
      </trkpt>
      <trkpt lat="44.09971" lon="7.0227">
        <ele>1682</ele>
        <time>2025-04-05T14:28:04Z</time>
      </trkpt>
      <trkpt lat="44.09976" lon="7.0227">
        <ele>1682</ele>
        <time>2025-04-05T14:28:10Z</time>
      </trkpt>
      <trkpt lat="44.09979" lon="7.0227">
        <ele>1683</ele>
        <time>2025-04-05T14:28:14Z</time>
      </trkpt>
      <trkpt lat="44.09983" lon="7.02273">
        <ele>1683</ele>
        <time>2025-04-05T14:28:18Z</time>
      </trkpt>
      <trkpt lat="44.09984" lon="7.02279">
        <ele>1683</ele>
        <time>2025-04-05T14:28:24Z</time>
      </trkpt>
      <trkpt lat="44.09982" lon="7.02288">
        <ele>1684</ele>
        <time>2025-04-05T14:28:34Z</time>
      </trkpt>
      <trkpt lat="44.09985" lon="7.02291">
        <ele>1682</ele>
        <time>2025-04-05T14:28:40Z</time>
      </trkpt>
      <trkpt lat="44.09984" lon="7.02291">
        <ele>1682</ele>
        <time>2025-04-05T14:29:12Z</time>
      </trkpt>
      <trkpt lat="44.09983" lon="7.02293">
        <ele>1679</ele>
        <time>2025-04-05T14:30:46Z</time>
      </trkpt>
      <trkpt lat="44.09983" lon="7.02293">
        <ele>1679</ele>
        <time>2025-04-05T14:32:14Z</time>
      </trkpt>
      <trkpt lat="44.09986" lon="7.02289">
        <ele>1679</ele>
        <time>2025-04-05T14:32:24Z</time>
      </trkpt>
      <trkpt lat="44.09987" lon="7.02285">
        <ele>1679</ele>
        <time>2025-04-05T14:32:34Z</time>
      </trkpt>
      <trkpt lat="44.09983" lon="7.02287">
        <ele>1679</ele>
        <time>2025-04-05T14:32:40Z</time>
      </trkpt>
    </trkseg>
  </trk>
</gpx>